<?xml version="1.0" encoding="UTF-8" standalone="no" ?>
<gpx xmlns="http://www.topografix.com/GPX/1/1" xmlns:xsi="http://www.w3.org/2001/XMLSchema-instance" xsi:schemaLocation="http://www.topografix.com/GPX/1/1 http://www.topografix.com/GPX/1/1/gpx.xsd" version="1.1" creator="VisuGPX - https://www.visugpx.com">
  <metadata>
    <name>2021-02-28 08:26:28</name>
    <desc><![CDATA[Palama, Ouides, Jacquot, Caban, Débite, col Ste Anne, pilon du Roi, Oasis, Etoile.

<p>Heure de départ: 08:26 28 févr. 2021<br/>Heure d'arrivée: 12:36 28 févr. 2021<br/>Distance: 35,7 km (04:09)<br/>Temps déplacement: 03:31<br/>Vitesse moyenne: 8,58 km/h<br/>Vitesse moyenne mouv.: 10,14 km/h<br/>Vitesse Max.: 43,59 km/h<br/>Altitude minimale: 138 m<br/>Altitude maximale: 641 m<br/>Vitesse de montée: 391,7 m/h<br/>Vitesse de descente: 972,5 m/h<br/>Gain d'altitude: 1095 m<br/>Perte d'altitude: 1101 m<br/>Temps de montée: 02:47<br/>Temps de descente: 01:07<br/></p><hr align="center" width="480" style="height: 2px; width: 517px"/>]]></desc>
  </metadata>
  <wpt lat="43.35154" lon="5.44431">
    <ele>144.85</ele>
    <name><![CDATA[0000129]]></name>
    <type><![CDATA[Point de départ]]></type>
  </wpt>
  <wpt lat="43.35165" lon="5.44444">
    <ele>139</ele>
    <name><![CDATA[0000130]]></name>
    <desc><![CDATA[<p><br /><h3>Nom: Segment: 1</h3><br />Heure de départ: 08:26 28 févr. 2021<br/>Heure d'arrivée: 12:36 28 févr. 2021<br/>Distance: 35,7km (04:09)<br/>Temps déplacement: 03:31<br/>Vitesse moyenne: 8,58 km/h<br/>Vitesse moyenne mouv.: 10,14 km/h<br/>Vitesse Max.: 43,59 km/h<br/>Altitude minimale: 138 m<br/>Altitude maximale: 641 m<br/>Vitesse de montée: 391,7 m/h<br/>Vitesse de descente: 972,5 m/h<br/>Gain d'altitude: 1095 m<br/>Perte d'altitude: 1101 m<br/>Temps de montée: 02:47<br/>Temps de descente: 01:07<br/></p>]]></desc>
    <type><![CDATA[Point d'arrivée]]></type>
  </wpt>
  <trk>
    <name><![CDATA[2021-02-28 08:26:28]]></name>
    <desc><![CDATA[<p>Heure de départ: 08:26 28 févr. 2021<br/>Heure d'arrivée: 12:36 28 févr. 2021<br/>Distance: 35,7 km (04:09)<br/>Temps déplacement: 03:31<br/>Vitesse moyenne: 8,58 km/h<br/>Vitesse moyenne mouv.: 10,14 km/h<br/>Vitesse Max.: 43,59 km/h<br/>Altitude minimale: 138 m<br/>Altitude maximale: 641 m<br/>Vitesse de montée: 391,7 m/h<br/>Vitesse de descente: 972,5 m/h<br/>Gain d'altitude: 1095 m<br/>Perte d'altitude: 1101 m<br/>Temps de montée: 02:47<br/>Temps de descente: 01:07<br/></p><hr align="center" width="480" style="height: 2px; width: 517px"/>]]></desc>
    <trkseg>
      <trkpt lat="43.35154" lon="5.44431">
        <ele>144.83</ele>
        <time>2021-02-28T07:26:29.000Z</time>
      </trkpt>
      <trkpt lat="43.35168" lon="5.44449">
        <ele>146.26</ele>
        <time>2021-02-28T07:27:24.000Z</time>
      </trkpt>
      <trkpt lat="43.35188" lon="5.44443">
        <ele>146.92</ele>
        <time>2021-02-28T07:27:44.000Z</time>
      </trkpt>
      <trkpt lat="43.35208" lon="5.44431">
        <ele>147.19</ele>
        <time>2021-02-28T07:27:48.000Z</time>
      </trkpt>
      <trkpt lat="43.35226" lon="5.44431">
        <ele>148.65</ele>
        <time>2021-02-28T07:27:52.000Z</time>
      </trkpt>
      <trkpt lat="43.35236" lon="5.44458">
        <ele>149.64</ele>
        <time>2021-02-28T07:27:56.000Z</time>
      </trkpt>
      <trkpt lat="43.35239" lon="5.44482">
        <ele>150.95</ele>
        <time>2021-02-28T07:27:59.000Z</time>
      </trkpt>
      <trkpt lat="43.35246" lon="5.44514">
        <ele>151.84</ele>
        <time>2021-02-28T07:28:03.000Z</time>
      </trkpt>
      <trkpt lat="43.35247" lon="5.44541">
        <ele>152.67</ele>
        <time>2021-02-28T07:28:06.000Z</time>
      </trkpt>
      <trkpt lat="43.35249" lon="5.44566">
        <ele>153.27</ele>
        <time>2021-02-28T07:28:09.000Z</time>
      </trkpt>
      <trkpt lat="43.35255" lon="5.44591">
        <ele>154.14</ele>
        <time>2021-02-28T07:28:12.000Z</time>
      </trkpt>
      <trkpt lat="43.35266" lon="5.44618">
        <ele>155.19</ele>
        <time>2021-02-28T07:28:16.000Z</time>
      </trkpt>
      <trkpt lat="43.35276" lon="5.44639">
        <ele>155.88</ele>
        <time>2021-02-28T07:28:19.000Z</time>
      </trkpt>
      <trkpt lat="43.35286" lon="5.44659">
        <ele>156.6</ele>
        <time>2021-02-28T07:28:22.000Z</time>
      </trkpt>
      <trkpt lat="43.35299" lon="5.44688">
        <ele>157.71</ele>
        <time>2021-02-28T07:28:26.000Z</time>
      </trkpt>
      <trkpt lat="43.35308" lon="5.44712">
        <ele>158.06</ele>
        <time>2021-02-28T07:28:29.000Z</time>
      </trkpt>
      <trkpt lat="43.35316" lon="5.44736">
        <ele>158.6</ele>
        <time>2021-02-28T07:28:32.000Z</time>
      </trkpt>
      <trkpt lat="43.35327" lon="5.44765">
        <ele>159.15</ele>
        <time>2021-02-28T07:28:36.000Z</time>
      </trkpt>
      <trkpt lat="43.35335" lon="5.44789">
        <ele>159.6</ele>
        <time>2021-02-28T07:28:39.000Z</time>
      </trkpt>
      <trkpt lat="43.35342" lon="5.44811">
        <ele>159.55</ele>
        <time>2021-02-28T07:28:42.000Z</time>
      </trkpt>
      <trkpt lat="43.3535" lon="5.44838">
        <ele>158.78</ele>
        <time>2021-02-28T07:28:45.000Z</time>
      </trkpt>
      <trkpt lat="43.35362" lon="5.44865">
        <ele>157.45</ele>
        <time>2021-02-28T07:28:48.000Z</time>
      </trkpt>
      <trkpt lat="43.35376" lon="5.44891">
        <ele>156.34</ele>
        <time>2021-02-28T07:28:51.000Z</time>
      </trkpt>
      <trkpt lat="43.35387" lon="5.4492">
        <ele>156.41</ele>
        <time>2021-02-28T07:28:54.000Z</time>
      </trkpt>
      <trkpt lat="43.35394" lon="5.44943">
        <ele>157.8</ele>
        <time>2021-02-28T07:28:57.000Z</time>
      </trkpt>
      <trkpt lat="43.35409" lon="5.44966">
        <ele>159.3</ele>
        <time>2021-02-28T07:29:01.000Z</time>
      </trkpt>
      <trkpt lat="43.35427" lon="5.44987">
        <ele>160.3</ele>
        <time>2021-02-28T07:29:05.000Z</time>
      </trkpt>
      <trkpt lat="43.35441" lon="5.45004">
        <ele>161.13</ele>
        <time>2021-02-28T07:29:08.000Z</time>
      </trkpt>
      <trkpt lat="43.35454" lon="5.45021">
        <ele>161.55</ele>
        <time>2021-02-28T07:29:11.000Z</time>
      </trkpt>
      <trkpt lat="43.35473" lon="5.45042">
        <ele>162.29</ele>
        <time>2021-02-28T07:29:15.000Z</time>
      </trkpt>
      <trkpt lat="43.35492" lon="5.45063">
        <ele>162.85</ele>
        <time>2021-02-28T07:29:19.000Z</time>
      </trkpt>
      <trkpt lat="43.3551" lon="5.45082">
        <ele>163.6</ele>
        <time>2021-02-28T07:29:23.000Z</time>
      </trkpt>
      <trkpt lat="43.35526" lon="5.45101">
        <ele>164.13</ele>
        <time>2021-02-28T07:29:27.000Z</time>
      </trkpt>
      <trkpt lat="43.3554" lon="5.45118">
        <ele>164.61</ele>
        <time>2021-02-28T07:29:32.000Z</time>
      </trkpt>
      <trkpt lat="43.35552" lon="5.45138">
        <ele>164.71</ele>
        <time>2021-02-28T07:32:14.000Z</time>
      </trkpt>
      <trkpt lat="43.35569" lon="5.4515">
        <ele>164.71</ele>
        <time>2021-02-28T07:32:21.000Z</time>
      </trkpt>
      <trkpt lat="43.35587" lon="5.45146">
        <ele>165.22</ele>
        <time>2021-02-28T07:32:28.000Z</time>
      </trkpt>
      <trkpt lat="43.35589" lon="5.45119">
        <ele>166.23</ele>
        <time>2021-02-28T07:32:35.000Z</time>
      </trkpt>
      <trkpt lat="43.35594" lon="5.45094">
        <ele>166.93</ele>
        <time>2021-02-28T07:32:42.000Z</time>
      </trkpt>
      <trkpt lat="43.35606" lon="5.45073">
        <ele>167.58</ele>
        <time>2021-02-28T07:32:49.000Z</time>
      </trkpt>
      <trkpt lat="43.35627" lon="5.45082">
        <ele>168.36</ele>
        <time>2021-02-28T07:32:55.000Z</time>
      </trkpt>
      <trkpt lat="43.35645" lon="5.45093">
        <ele>169.3</ele>
        <time>2021-02-28T07:33:02.000Z</time>
      </trkpt>
      <trkpt lat="43.35664" lon="5.45101">
        <ele>169.85</ele>
        <time>2021-02-28T07:33:08.000Z</time>
      </trkpt>
      <trkpt lat="43.35682" lon="5.45107">
        <ele>170.66</ele>
        <time>2021-02-28T07:33:14.000Z</time>
      </trkpt>
      <trkpt lat="43.357" lon="5.45096">
        <ele>171.51</ele>
        <time>2021-02-28T07:33:21.000Z</time>
      </trkpt>
      <trkpt lat="43.35704" lon="5.45067">
        <ele>172.15</ele>
        <time>2021-02-28T07:33:27.000Z</time>
      </trkpt>
      <trkpt lat="43.35708" lon="5.45042">
        <ele>172.41</ele>
        <time>2021-02-28T07:33:32.000Z</time>
      </trkpt>
      <trkpt lat="43.35714" lon="5.45014">
        <ele>172.93</ele>
        <time>2021-02-28T07:33:38.000Z</time>
      </trkpt>
      <trkpt lat="43.3572" lon="5.44986">
        <ele>173.13</ele>
        <time>2021-02-28T07:33:44.000Z</time>
      </trkpt>
      <trkpt lat="43.35737" lon="5.44974">
        <ele>173.77</ele>
        <time>2021-02-28T07:33:53.000Z</time>
      </trkpt>
      <trkpt lat="43.35757" lon="5.44982">
        <ele>174.4</ele>
        <time>2021-02-28T07:33:59.000Z</time>
      </trkpt>
      <trkpt lat="43.35778" lon="5.44986">
        <ele>175.07</ele>
        <time>2021-02-28T07:34:05.000Z</time>
      </trkpt>
      <trkpt lat="43.35796" lon="5.44994">
        <ele>175.53</ele>
        <time>2021-02-28T07:34:11.000Z</time>
      </trkpt>
      <trkpt lat="43.35815" lon="5.45002">
        <ele>176.42</ele>
        <time>2021-02-28T07:34:17.000Z</time>
      </trkpt>
      <trkpt lat="43.35833" lon="5.4501">
        <ele>176.88</ele>
        <time>2021-02-28T07:34:22.000Z</time>
      </trkpt>
      <trkpt lat="43.35853" lon="5.45015">
        <ele>177.42</ele>
        <time>2021-02-28T07:34:27.000Z</time>
      </trkpt>
      <trkpt lat="43.35867" lon="5.44999">
        <ele>178.23</ele>
        <time>2021-02-28T07:34:33.000Z</time>
      </trkpt>
      <trkpt lat="43.35868" lon="5.44971">
        <ele>178.43</ele>
        <time>2021-02-28T07:34:38.000Z</time>
      </trkpt>
      <trkpt lat="43.35873" lon="5.44944">
        <ele>178.6</ele>
        <time>2021-02-28T07:34:44.000Z</time>
      </trkpt>
      <trkpt lat="43.35882" lon="5.44919">
        <ele>178.41</ele>
        <time>2021-02-28T07:34:48.000Z</time>
      </trkpt>
      <trkpt lat="43.3589" lon="5.44889">
        <ele>175.48</ele>
        <time>2021-02-28T07:34:53.000Z</time>
      </trkpt>
      <trkpt lat="43.35898" lon="5.44864">
        <ele>173.02</ele>
        <time>2021-02-28T07:34:57.000Z</time>
      </trkpt>
      <trkpt lat="43.35919" lon="5.44854">
        <ele>173.09</ele>
        <time>2021-02-28T07:35:01.000Z</time>
      </trkpt>
      <trkpt lat="43.3594" lon="5.44849">
        <ele>173.33</ele>
        <time>2021-02-28T07:35:06.000Z</time>
      </trkpt>
      <trkpt lat="43.3596" lon="5.44848">
        <ele>174.25</ele>
        <time>2021-02-28T07:35:11.000Z</time>
      </trkpt>
      <trkpt lat="43.3598" lon="5.44844">
        <ele>174.71</ele>
        <time>2021-02-28T07:35:16.000Z</time>
      </trkpt>
      <trkpt lat="43.36" lon="5.4484">
        <ele>175.65</ele>
        <time>2021-02-28T07:35:21.000Z</time>
      </trkpt>
      <trkpt lat="43.36021" lon="5.44832">
        <ele>176.34</ele>
        <time>2021-02-28T07:35:26.000Z</time>
      </trkpt>
      <trkpt lat="43.36038" lon="5.44824">
        <ele>176.63</ele>
        <time>2021-02-28T07:35:30.000Z</time>
      </trkpt>
      <trkpt lat="43.36058" lon="5.44816">
        <ele>177.83</ele>
        <time>2021-02-28T07:35:35.000Z</time>
      </trkpt>
      <trkpt lat="43.36077" lon="5.44808">
        <ele>179.24</ele>
        <time>2021-02-28T07:35:40.000Z</time>
      </trkpt>
      <trkpt lat="43.36096" lon="5.44799">
        <ele>180.48</ele>
        <time>2021-02-28T07:35:45.000Z</time>
      </trkpt>
      <trkpt lat="43.36113" lon="5.44786">
        <ele>181.17</ele>
        <time>2021-02-28T07:35:50.000Z</time>
      </trkpt>
      <trkpt lat="43.36132" lon="5.44773">
        <ele>182.06</ele>
        <time>2021-02-28T07:35:55.000Z</time>
      </trkpt>
      <trkpt lat="43.36149" lon="5.44768">
        <ele>182.8</ele>
        <time>2021-02-28T07:36:00.000Z</time>
      </trkpt>
      <trkpt lat="43.36169" lon="5.44763">
        <ele>184.4</ele>
        <time>2021-02-28T07:36:06.000Z</time>
      </trkpt>
      <trkpt lat="43.36189" lon="5.44758">
        <ele>185.36</ele>
        <time>2021-02-28T07:36:12.000Z</time>
      </trkpt>
      <trkpt lat="43.36207" lon="5.4475">
        <ele>186.06</ele>
        <time>2021-02-28T07:36:17.000Z</time>
      </trkpt>
      <trkpt lat="43.36228" lon="5.44745">
        <ele>186.76</ele>
        <time>2021-02-28T07:36:23.000Z</time>
      </trkpt>
      <trkpt lat="43.36248" lon="5.44742">
        <ele>187.49</ele>
        <time>2021-02-28T07:36:29.000Z</time>
      </trkpt>
      <trkpt lat="43.36266" lon="5.44737">
        <ele>187.91</ele>
        <time>2021-02-28T07:36:34.000Z</time>
      </trkpt>
      <trkpt lat="43.36287" lon="5.44735">
        <ele>188.73</ele>
        <time>2021-02-28T07:36:40.000Z</time>
      </trkpt>
      <trkpt lat="43.36305" lon="5.44731">
        <ele>189.53</ele>
        <time>2021-02-28T07:36:45.000Z</time>
      </trkpt>
      <trkpt lat="43.36325" lon="5.44723">
        <ele>189.71</ele>
        <time>2021-02-28T07:36:50.000Z</time>
      </trkpt>
      <trkpt lat="43.36345" lon="5.44715">
        <ele>190.97</ele>
        <time>2021-02-28T07:36:56.000Z</time>
      </trkpt>
      <trkpt lat="43.36363" lon="5.44707">
        <ele>191.65</ele>
        <time>2021-02-28T07:37:01.000Z</time>
      </trkpt>
      <trkpt lat="43.36381" lon="5.44699">
        <ele>192.39</ele>
        <time>2021-02-28T07:37:07.000Z</time>
      </trkpt>
      <trkpt lat="43.36401" lon="5.447">
        <ele>193.38</ele>
        <time>2021-02-28T07:37:13.000Z</time>
      </trkpt>
      <trkpt lat="43.36418" lon="5.44709">
        <ele>194.42</ele>
        <time>2021-02-28T07:37:19.000Z</time>
      </trkpt>
      <trkpt lat="43.36437" lon="5.44708">
        <ele>194.71</ele>
        <time>2021-02-28T07:37:24.000Z</time>
      </trkpt>
      <trkpt lat="43.36457" lon="5.44702">
        <ele>195.16</ele>
        <time>2021-02-28T07:37:30.000Z</time>
      </trkpt>
      <trkpt lat="43.36476" lon="5.447">
        <ele>195.81</ele>
        <time>2021-02-28T07:37:36.000Z</time>
      </trkpt>
      <trkpt lat="43.36495" lon="5.44704">
        <ele>196.42</ele>
        <time>2021-02-28T07:37:42.000Z</time>
      </trkpt>
      <trkpt lat="43.36516" lon="5.44703">
        <ele>197</ele>
        <time>2021-02-28T07:37:48.000Z</time>
      </trkpt>
      <trkpt lat="43.36537" lon="5.44694">
        <ele>197.76</ele>
        <time>2021-02-28T07:37:54.000Z</time>
      </trkpt>
      <trkpt lat="43.36547" lon="5.4467">
        <ele>198.51</ele>
        <time>2021-02-28T07:38:00.000Z</time>
      </trkpt>
      <trkpt lat="43.36557" lon="5.44646">
        <ele>200.04</ele>
        <time>2021-02-28T07:38:07.000Z</time>
      </trkpt>
      <trkpt lat="43.36576" lon="5.44638">
        <ele>201.29</ele>
        <time>2021-02-28T07:38:14.000Z</time>
      </trkpt>
      <trkpt lat="43.36594" lon="5.4465">
        <ele>202.06</ele>
        <time>2021-02-28T07:38:21.000Z</time>
      </trkpt>
      <trkpt lat="43.3661" lon="5.44665">
        <ele>202.61</ele>
        <time>2021-02-28T07:38:27.000Z</time>
      </trkpt>
      <trkpt lat="43.36631" lon="5.4467">
        <ele>203.54</ele>
        <time>2021-02-28T07:38:33.000Z</time>
      </trkpt>
      <trkpt lat="43.36649" lon="5.44674">
        <ele>204.33</ele>
        <time>2021-02-28T07:38:39.000Z</time>
      </trkpt>
      <trkpt lat="43.36666" lon="5.44688">
        <ele>205.06</ele>
        <time>2021-02-28T07:38:45.000Z</time>
      </trkpt>
      <trkpt lat="43.36681" lon="5.447">
        <ele>206.07</ele>
        <time>2021-02-28T07:38:51.000Z</time>
      </trkpt>
      <trkpt lat="43.367" lon="5.4471">
        <ele>207.15</ele>
        <time>2021-02-28T07:38:57.000Z</time>
      </trkpt>
      <trkpt lat="43.36718" lon="5.44711">
        <ele>207.85</ele>
        <time>2021-02-28T07:39:03.000Z</time>
      </trkpt>
      <trkpt lat="43.36735" lon="5.44721">
        <ele>208.89</ele>
        <time>2021-02-28T07:39:09.000Z</time>
      </trkpt>
      <trkpt lat="43.36749" lon="5.4474">
        <ele>209.96</ele>
        <time>2021-02-28T07:39:15.000Z</time>
      </trkpt>
      <trkpt lat="43.36763" lon="5.44759">
        <ele>211</ele>
        <time>2021-02-28T07:39:21.000Z</time>
      </trkpt>
      <trkpt lat="43.36775" lon="5.44777">
        <ele>212.17</ele>
        <time>2021-02-28T07:39:28.000Z</time>
      </trkpt>
      <trkpt lat="43.3679" lon="5.44795">
        <ele>213.78</ele>
        <time>2021-02-28T07:39:35.000Z</time>
      </trkpt>
      <trkpt lat="43.36808" lon="5.44805">
        <ele>215.52</ele>
        <time>2021-02-28T07:39:43.000Z</time>
      </trkpt>
      <trkpt lat="43.36825" lon="5.44791">
        <ele>218</ele>
        <time>2021-02-28T07:39:52.000Z</time>
      </trkpt>
      <trkpt lat="43.36843" lon="5.448">
        <ele>219.76</ele>
        <time>2021-02-28T07:40:00.000Z</time>
      </trkpt>
      <trkpt lat="43.36857" lon="5.44816">
        <ele>220.82</ele>
        <time>2021-02-28T07:40:07.000Z</time>
      </trkpt>
      <trkpt lat="43.36869" lon="5.44835">
        <ele>221.96</ele>
        <time>2021-02-28T07:40:15.000Z</time>
      </trkpt>
      <trkpt lat="43.36886" lon="5.44849">
        <ele>223.32</ele>
        <time>2021-02-28T07:40:23.000Z</time>
      </trkpt>
      <trkpt lat="43.36906" lon="5.44848">
        <ele>224.63</ele>
        <time>2021-02-28T07:40:31.000Z</time>
      </trkpt>
      <trkpt lat="43.36924" lon="5.4485">
        <ele>225.78</ele>
        <time>2021-02-28T07:40:39.000Z</time>
      </trkpt>
      <trkpt lat="43.36942" lon="5.44859">
        <ele>226.1</ele>
        <time>2021-02-28T07:40:46.000Z</time>
      </trkpt>
      <trkpt lat="43.36957" lon="5.44872">
        <ele>226.82</ele>
        <time>2021-02-28T07:40:53.000Z</time>
      </trkpt>
      <trkpt lat="43.36977" lon="5.44866">
        <ele>228.6</ele>
        <time>2021-02-28T07:41:03.000Z</time>
      </trkpt>
      <trkpt lat="43.3699" lon="5.4485">
        <ele>230.3</ele>
        <time>2021-02-28T07:41:12.000Z</time>
      </trkpt>
      <trkpt lat="43.37009" lon="5.44841">
        <ele>232.37</ele>
        <time>2021-02-28T07:41:20.000Z</time>
      </trkpt>
      <trkpt lat="43.37027" lon="5.44838">
        <ele>235.32</ele>
        <time>2021-02-28T07:41:31.000Z</time>
      </trkpt>
      <trkpt lat="43.37045" lon="5.44831">
        <ele>238.48</ele>
        <time>2021-02-28T07:41:44.000Z</time>
      </trkpt>
      <trkpt lat="43.37064" lon="5.44827">
        <ele>240.9</ele>
        <time>2021-02-28T07:41:55.000Z</time>
      </trkpt>
      <trkpt lat="43.37083" lon="5.44822">
        <ele>243.58</ele>
        <time>2021-02-28T07:42:09.000Z</time>
      </trkpt>
      <trkpt lat="43.37102" lon="5.44823">
        <ele>246.01</ele>
        <time>2021-02-28T07:42:21.000Z</time>
      </trkpt>
      <trkpt lat="43.3712" lon="5.44821">
        <ele>248.34</ele>
        <time>2021-02-28T07:42:33.000Z</time>
      </trkpt>
      <trkpt lat="43.37138" lon="5.44824">
        <ele>249.38</ele>
        <time>2021-02-28T07:42:43.000Z</time>
      </trkpt>
      <trkpt lat="43.37158" lon="5.44827">
        <ele>249.86</ele>
        <time>2021-02-28T07:42:52.000Z</time>
      </trkpt>
      <trkpt lat="43.37177" lon="5.44832">
        <ele>250.28</ele>
        <time>2021-02-28T07:42:59.000Z</time>
      </trkpt>
      <trkpt lat="43.37196" lon="5.44838">
        <ele>250.62</ele>
        <time>2021-02-28T07:43:08.000Z</time>
      </trkpt>
      <trkpt lat="43.37215" lon="5.44843">
        <ele>250.72</ele>
        <time>2021-02-28T07:43:16.000Z</time>
      </trkpt>
      <trkpt lat="43.37235" lon="5.44849">
        <ele>251.1</ele>
        <time>2021-02-28T07:43:23.000Z</time>
      </trkpt>
      <trkpt lat="43.37251" lon="5.44862">
        <ele>250.12</ele>
        <time>2021-02-28T07:50:37.000Z</time>
      </trkpt>
      <trkpt lat="43.37271" lon="5.44866">
        <ele>251.76</ele>
        <time>2021-02-28T07:50:48.000Z</time>
      </trkpt>
      <trkpt lat="43.37289" lon="5.4487">
        <ele>253.19</ele>
        <time>2021-02-28T07:50:56.000Z</time>
      </trkpt>
      <trkpt lat="43.37308" lon="5.4487">
        <ele>254.89</ele>
        <time>2021-02-28T07:51:06.000Z</time>
      </trkpt>
      <trkpt lat="43.37326" lon="5.44864">
        <ele>256.7</ele>
        <time>2021-02-28T07:51:15.000Z</time>
      </trkpt>
      <trkpt lat="43.37343" lon="5.44857">
        <ele>259.12</ele>
        <time>2021-02-28T07:51:24.000Z</time>
      </trkpt>
      <trkpt lat="43.37361" lon="5.44849">
        <ele>261.11</ele>
        <time>2021-02-28T07:51:33.000Z</time>
      </trkpt>
      <trkpt lat="43.3738" lon="5.44841">
        <ele>262.96</ele>
        <time>2021-02-28T07:51:42.000Z</time>
      </trkpt>
      <trkpt lat="43.37397" lon="5.44834">
        <ele>265.15</ele>
        <time>2021-02-28T07:51:51.000Z</time>
      </trkpt>
      <trkpt lat="43.37417" lon="5.4483">
        <ele>265.9</ele>
        <time>2021-02-28T07:51:59.000Z</time>
      </trkpt>
      <trkpt lat="43.37436" lon="5.44828">
        <ele>267.61</ele>
        <time>2021-02-28T07:52:07.000Z</time>
      </trkpt>
      <trkpt lat="43.37456" lon="5.44831">
        <ele>269.22</ele>
        <time>2021-02-28T07:52:17.000Z</time>
      </trkpt>
      <trkpt lat="43.37474" lon="5.44836">
        <ele>271.17</ele>
        <time>2021-02-28T07:52:26.000Z</time>
      </trkpt>
      <trkpt lat="43.37492" lon="5.44839">
        <ele>273.58</ele>
        <time>2021-02-28T07:52:37.000Z</time>
      </trkpt>
      <trkpt lat="43.3751" lon="5.44844">
        <ele>276.58</ele>
        <time>2021-02-28T07:52:50.000Z</time>
      </trkpt>
      <trkpt lat="43.3753" lon="5.44841">
        <ele>278.8</ele>
        <time>2021-02-28T07:53:02.000Z</time>
      </trkpt>
      <trkpt lat="43.37548" lon="5.44837">
        <ele>281.12</ele>
        <time>2021-02-28T07:53:14.000Z</time>
      </trkpt>
      <trkpt lat="43.37567" lon="5.44833">
        <ele>283.52</ele>
        <time>2021-02-28T07:53:27.000Z</time>
      </trkpt>
      <trkpt lat="43.37587" lon="5.44832">
        <ele>286.01</ele>
        <time>2021-02-28T07:53:40.000Z</time>
      </trkpt>
      <trkpt lat="43.37605" lon="5.4484">
        <ele>287.7</ele>
        <time>2021-02-28T07:53:52.000Z</time>
      </trkpt>
      <trkpt lat="43.37621" lon="5.44851">
        <ele>290.04</ele>
        <time>2021-02-28T07:54:03.000Z</time>
      </trkpt>
      <trkpt lat="43.37638" lon="5.44864">
        <ele>293.91</ele>
        <time>2021-02-28T07:54:17.000Z</time>
      </trkpt>
      <trkpt lat="43.37656" lon="5.44874">
        <ele>296.49</ele>
        <time>2021-02-28T07:54:30.000Z</time>
      </trkpt>
      <trkpt lat="43.37671" lon="5.44888">
        <ele>298.1</ele>
        <time>2021-02-28T07:54:42.000Z</time>
      </trkpt>
      <trkpt lat="43.37683" lon="5.44906">
        <ele>299.82</ele>
        <time>2021-02-28T07:54:54.000Z</time>
      </trkpt>
      <trkpt lat="43.37696" lon="5.44928">
        <ele>301.65</ele>
        <time>2021-02-28T07:55:05.000Z</time>
      </trkpt>
      <trkpt lat="43.37707" lon="5.44948">
        <ele>303.99</ele>
        <time>2021-02-28T07:55:17.000Z</time>
      </trkpt>
      <trkpt lat="43.37717" lon="5.4497">
        <ele>306.37</ele>
        <time>2021-02-28T07:55:30.000Z</time>
      </trkpt>
      <trkpt lat="43.37725" lon="5.44993">
        <ele>308.91</ele>
        <time>2021-02-28T07:55:45.000Z</time>
      </trkpt>
      <trkpt lat="43.3773" lon="5.45017">
        <ele>310.67</ele>
        <time>2021-02-28T07:55:56.000Z</time>
      </trkpt>
      <trkpt lat="43.37739" lon="5.4504">
        <ele>313.59</ele>
        <time>2021-02-28T07:56:08.000Z</time>
      </trkpt>
      <trkpt lat="43.37745" lon="5.45064">
        <ele>315.76</ele>
        <time>2021-02-28T07:56:19.000Z</time>
      </trkpt>
      <trkpt lat="43.37757" lon="5.45085">
        <ele>317.26</ele>
        <time>2021-02-28T07:56:30.000Z</time>
      </trkpt>
      <trkpt lat="43.37765" lon="5.45108">
        <ele>318.03</ele>
        <time>2021-02-28T07:56:41.000Z</time>
      </trkpt>
      <trkpt lat="43.37754" lon="5.45128">
        <ele>319.67</ele>
        <time>2021-02-28T07:56:51.000Z</time>
      </trkpt>
      <trkpt lat="43.37736" lon="5.4513">
        <ele>320.23</ele>
        <time>2021-02-28T07:57:57.000Z</time>
      </trkpt>
      <trkpt lat="43.37715" lon="5.45123">
        <ele>319.02</ele>
        <time>2021-02-28T08:02:39.000Z</time>
      </trkpt>
      <trkpt lat="43.37699" lon="5.45111">
        <ele>318.38</ele>
        <time>2021-02-28T08:02:44.000Z</time>
      </trkpt>
      <trkpt lat="43.37681" lon="5.45094">
        <ele>317.46</ele>
        <time>2021-02-28T08:02:49.000Z</time>
      </trkpt>
      <trkpt lat="43.37669" lon="5.45075">
        <ele>317.37</ele>
        <time>2021-02-28T08:02:54.000Z</time>
      </trkpt>
      <trkpt lat="43.37661" lon="5.45049">
        <ele>319.1</ele>
        <time>2021-02-28T08:03:00.000Z</time>
      </trkpt>
      <trkpt lat="43.37647" lon="5.4503">
        <ele>319.81</ele>
        <time>2021-02-28T08:03:06.000Z</time>
      </trkpt>
      <trkpt lat="43.3763" lon="5.45017">
        <ele>320.81</ele>
        <time>2021-02-28T08:03:12.000Z</time>
      </trkpt>
      <trkpt lat="43.37612" lon="5.45023">
        <ele>322.65</ele>
        <time>2021-02-28T08:03:18.000Z</time>
      </trkpt>
      <trkpt lat="43.37598" lon="5.4504">
        <ele>323.72</ele>
        <time>2021-02-28T08:03:24.000Z</time>
      </trkpt>
      <trkpt lat="43.37583" lon="5.45059">
        <ele>325.12</ele>
        <time>2021-02-28T08:03:31.000Z</time>
      </trkpt>
      <trkpt lat="43.3757" lon="5.45078">
        <ele>327.42</ele>
        <time>2021-02-28T08:03:38.000Z</time>
      </trkpt>
      <trkpt lat="43.37562" lon="5.45103">
        <ele>327.55</ele>
        <time>2021-02-28T08:03:46.000Z</time>
      </trkpt>
      <trkpt lat="43.37577" lon="5.45119">
        <ele>329.4</ele>
        <time>2021-02-28T08:03:54.000Z</time>
      </trkpt>
      <trkpt lat="43.37593" lon="5.45131">
        <ele>330.41</ele>
        <time>2021-02-28T08:04:03.000Z</time>
      </trkpt>
      <trkpt lat="43.37612" lon="5.4514">
        <ele>332.2</ele>
        <time>2021-02-28T08:04:14.000Z</time>
      </trkpt>
      <trkpt lat="43.37629" lon="5.45149">
        <ele>333.44</ele>
        <time>2021-02-28T08:04:23.000Z</time>
      </trkpt>
      <trkpt lat="43.37646" lon="5.45161">
        <ele>335.81</ele>
        <time>2021-02-28T08:04:33.000Z</time>
      </trkpt>
      <trkpt lat="43.37663" lon="5.45173">
        <ele>336.91</ele>
        <time>2021-02-28T08:04:42.000Z</time>
      </trkpt>
      <trkpt lat="43.3768" lon="5.45184">
        <ele>337.98</ele>
        <time>2021-02-28T08:04:51.000Z</time>
      </trkpt>
      <trkpt lat="43.37697" lon="5.45194">
        <ele>338.4</ele>
        <time>2021-02-28T08:04:58.000Z</time>
      </trkpt>
      <trkpt lat="43.37716" lon="5.452">
        <ele>338.69</ele>
        <time>2021-02-28T08:05:05.000Z</time>
      </trkpt>
      <trkpt lat="43.37735" lon="5.4521">
        <ele>339.1</ele>
        <time>2021-02-28T08:05:11.000Z</time>
      </trkpt>
      <trkpt lat="43.37754" lon="5.45222">
        <ele>339.03</ele>
        <time>2021-02-28T08:05:16.000Z</time>
      </trkpt>
      <trkpt lat="43.37772" lon="5.4522">
        <ele>339.25</ele>
        <time>2021-02-28T08:05:21.000Z</time>
      </trkpt>
      <trkpt lat="43.37792" lon="5.45219">
        <ele>340.44</ele>
        <time>2021-02-28T08:05:27.000Z</time>
      </trkpt>
      <trkpt lat="43.37811" lon="5.45219">
        <ele>340.74</ele>
        <time>2021-02-28T08:05:36.000Z</time>
      </trkpt>
      <trkpt lat="43.3783" lon="5.45214">
        <ele>340.85</ele>
        <time>2021-02-28T08:05:42.000Z</time>
      </trkpt>
      <trkpt lat="43.37849" lon="5.45209">
        <ele>340.47</ele>
        <time>2021-02-28T08:05:49.000Z</time>
      </trkpt>
      <trkpt lat="43.37868" lon="5.45209">
        <ele>341.22</ele>
        <time>2021-02-28T08:05:54.000Z</time>
      </trkpt>
      <trkpt lat="43.37887" lon="5.45215">
        <ele>340.85</ele>
        <time>2021-02-28T08:05:59.000Z</time>
      </trkpt>
      <trkpt lat="43.37906" lon="5.45226">
        <ele>340.33</ele>
        <time>2021-02-28T08:06:04.000Z</time>
      </trkpt>
      <trkpt lat="43.37925" lon="5.4524">
        <ele>340.94</ele>
        <time>2021-02-28T08:06:09.000Z</time>
      </trkpt>
      <trkpt lat="43.37945" lon="5.45251">
        <ele>340.39</ele>
        <time>2021-02-28T08:06:14.000Z</time>
      </trkpt>
      <trkpt lat="43.37965" lon="5.45261">
        <ele>340.19</ele>
        <time>2021-02-28T08:06:19.000Z</time>
      </trkpt>
      <trkpt lat="43.37981" lon="5.45277">
        <ele>341.04</ele>
        <time>2021-02-28T08:06:24.000Z</time>
      </trkpt>
      <trkpt lat="43.37992" lon="5.453">
        <ele>341</ele>
        <time>2021-02-28T08:06:29.000Z</time>
      </trkpt>
      <trkpt lat="43.38004" lon="5.45324">
        <ele>340.68</ele>
        <time>2021-02-28T08:06:34.000Z</time>
      </trkpt>
      <trkpt lat="43.38017" lon="5.45347">
        <ele>341.38</ele>
        <time>2021-02-28T08:06:39.000Z</time>
      </trkpt>
      <trkpt lat="43.38032" lon="5.45363">
        <ele>341.85</ele>
        <time>2021-02-28T08:06:44.000Z</time>
      </trkpt>
      <trkpt lat="43.38044" lon="5.45385">
        <ele>341.67</ele>
        <time>2021-02-28T08:06:49.000Z</time>
      </trkpt>
      <trkpt lat="43.38058" lon="5.45407">
        <ele>342.05</ele>
        <time>2021-02-28T08:06:54.000Z</time>
      </trkpt>
      <trkpt lat="43.3807" lon="5.45428">
        <ele>342.48</ele>
        <time>2021-02-28T08:06:59.000Z</time>
      </trkpt>
      <trkpt lat="43.38083" lon="5.45447">
        <ele>342.63</ele>
        <time>2021-02-28T08:07:04.000Z</time>
      </trkpt>
      <trkpt lat="43.38101" lon="5.4546">
        <ele>341.72</ele>
        <time>2021-02-28T08:07:09.000Z</time>
      </trkpt>
      <trkpt lat="43.38122" lon="5.45457">
        <ele>341.43</ele>
        <time>2021-02-28T08:07:14.000Z</time>
      </trkpt>
      <trkpt lat="43.38141" lon="5.45453">
        <ele>341.61</ele>
        <time>2021-02-28T08:07:19.000Z</time>
      </trkpt>
      <trkpt lat="43.38158" lon="5.45444">
        <ele>341.66</ele>
        <time>2021-02-28T08:07:23.000Z</time>
      </trkpt>
      <trkpt lat="43.3818" lon="5.45435">
        <ele>341.38</ele>
        <time>2021-02-28T08:07:28.000Z</time>
      </trkpt>
      <trkpt lat="43.38198" lon="5.45421">
        <ele>341.05</ele>
        <time>2021-02-28T08:07:33.000Z</time>
      </trkpt>
      <trkpt lat="43.38213" lon="5.45403">
        <ele>340.96</ele>
        <time>2021-02-28T08:07:38.000Z</time>
      </trkpt>
      <trkpt lat="43.3823" lon="5.4539">
        <ele>340.89</ele>
        <time>2021-02-28T08:07:42.000Z</time>
      </trkpt>
      <trkpt lat="43.38247" lon="5.45374">
        <ele>340.54</ele>
        <time>2021-02-28T08:07:47.000Z</time>
      </trkpt>
      <trkpt lat="43.38259" lon="5.45355">
        <ele>340.87</ele>
        <time>2021-02-28T08:07:52.000Z</time>
      </trkpt>
      <trkpt lat="43.38277" lon="5.45354">
        <ele>341.18</ele>
        <time>2021-02-28T08:08:01.000Z</time>
      </trkpt>
      <trkpt lat="43.38292" lon="5.45334">
        <ele>342.69</ele>
        <time>2021-02-28T08:08:10.000Z</time>
      </trkpt>
      <trkpt lat="43.38307" lon="5.45321">
        <ele>343.7</ele>
        <time>2021-02-28T08:08:18.000Z</time>
      </trkpt>
      <trkpt lat="43.38325" lon="5.45309">
        <ele>344.97</ele>
        <time>2021-02-28T08:08:26.000Z</time>
      </trkpt>
      <trkpt lat="43.38341" lon="5.45298">
        <ele>346.57</ele>
        <time>2021-02-28T08:08:34.000Z</time>
      </trkpt>
      <trkpt lat="43.3836" lon="5.453">
        <ele>348.4</ele>
        <time>2021-02-28T08:08:41.000Z</time>
      </trkpt>
      <trkpt lat="43.38377" lon="5.45289">
        <ele>349.39</ele>
        <time>2021-02-28T08:08:48.000Z</time>
      </trkpt>
      <trkpt lat="43.38391" lon="5.45271">
        <ele>350.04</ele>
        <time>2021-02-28T08:08:55.000Z</time>
      </trkpt>
      <trkpt lat="43.38405" lon="5.45256">
        <ele>349.55</ele>
        <time>2021-02-28T08:09:00.000Z</time>
      </trkpt>
      <trkpt lat="43.38423" lon="5.45241">
        <ele>350.14</ele>
        <time>2021-02-28T08:09:06.000Z</time>
      </trkpt>
      <trkpt lat="43.3844" lon="5.45232">
        <ele>351.25</ele>
        <time>2021-02-28T08:09:13.000Z</time>
      </trkpt>
      <trkpt lat="43.38459" lon="5.45224">
        <ele>352.08</ele>
        <time>2021-02-28T08:09:20.000Z</time>
      </trkpt>
      <trkpt lat="43.38477" lon="5.45218">
        <ele>353.27</ele>
        <time>2021-02-28T08:09:27.000Z</time>
      </trkpt>
      <trkpt lat="43.38496" lon="5.4522">
        <ele>355.22</ele>
        <time>2021-02-28T08:09:35.000Z</time>
      </trkpt>
      <trkpt lat="43.38515" lon="5.45219">
        <ele>356.48</ele>
        <time>2021-02-28T08:09:43.000Z</time>
      </trkpt>
      <trkpt lat="43.38533" lon="5.45211">
        <ele>357.33</ele>
        <time>2021-02-28T08:09:51.000Z</time>
      </trkpt>
      <trkpt lat="43.38552" lon="5.45201">
        <ele>358.04</ele>
        <time>2021-02-28T08:09:59.000Z</time>
      </trkpt>
      <trkpt lat="43.3857" lon="5.45191">
        <ele>358.7</ele>
        <time>2021-02-28T08:10:06.000Z</time>
      </trkpt>
      <trkpt lat="43.38588" lon="5.45186">
        <ele>360.29</ele>
        <time>2021-02-28T08:10:13.000Z</time>
      </trkpt>
      <trkpt lat="43.38606" lon="5.45174">
        <ele>361.52</ele>
        <time>2021-02-28T08:10:22.000Z</time>
      </trkpt>
      <trkpt lat="43.3862" lon="5.45159">
        <ele>362.23</ele>
        <time>2021-02-28T08:10:30.000Z</time>
      </trkpt>
      <trkpt lat="43.38637" lon="5.45148">
        <ele>363.6</ele>
        <time>2021-02-28T08:10:39.000Z</time>
      </trkpt>
      <trkpt lat="43.38655" lon="5.45138">
        <ele>364.8</ele>
        <time>2021-02-28T08:10:46.000Z</time>
      </trkpt>
      <trkpt lat="43.38673" lon="5.4513">
        <ele>365.49</ele>
        <time>2021-02-28T08:10:53.000Z</time>
      </trkpt>
      <trkpt lat="43.38693" lon="5.45126">
        <ele>365.93</ele>
        <time>2021-02-28T08:11:00.000Z</time>
      </trkpt>
      <trkpt lat="43.38711" lon="5.45122">
        <ele>367.44</ele>
        <time>2021-02-28T08:11:08.000Z</time>
      </trkpt>
      <trkpt lat="43.38729" lon="5.45114">
        <ele>369.27</ele>
        <time>2021-02-28T08:11:18.000Z</time>
      </trkpt>
      <trkpt lat="43.3875" lon="5.45111">
        <ele>370.68</ele>
        <time>2021-02-28T08:11:28.000Z</time>
      </trkpt>
      <trkpt lat="43.38767" lon="5.45103">
        <ele>371.96</ele>
        <time>2021-02-28T08:11:36.000Z</time>
      </trkpt>
      <trkpt lat="43.38783" lon="5.45091">
        <ele>372.99</ele>
        <time>2021-02-28T08:11:43.000Z</time>
      </trkpt>
      <trkpt lat="43.38799" lon="5.45078">
        <ele>374.2</ele>
        <time>2021-02-28T08:11:51.000Z</time>
      </trkpt>
      <trkpt lat="43.38817" lon="5.45064">
        <ele>374.19</ele>
        <time>2021-02-28T08:11:59.000Z</time>
      </trkpt>
      <trkpt lat="43.38831" lon="5.45046">
        <ele>375.4</ele>
        <time>2021-02-28T08:12:07.000Z</time>
      </trkpt>
      <trkpt lat="43.38841" lon="5.45024">
        <ele>376.42</ele>
        <time>2021-02-28T08:12:15.000Z</time>
      </trkpt>
      <trkpt lat="43.38855" lon="5.45007">
        <ele>377.29</ele>
        <time>2021-02-28T08:12:23.000Z</time>
      </trkpt>
      <trkpt lat="43.38873" lon="5.44998">
        <ele>378.57</ele>
        <time>2021-02-28T08:12:32.000Z</time>
      </trkpt>
      <trkpt lat="43.38889" lon="5.44988">
        <ele>380.01</ele>
        <time>2021-02-28T08:12:41.000Z</time>
      </trkpt>
      <trkpt lat="43.38904" lon="5.44972">
        <ele>381.35</ele>
        <time>2021-02-28T08:12:51.000Z</time>
      </trkpt>
      <trkpt lat="43.38915" lon="5.44952">
        <ele>381.93</ele>
        <time>2021-02-28T08:12:59.000Z</time>
      </trkpt>
      <trkpt lat="43.38929" lon="5.44937">
        <ele>383.88</ele>
        <time>2021-02-28T08:13:09.000Z</time>
      </trkpt>
      <trkpt lat="43.38945" lon="5.44924">
        <ele>386.85</ele>
        <time>2021-02-28T08:13:20.000Z</time>
      </trkpt>
      <trkpt lat="43.38959" lon="5.44906">
        <ele>389.09</ele>
        <time>2021-02-28T08:13:32.000Z</time>
      </trkpt>
      <trkpt lat="43.38971" lon="5.44886">
        <ele>391.81</ele>
        <time>2021-02-28T08:13:44.000Z</time>
      </trkpt>
      <trkpt lat="43.38987" lon="5.44871">
        <ele>394.4</ele>
        <time>2021-02-28T08:13:56.000Z</time>
      </trkpt>
      <trkpt lat="43.39004" lon="5.44859">
        <ele>395.18</ele>
        <time>2021-02-28T08:14:07.000Z</time>
      </trkpt>
      <trkpt lat="43.39022" lon="5.4485">
        <ele>395.51</ele>
        <time>2021-02-28T08:14:17.000Z</time>
      </trkpt>
      <trkpt lat="43.39039" lon="5.44838">
        <ele>396.03</ele>
        <time>2021-02-28T08:14:27.000Z</time>
      </trkpt>
      <trkpt lat="43.39058" lon="5.44838">
        <ele>395.72</ele>
        <time>2021-02-28T08:24:09.000Z</time>
      </trkpt>
      <trkpt lat="43.39075" lon="5.4483">
        <ele>397.99</ele>
        <time>2021-02-28T08:24:20.000Z</time>
      </trkpt>
      <trkpt lat="43.39093" lon="5.44822">
        <ele>401.32</ele>
        <time>2021-02-28T08:24:32.000Z</time>
      </trkpt>
      <trkpt lat="43.39112" lon="5.44822">
        <ele>404.02</ele>
        <time>2021-02-28T08:24:45.000Z</time>
      </trkpt>
      <trkpt lat="43.3913" lon="5.44819">
        <ele>405.26</ele>
        <time>2021-02-28T08:24:54.000Z</time>
      </trkpt>
      <trkpt lat="43.39149" lon="5.44819">
        <ele>406.33</ele>
        <time>2021-02-28T08:25:03.000Z</time>
      </trkpt>
      <trkpt lat="43.39148" lon="5.44846">
        <ele>406.82</ele>
        <time>2021-02-28T08:25:13.000Z</time>
      </trkpt>
      <trkpt lat="43.39129" lon="5.44851">
        <ele>407.17</ele>
        <time>2021-02-28T08:25:20.000Z</time>
      </trkpt>
      <trkpt lat="43.39111" lon="5.44862">
        <ele>408.13</ele>
        <time>2021-02-28T08:25:28.000Z</time>
      </trkpt>
      <trkpt lat="43.39094" lon="5.44872">
        <ele>409.45</ele>
        <time>2021-02-28T08:25:36.000Z</time>
      </trkpt>
      <trkpt lat="43.39078" lon="5.44884">
        <ele>410.9</ele>
        <time>2021-02-28T08:25:46.000Z</time>
      </trkpt>
      <trkpt lat="43.39065" lon="5.44902">
        <ele>413.18</ele>
        <time>2021-02-28T08:25:56.000Z</time>
      </trkpt>
      <trkpt lat="43.39054" lon="5.44922">
        <ele>415.16</ele>
        <time>2021-02-28T08:26:07.000Z</time>
      </trkpt>
      <trkpt lat="43.39045" lon="5.44945">
        <ele>418.93</ele>
        <time>2021-02-28T08:26:21.000Z</time>
      </trkpt>
      <trkpt lat="43.39036" lon="5.44969">
        <ele>421.8</ele>
        <time>2021-02-28T08:26:36.000Z</time>
      </trkpt>
      <trkpt lat="43.39025" lon="5.4499">
        <ele>424.71</ele>
        <time>2021-02-28T08:26:49.000Z</time>
      </trkpt>
      <trkpt lat="43.39016" lon="5.45012">
        <ele>427.76</ele>
        <time>2021-02-28T08:27:03.000Z</time>
      </trkpt>
      <trkpt lat="43.39006" lon="5.45036">
        <ele>430.4</ele>
        <time>2021-02-28T08:27:16.000Z</time>
      </trkpt>
      <trkpt lat="43.38995" lon="5.45055">
        <ele>432.87</ele>
        <time>2021-02-28T08:27:29.000Z</time>
      </trkpt>
      <trkpt lat="43.38984" lon="5.45076">
        <ele>434.76</ele>
        <time>2021-02-28T08:27:41.000Z</time>
      </trkpt>
      <trkpt lat="43.3898" lon="5.451">
        <ele>437.45</ele>
        <time>2021-02-28T08:27:53.000Z</time>
      </trkpt>
      <trkpt lat="43.38989" lon="5.45123">
        <ele>440.78</ele>
        <time>2021-02-28T08:28:09.000Z</time>
      </trkpt>
      <trkpt lat="43.39005" lon="5.45137">
        <ele>444.76</ele>
        <time>2021-02-28T08:28:27.000Z</time>
      </trkpt>
      <trkpt lat="43.3902" lon="5.45151">
        <ele>446.88</ele>
        <time>2021-02-28T08:28:41.000Z</time>
      </trkpt>
      <trkpt lat="43.39037" lon="5.45161">
        <ele>450.15</ele>
        <time>2021-02-28T08:28:57.000Z</time>
      </trkpt>
      <trkpt lat="43.39055" lon="5.45171">
        <ele>453.09</ele>
        <time>2021-02-28T08:29:13.000Z</time>
      </trkpt>
      <trkpt lat="43.39071" lon="5.4518">
        <ele>455.42</ele>
        <time>2021-02-28T08:29:28.000Z</time>
      </trkpt>
      <trkpt lat="43.39089" lon="5.45185">
        <ele>458.33</ele>
        <time>2021-02-28T08:29:44.000Z</time>
      </trkpt>
      <trkpt lat="43.39107" lon="5.45192">
        <ele>460.95</ele>
        <time>2021-02-28T08:30:00.000Z</time>
      </trkpt>
      <trkpt lat="43.39125" lon="5.45198">
        <ele>463.68</ele>
        <time>2021-02-28T08:30:16.000Z</time>
      </trkpt>
      <trkpt lat="43.39144" lon="5.45204">
        <ele>466.82</ele>
        <time>2021-02-28T08:30:33.000Z</time>
      </trkpt>
      <trkpt lat="43.39161" lon="5.45213">
        <ele>469.32</ele>
        <time>2021-02-28T08:30:48.000Z</time>
      </trkpt>
      <trkpt lat="43.39179" lon="5.4522">
        <ele>472.04</ele>
        <time>2021-02-28T08:31:02.000Z</time>
      </trkpt>
      <trkpt lat="43.39198" lon="5.45224">
        <ele>475.32</ele>
        <time>2021-02-28T08:31:20.000Z</time>
      </trkpt>
      <trkpt lat="43.39216" lon="5.45227">
        <ele>478</ele>
        <time>2021-02-28T08:31:34.000Z</time>
      </trkpt>
      <trkpt lat="43.39233" lon="5.45237">
        <ele>480.47</ele>
        <time>2021-02-28T08:31:49.000Z</time>
      </trkpt>
      <trkpt lat="43.39244" lon="5.45257">
        <ele>482.4</ele>
        <time>2021-02-28T08:32:04.000Z</time>
      </trkpt>
      <trkpt lat="43.39238" lon="5.45281">
        <ele>484.5</ele>
        <time>2021-02-28T08:32:17.000Z</time>
      </trkpt>
      <trkpt lat="43.3923" lon="5.45304">
        <ele>487.05</ele>
        <time>2021-02-28T08:32:30.000Z</time>
      </trkpt>
      <trkpt lat="43.39222" lon="5.45328">
        <ele>489.47</ele>
        <time>2021-02-28T08:32:44.000Z</time>
      </trkpt>
      <trkpt lat="43.39214" lon="5.45352">
        <ele>491.95</ele>
        <time>2021-02-28T08:32:58.000Z</time>
      </trkpt>
      <trkpt lat="43.39207" lon="5.45376">
        <ele>495.5</ele>
        <time>2021-02-28T08:33:13.000Z</time>
      </trkpt>
      <trkpt lat="43.39197" lon="5.45398">
        <ele>498.22</ele>
        <time>2021-02-28T08:33:27.000Z</time>
      </trkpt>
      <trkpt lat="43.39193" lon="5.45423">
        <ele>500.64</ele>
        <time>2021-02-28T08:33:41.000Z</time>
      </trkpt>
      <trkpt lat="43.39185" lon="5.45448">
        <ele>502.71</ele>
        <time>2021-02-28T08:33:56.000Z</time>
      </trkpt>
      <trkpt lat="43.39178" lon="5.45471">
        <ele>505.14</ele>
        <time>2021-02-28T08:34:10.000Z</time>
      </trkpt>
      <trkpt lat="43.39167" lon="5.45491">
        <ele>507.79</ele>
        <time>2021-02-28T08:34:24.000Z</time>
      </trkpt>
      <trkpt lat="43.39157" lon="5.45512">
        <ele>511.53</ele>
        <time>2021-02-28T08:34:40.000Z</time>
      </trkpt>
      <trkpt lat="43.39145" lon="5.45533">
        <ele>514.01</ele>
        <time>2021-02-28T08:34:54.000Z</time>
      </trkpt>
      <trkpt lat="43.39134" lon="5.45553">
        <ele>516.5</ele>
        <time>2021-02-28T08:35:09.000Z</time>
      </trkpt>
      <trkpt lat="43.39125" lon="5.45575">
        <ele>519.37</ele>
        <time>2021-02-28T08:35:24.000Z</time>
      </trkpt>
      <trkpt lat="43.39144" lon="5.45577">
        <ele>520.54</ele>
        <time>2021-02-28T08:41:58.000Z</time>
      </trkpt>
      <trkpt lat="43.39162" lon="5.45576">
        <ele>519.14</ele>
        <time>2021-02-28T08:42:02.000Z</time>
      </trkpt>
      <trkpt lat="43.39186" lon="5.45578">
        <ele>516.99</ele>
        <time>2021-02-28T08:42:06.000Z</time>
      </trkpt>
      <trkpt lat="43.3921" lon="5.45577">
        <ele>514.94</ele>
        <time>2021-02-28T08:42:09.000Z</time>
      </trkpt>
      <trkpt lat="43.39234" lon="5.45576">
        <ele>513.05</ele>
        <time>2021-02-28T08:42:12.000Z</time>
      </trkpt>
      <trkpt lat="43.39258" lon="5.45573">
        <ele>512.21</ele>
        <time>2021-02-28T08:42:15.000Z</time>
      </trkpt>
      <trkpt lat="43.3928" lon="5.45569">
        <ele>511.24</ele>
        <time>2021-02-28T08:42:18.000Z</time>
      </trkpt>
      <trkpt lat="43.393" lon="5.45566">
        <ele>510.8</ele>
        <time>2021-02-28T08:42:21.000Z</time>
      </trkpt>
      <trkpt lat="43.39319" lon="5.45565">
        <ele>510.27</ele>
        <time>2021-02-28T08:42:24.000Z</time>
      </trkpt>
      <trkpt lat="43.39342" lon="5.45563">
        <ele>509.68</ele>
        <time>2021-02-28T08:42:28.000Z</time>
      </trkpt>
      <trkpt lat="43.39364" lon="5.45561">
        <ele>509.41</ele>
        <time>2021-02-28T08:42:32.000Z</time>
      </trkpt>
      <trkpt lat="43.39384" lon="5.45559">
        <ele>508.95</ele>
        <time>2021-02-28T08:42:36.000Z</time>
      </trkpt>
      <trkpt lat="43.39407" lon="5.45556">
        <ele>508.82</ele>
        <time>2021-02-28T08:42:40.000Z</time>
      </trkpt>
      <trkpt lat="43.39429" lon="5.45554">
        <ele>508.45</ele>
        <time>2021-02-28T08:42:44.000Z</time>
      </trkpt>
      <trkpt lat="43.39451" lon="5.45558">
        <ele>508.24</ele>
        <time>2021-02-28T08:42:48.000Z</time>
      </trkpt>
      <trkpt lat="43.39469" lon="5.45564">
        <ele>507.98</ele>
        <time>2021-02-28T08:42:52.000Z</time>
      </trkpt>
      <trkpt lat="43.3947" lon="5.4559">
        <ele>507.61</ele>
        <time>2021-02-28T08:42:58.000Z</time>
      </trkpt>
      <trkpt lat="43.39454" lon="5.45603">
        <ele>508.31</ele>
        <time>2021-02-28T08:43:02.000Z</time>
      </trkpt>
      <trkpt lat="43.39437" lon="5.45614">
        <ele>508.05</ele>
        <time>2021-02-28T08:43:06.000Z</time>
      </trkpt>
      <trkpt lat="43.39422" lon="5.45629">
        <ele>507.54</ele>
        <time>2021-02-28T08:43:10.000Z</time>
      </trkpt>
      <trkpt lat="43.39402" lon="5.45646">
        <ele>507.13</ele>
        <time>2021-02-28T08:43:14.000Z</time>
      </trkpt>
      <trkpt lat="43.39386" lon="5.45662">
        <ele>506.24</ele>
        <time>2021-02-28T08:43:18.000Z</time>
      </trkpt>
      <trkpt lat="43.39369" lon="5.45677">
        <ele>505.82</ele>
        <time>2021-02-28T08:43:22.000Z</time>
      </trkpt>
      <trkpt lat="43.39351" lon="5.45693">
        <ele>504.91</ele>
        <time>2021-02-28T08:43:26.000Z</time>
      </trkpt>
      <trkpt lat="43.39333" lon="5.45711">
        <ele>503.74</ele>
        <time>2021-02-28T08:43:30.000Z</time>
      </trkpt>
      <trkpt lat="43.39318" lon="5.45726">
        <ele>502.52</ele>
        <time>2021-02-28T08:43:34.000Z</time>
      </trkpt>
      <trkpt lat="43.39297" lon="5.4574">
        <ele>502.41</ele>
        <time>2021-02-28T08:43:38.000Z</time>
      </trkpt>
      <trkpt lat="43.39277" lon="5.45758">
        <ele>500.62</ele>
        <time>2021-02-28T08:43:42.000Z</time>
      </trkpt>
      <trkpt lat="43.39261" lon="5.45776">
        <ele>499.25</ele>
        <time>2021-02-28T08:43:46.000Z</time>
      </trkpt>
      <trkpt lat="43.39251" lon="5.45802">
        <ele>498.5</ele>
        <time>2021-02-28T08:43:50.000Z</time>
      </trkpt>
      <trkpt lat="43.39245" lon="5.4583">
        <ele>497.45</ele>
        <time>2021-02-28T08:43:54.000Z</time>
      </trkpt>
      <trkpt lat="43.39248" lon="5.45855">
        <ele>497.33</ele>
        <time>2021-02-28T08:43:58.000Z</time>
      </trkpt>
      <trkpt lat="43.39257" lon="5.45877">
        <ele>496.67</ele>
        <time>2021-02-28T08:44:03.000Z</time>
      </trkpt>
      <trkpt lat="43.39272" lon="5.45898">
        <ele>497.41</ele>
        <time>2021-02-28T08:44:09.000Z</time>
      </trkpt>
      <trkpt lat="43.39288" lon="5.45913">
        <ele>497.14</ele>
        <time>2021-02-28T08:44:14.000Z</time>
      </trkpt>
      <trkpt lat="43.39306" lon="5.45927">
        <ele>497.55</ele>
        <time>2021-02-28T08:44:20.000Z</time>
      </trkpt>
      <trkpt lat="43.3932" lon="5.45942">
        <ele>497.22</ele>
        <time>2021-02-28T08:44:25.000Z</time>
      </trkpt>
      <trkpt lat="43.39333" lon="5.45962">
        <ele>497.45</ele>
        <time>2021-02-28T08:44:31.000Z</time>
      </trkpt>
      <trkpt lat="43.39329" lon="5.4599">
        <ele>498.46</ele>
        <time>2021-02-28T08:44:38.000Z</time>
      </trkpt>
      <trkpt lat="43.39313" lon="5.46006">
        <ele>498.75</ele>
        <time>2021-02-28T08:44:43.000Z</time>
      </trkpt>
      <trkpt lat="43.39295" lon="5.46021">
        <ele>499.17</ele>
        <time>2021-02-28T08:44:48.000Z</time>
      </trkpt>
      <trkpt lat="43.39278" lon="5.46033">
        <ele>499.42</ele>
        <time>2021-02-28T08:44:53.000Z</time>
      </trkpt>
      <trkpt lat="43.3926" lon="5.46045">
        <ele>499.65</ele>
        <time>2021-02-28T08:44:58.000Z</time>
      </trkpt>
      <trkpt lat="43.39241" lon="5.46055">
        <ele>499.56</ele>
        <time>2021-02-28T08:45:03.000Z</time>
      </trkpt>
      <trkpt lat="43.39222" lon="5.46068">
        <ele>499.35</ele>
        <time>2021-02-28T08:45:08.000Z</time>
      </trkpt>
      <trkpt lat="43.3921" lon="5.46091">
        <ele>500.37</ele>
        <time>2021-02-28T08:45:13.000Z</time>
      </trkpt>
      <trkpt lat="43.39207" lon="5.46116">
        <ele>500.84</ele>
        <time>2021-02-28T08:45:19.000Z</time>
      </trkpt>
      <trkpt lat="43.39204" lon="5.46141">
        <ele>501.13</ele>
        <time>2021-02-28T08:45:25.000Z</time>
      </trkpt>
      <trkpt lat="43.39201" lon="5.46168">
        <ele>502.1</ele>
        <time>2021-02-28T08:45:32.000Z</time>
      </trkpt>
      <trkpt lat="43.39197" lon="5.46195">
        <ele>502.44</ele>
        <time>2021-02-28T08:45:39.000Z</time>
      </trkpt>
      <trkpt lat="43.39203" lon="5.4622">
        <ele>502.5</ele>
        <time>2021-02-28T08:45:45.000Z</time>
      </trkpt>
      <trkpt lat="43.39218" lon="5.46235">
        <ele>501.54</ele>
        <time>2021-02-28T08:45:50.000Z</time>
      </trkpt>
      <trkpt lat="43.39235" lon="5.46249">
        <ele>501.25</ele>
        <time>2021-02-28T08:45:55.000Z</time>
      </trkpt>
      <trkpt lat="43.39252" lon="5.46262">
        <ele>500.41</ele>
        <time>2021-02-28T08:45:59.000Z</time>
      </trkpt>
      <trkpt lat="43.3927" lon="5.46279">
        <ele>500.01</ele>
        <time>2021-02-28T08:46:04.000Z</time>
      </trkpt>
      <trkpt lat="43.39286" lon="5.46297">
        <ele>500.13</ele>
        <time>2021-02-28T08:46:09.000Z</time>
      </trkpt>
      <trkpt lat="43.39294" lon="5.46319">
        <ele>500.52</ele>
        <time>2021-02-28T08:46:14.000Z</time>
      </trkpt>
      <trkpt lat="43.39285" lon="5.46346">
        <ele>499.31</ele>
        <time>2021-02-28T08:46:20.000Z</time>
      </trkpt>
      <trkpt lat="43.3927" lon="5.46366">
        <ele>498.5</ele>
        <time>2021-02-28T08:46:24.000Z</time>
      </trkpt>
      <trkpt lat="43.39255" lon="5.4639">
        <ele>496.71</ele>
        <time>2021-02-28T08:46:28.000Z</time>
      </trkpt>
      <trkpt lat="43.39241" lon="5.46406">
        <ele>495.62</ele>
        <time>2021-02-28T08:46:31.000Z</time>
      </trkpt>
      <trkpt lat="43.39225" lon="5.46427">
        <ele>493.57</ele>
        <time>2021-02-28T08:46:35.000Z</time>
      </trkpt>
      <trkpt lat="43.39214" lon="5.4645">
        <ele>491.04</ele>
        <time>2021-02-28T08:46:39.000Z</time>
      </trkpt>
      <trkpt lat="43.39206" lon="5.46475">
        <ele>489.73</ele>
        <time>2021-02-28T08:46:43.000Z</time>
      </trkpt>
      <trkpt lat="43.39202" lon="5.46502">
        <ele>488.2</ele>
        <time>2021-02-28T08:46:47.000Z</time>
      </trkpt>
      <trkpt lat="43.39199" lon="5.4653">
        <ele>486.52</ele>
        <time>2021-02-28T08:46:51.000Z</time>
      </trkpt>
      <trkpt lat="43.39184" lon="5.46552">
        <ele>484.51</ele>
        <time>2021-02-28T08:46:56.000Z</time>
      </trkpt>
      <trkpt lat="43.39161" lon="5.46555">
        <ele>483.06</ele>
        <time>2021-02-28T08:47:00.000Z</time>
      </trkpt>
      <trkpt lat="43.39138" lon="5.46551">
        <ele>480.93</ele>
        <time>2021-02-28T08:47:04.000Z</time>
      </trkpt>
      <trkpt lat="43.39119" lon="5.46547">
        <ele>478.77</ele>
        <time>2021-02-28T08:47:07.000Z</time>
      </trkpt>
      <trkpt lat="43.39097" lon="5.46543">
        <ele>475.68</ele>
        <time>2021-02-28T08:47:11.000Z</time>
      </trkpt>
      <trkpt lat="43.39079" lon="5.46542">
        <ele>474.62</ele>
        <time>2021-02-28T08:47:14.000Z</time>
      </trkpt>
      <trkpt lat="43.3906" lon="5.46545">
        <ele>472.39</ele>
        <time>2021-02-28T08:47:18.000Z</time>
      </trkpt>
      <trkpt lat="43.39053" lon="5.46569">
        <ele>469.23</ele>
        <time>2021-02-28T08:47:24.000Z</time>
      </trkpt>
      <trkpt lat="43.39061" lon="5.46598">
        <ele>466.46</ele>
        <time>2021-02-28T08:47:29.000Z</time>
      </trkpt>
      <trkpt lat="43.39069" lon="5.46624">
        <ele>463.93</ele>
        <time>2021-02-28T08:47:33.000Z</time>
      </trkpt>
      <trkpt lat="43.39076" lon="5.46649">
        <ele>461.02</ele>
        <time>2021-02-28T08:47:37.000Z</time>
      </trkpt>
      <trkpt lat="43.39071" lon="5.46673">
        <ele>458.04</ele>
        <time>2021-02-28T08:48:27.000Z</time>
      </trkpt>
      <trkpt lat="43.39054" lon="5.46681">
        <ele>456.86</ele>
        <time>2021-02-28T08:48:33.000Z</time>
      </trkpt>
      <trkpt lat="43.39036" lon="5.46686">
        <ele>456.25</ele>
        <time>2021-02-28T08:48:37.000Z</time>
      </trkpt>
      <trkpt lat="43.39016" lon="5.46686">
        <ele>454.74</ele>
        <time>2021-02-28T08:48:42.000Z</time>
      </trkpt>
      <trkpt lat="43.38998" lon="5.46683">
        <ele>451.4</ele>
        <time>2021-02-28T08:48:47.000Z</time>
      </trkpt>
      <trkpt lat="43.38975" lon="5.46682">
        <ele>449.26</ele>
        <time>2021-02-28T08:48:51.000Z</time>
      </trkpt>
      <trkpt lat="43.38956" lon="5.46681">
        <ele>446.6</ele>
        <time>2021-02-28T08:48:54.000Z</time>
      </trkpt>
      <trkpt lat="43.38937" lon="5.4668">
        <ele>444.28</ele>
        <time>2021-02-28T08:48:57.000Z</time>
      </trkpt>
      <trkpt lat="43.38918" lon="5.46681">
        <ele>441.33</ele>
        <time>2021-02-28T08:49:00.000Z</time>
      </trkpt>
      <trkpt lat="43.38898" lon="5.46679">
        <ele>439.93</ele>
        <time>2021-02-28T08:49:03.000Z</time>
      </trkpt>
      <trkpt lat="43.3888" lon="5.46676">
        <ele>437.87</ele>
        <time>2021-02-28T08:49:06.000Z</time>
      </trkpt>
      <trkpt lat="43.38861" lon="5.46688">
        <ele>435.85</ele>
        <time>2021-02-28T08:49:10.000Z</time>
      </trkpt>
      <trkpt lat="43.3885" lon="5.4671">
        <ele>435.64</ele>
        <time>2021-02-28T08:49:14.000Z</time>
      </trkpt>
      <trkpt lat="43.38846" lon="5.46734">
        <ele>436.76</ele>
        <time>2021-02-28T08:49:19.000Z</time>
      </trkpt>
      <trkpt lat="43.38853" lon="5.4676">
        <ele>438.4</ele>
        <time>2021-02-28T08:49:26.000Z</time>
      </trkpt>
      <trkpt lat="43.38864" lon="5.46782">
        <ele>438.52</ele>
        <time>2021-02-28T08:49:32.000Z</time>
      </trkpt>
      <trkpt lat="43.38876" lon="5.46804">
        <ele>438.74</ele>
        <time>2021-02-28T08:49:38.000Z</time>
      </trkpt>
      <trkpt lat="43.38885" lon="5.4683">
        <ele>438.81</ele>
        <time>2021-02-28T08:49:45.000Z</time>
      </trkpt>
      <trkpt lat="43.38882" lon="5.46855">
        <ele>438.53</ele>
        <time>2021-02-28T08:49:57.000Z</time>
      </trkpt>
      <trkpt lat="43.38872" lon="5.46879">
        <ele>437.95</ele>
        <time>2021-02-28T08:50:03.000Z</time>
      </trkpt>
      <trkpt lat="43.38855" lon="5.46896">
        <ele>435.52</ele>
        <time>2021-02-28T08:50:08.000Z</time>
      </trkpt>
      <trkpt lat="43.38837" lon="5.46909">
        <ele>433.35</ele>
        <time>2021-02-28T08:50:13.000Z</time>
      </trkpt>
      <trkpt lat="43.38822" lon="5.46925">
        <ele>430.56</ele>
        <time>2021-02-28T08:50:17.000Z</time>
      </trkpt>
      <trkpt lat="43.3881" lon="5.46952">
        <ele>429.93</ele>
        <time>2021-02-28T08:50:21.000Z</time>
      </trkpt>
      <trkpt lat="43.38793" lon="5.46969">
        <ele>428.9</ele>
        <time>2021-02-28T08:50:25.000Z</time>
      </trkpt>
      <trkpt lat="43.38777" lon="5.46983">
        <ele>428.34</ele>
        <time>2021-02-28T08:50:29.000Z</time>
      </trkpt>
      <trkpt lat="43.38764" lon="5.47002">
        <ele>428.06</ele>
        <time>2021-02-28T08:50:33.000Z</time>
      </trkpt>
      <trkpt lat="43.38748" lon="5.47023">
        <ele>428.29</ele>
        <time>2021-02-28T08:50:38.000Z</time>
      </trkpt>
      <trkpt lat="43.38727" lon="5.47035">
        <ele>427.79</ele>
        <time>2021-02-28T08:50:43.000Z</time>
      </trkpt>
      <trkpt lat="43.38709" lon="5.47046">
        <ele>426.94</ele>
        <time>2021-02-28T08:50:48.000Z</time>
      </trkpt>
      <trkpt lat="43.38715" lon="5.47073">
        <ele>423.17</ele>
        <time>2021-02-28T08:50:54.000Z</time>
      </trkpt>
      <trkpt lat="43.38724" lon="5.47099">
        <ele>419.78</ele>
        <time>2021-02-28T08:50:58.000Z</time>
      </trkpt>
      <trkpt lat="43.38726" lon="5.47128">
        <ele>416.92</ele>
        <time>2021-02-28T08:51:02.000Z</time>
      </trkpt>
      <trkpt lat="43.38733" lon="5.47158">
        <ele>414.6</ele>
        <time>2021-02-28T08:51:06.000Z</time>
      </trkpt>
      <trkpt lat="43.3872" lon="5.47179">
        <ele>413.14</ele>
        <time>2021-02-28T08:51:10.000Z</time>
      </trkpt>
      <trkpt lat="43.38698" lon="5.47188">
        <ele>411.36</ele>
        <time>2021-02-28T08:51:14.000Z</time>
      </trkpt>
      <trkpt lat="43.38677" lon="5.47197">
        <ele>411.73</ele>
        <time>2021-02-28T08:51:18.000Z</time>
      </trkpt>
      <trkpt lat="43.38659" lon="5.47207">
        <ele>411.22</ele>
        <time>2021-02-28T08:51:22.000Z</time>
      </trkpt>
      <trkpt lat="43.38642" lon="5.47217">
        <ele>410.19</ele>
        <time>2021-02-28T08:51:26.000Z</time>
      </trkpt>
      <trkpt lat="43.38631" lon="5.47238">
        <ele>410.4</ele>
        <time>2021-02-28T08:51:31.000Z</time>
      </trkpt>
      <trkpt lat="43.38623" lon="5.47261">
        <ele>410.64</ele>
        <time>2021-02-28T08:51:37.000Z</time>
      </trkpt>
      <trkpt lat="43.38612" lon="5.47282">
        <ele>411</ele>
        <time>2021-02-28T08:51:44.000Z</time>
      </trkpt>
      <trkpt lat="43.38596" lon="5.47294">
        <ele>410.56</ele>
        <time>2021-02-28T08:51:50.000Z</time>
      </trkpt>
      <trkpt lat="43.3858" lon="5.47306">
        <ele>410</ele>
        <time>2021-02-28T08:51:55.000Z</time>
      </trkpt>
      <trkpt lat="43.3856" lon="5.47317">
        <ele>408.99</ele>
        <time>2021-02-28T08:52:01.000Z</time>
      </trkpt>
      <trkpt lat="43.38541" lon="5.47323">
        <ele>408.68</ele>
        <time>2021-02-28T08:52:06.000Z</time>
      </trkpt>
      <trkpt lat="43.3852" lon="5.4733">
        <ele>407.27</ele>
        <time>2021-02-28T08:52:11.000Z</time>
      </trkpt>
      <trkpt lat="43.38501" lon="5.47334">
        <ele>406.04</ele>
        <time>2021-02-28T08:52:15.000Z</time>
      </trkpt>
      <trkpt lat="43.38479" lon="5.47335">
        <ele>404.57</ele>
        <time>2021-02-28T08:52:20.000Z</time>
      </trkpt>
      <trkpt lat="43.38461" lon="5.47334">
        <ele>403.06</ele>
        <time>2021-02-28T08:52:24.000Z</time>
      </trkpt>
      <trkpt lat="43.38442" lon="5.47332">
        <ele>402.75</ele>
        <time>2021-02-28T08:52:28.000Z</time>
      </trkpt>
      <trkpt lat="43.38422" lon="5.47323">
        <ele>402.28</ele>
        <time>2021-02-28T08:52:33.000Z</time>
      </trkpt>
      <trkpt lat="43.38403" lon="5.47318">
        <ele>401.34</ele>
        <time>2021-02-28T08:52:38.000Z</time>
      </trkpt>
      <trkpt lat="43.38383" lon="5.47315">
        <ele>400.62</ele>
        <time>2021-02-28T08:52:43.000Z</time>
      </trkpt>
      <trkpt lat="43.38363" lon="5.47319">
        <ele>398.13</ele>
        <time>2021-02-28T08:52:48.000Z</time>
      </trkpt>
      <trkpt lat="43.38342" lon="5.47326">
        <ele>394.95</ele>
        <time>2021-02-28T08:52:53.000Z</time>
      </trkpt>
      <trkpt lat="43.38323" lon="5.47333">
        <ele>392.75</ele>
        <time>2021-02-28T08:52:58.000Z</time>
      </trkpt>
      <trkpt lat="43.38303" lon="5.47343">
        <ele>390.15</ele>
        <time>2021-02-28T08:53:03.000Z</time>
      </trkpt>
      <trkpt lat="43.38289" lon="5.47361">
        <ele>388.3</ele>
        <time>2021-02-28T08:53:07.000Z</time>
      </trkpt>
      <trkpt lat="43.38274" lon="5.47378">
        <ele>386.12</ele>
        <time>2021-02-28T08:53:11.000Z</time>
      </trkpt>
      <trkpt lat="43.38256" lon="5.4739">
        <ele>384.04</ele>
        <time>2021-02-28T08:53:15.000Z</time>
      </trkpt>
      <trkpt lat="43.38263" lon="5.47414">
        <ele>383.14</ele>
        <time>2021-02-28T08:55:41.000Z</time>
      </trkpt>
      <trkpt lat="43.38282" lon="5.47419">
        <ele>383.09</ele>
        <time>2021-02-28T08:55:50.000Z</time>
      </trkpt>
      <trkpt lat="43.383" lon="5.47418">
        <ele>381.9</ele>
        <time>2021-02-28T08:55:58.000Z</time>
      </trkpt>
      <trkpt lat="43.38319" lon="5.47423">
        <ele>380.57</ele>
        <time>2021-02-28T08:56:04.000Z</time>
      </trkpt>
      <trkpt lat="43.38339" lon="5.47435">
        <ele>379.86</ele>
        <time>2021-02-28T08:56:09.000Z</time>
      </trkpt>
      <trkpt lat="43.38356" lon="5.47445">
        <ele>379.22</ele>
        <time>2021-02-28T08:56:13.000Z</time>
      </trkpt>
      <trkpt lat="43.38377" lon="5.47457">
        <ele>378.26</ele>
        <time>2021-02-28T08:56:18.000Z</time>
      </trkpt>
      <trkpt lat="43.38397" lon="5.47464">
        <ele>377.99</ele>
        <time>2021-02-28T08:56:23.000Z</time>
      </trkpt>
      <trkpt lat="43.38419" lon="5.47465">
        <ele>378.34</ele>
        <time>2021-02-28T08:56:28.000Z</time>
      </trkpt>
      <trkpt lat="43.38437" lon="5.47465">
        <ele>378.53</ele>
        <time>2021-02-28T08:56:33.000Z</time>
      </trkpt>
      <trkpt lat="43.38456" lon="5.47476">
        <ele>377.63</ele>
        <time>2021-02-28T08:56:38.000Z</time>
      </trkpt>
      <trkpt lat="43.38457" lon="5.47502">
        <ele>376.32</ele>
        <time>2021-02-28T08:56:42.000Z</time>
      </trkpt>
      <trkpt lat="43.38449" lon="5.47526">
        <ele>375.12</ele>
        <time>2021-02-28T08:56:46.000Z</time>
      </trkpt>
      <trkpt lat="43.38435" lon="5.47543">
        <ele>373.71</ele>
        <time>2021-02-28T08:56:50.000Z</time>
      </trkpt>
      <trkpt lat="43.38417" lon="5.47558">
        <ele>371.95</ele>
        <time>2021-02-28T08:56:54.000Z</time>
      </trkpt>
      <trkpt lat="43.38395" lon="5.47571">
        <ele>370.14</ele>
        <time>2021-02-28T08:56:58.000Z</time>
      </trkpt>
      <trkpt lat="43.38378" lon="5.4758">
        <ele>369.14</ele>
        <time>2021-02-28T08:57:01.000Z</time>
      </trkpt>
      <trkpt lat="43.38362" lon="5.47591">
        <ele>368.12</ele>
        <time>2021-02-28T08:57:04.000Z</time>
      </trkpt>
      <trkpt lat="43.38346" lon="5.47613">
        <ele>367.27</ele>
        <time>2021-02-28T08:57:08.000Z</time>
      </trkpt>
      <trkpt lat="43.38331" lon="5.47636">
        <ele>365.67</ele>
        <time>2021-02-28T08:57:12.000Z</time>
      </trkpt>
      <trkpt lat="43.38318" lon="5.47658">
        <ele>364.03</ele>
        <time>2021-02-28T08:57:16.000Z</time>
      </trkpt>
      <trkpt lat="43.3831" lon="5.47687">
        <ele>361.61</ele>
        <time>2021-02-28T08:57:20.000Z</time>
      </trkpt>
      <trkpt lat="43.38319" lon="5.47716">
        <ele>358.76</ele>
        <time>2021-02-28T08:57:24.000Z</time>
      </trkpt>
      <trkpt lat="43.3834" lon="5.4773">
        <ele>357.56</ele>
        <time>2021-02-28T08:57:28.000Z</time>
      </trkpt>
      <trkpt lat="43.3836" lon="5.4774">
        <ele>356.17</ele>
        <time>2021-02-28T08:57:32.000Z</time>
      </trkpt>
      <trkpt lat="43.38377" lon="5.47752">
        <ele>354.88</ele>
        <time>2021-02-28T08:57:35.000Z</time>
      </trkpt>
      <trkpt lat="43.38395" lon="5.47763">
        <ele>352.87</ele>
        <time>2021-02-28T08:57:38.000Z</time>
      </trkpt>
      <trkpt lat="43.38414" lon="5.4777">
        <ele>350.12</ele>
        <time>2021-02-28T08:57:41.000Z</time>
      </trkpt>
      <trkpt lat="43.38434" lon="5.4776">
        <ele>347.8</ele>
        <time>2021-02-28T08:57:45.000Z</time>
      </trkpt>
      <trkpt lat="43.38446" lon="5.47739">
        <ele>346.62</ele>
        <time>2021-02-28T08:57:50.000Z</time>
      </trkpt>
      <trkpt lat="43.38459" lon="5.47717">
        <ele>345.97</ele>
        <time>2021-02-28T08:57:55.000Z</time>
      </trkpt>
      <trkpt lat="43.3847" lon="5.47695">
        <ele>345.08</ele>
        <time>2021-02-28T08:57:59.000Z</time>
      </trkpt>
      <trkpt lat="43.38488" lon="5.47682">
        <ele>342.84</ele>
        <time>2021-02-28T08:58:03.000Z</time>
      </trkpt>
      <trkpt lat="43.38511" lon="5.47675">
        <ele>340.58</ele>
        <time>2021-02-28T08:58:07.000Z</time>
      </trkpt>
      <trkpt lat="43.38532" lon="5.47685">
        <ele>338.19</ele>
        <time>2021-02-28T08:58:11.000Z</time>
      </trkpt>
      <trkpt lat="43.3855" lon="5.47694">
        <ele>335.96</ele>
        <time>2021-02-28T08:58:14.000Z</time>
      </trkpt>
      <trkpt lat="43.38571" lon="5.47699">
        <ele>334.02</ele>
        <time>2021-02-28T08:58:18.000Z</time>
      </trkpt>
      <trkpt lat="43.38588" lon="5.47688">
        <ele>333.92</ele>
        <time>2021-02-28T08:58:22.000Z</time>
      </trkpt>
      <trkpt lat="43.38598" lon="5.47665">
        <ele>332.69</ele>
        <time>2021-02-28T08:58:26.000Z</time>
      </trkpt>
      <trkpt lat="43.38608" lon="5.47644">
        <ele>331.34</ele>
        <time>2021-02-28T08:58:29.000Z</time>
      </trkpt>
      <trkpt lat="43.38623" lon="5.47622">
        <ele>330.04</ele>
        <time>2021-02-28T08:58:33.000Z</time>
      </trkpt>
      <trkpt lat="43.3864" lon="5.47619">
        <ele>328.71</ele>
        <time>2021-02-28T08:58:37.000Z</time>
      </trkpt>
      <trkpt lat="43.38647" lon="5.47646">
        <ele>329.06</ele>
        <time>2021-02-28T08:58:42.000Z</time>
      </trkpt>
      <trkpt lat="43.38647" lon="5.47672">
        <ele>331.05</ele>
        <time>2021-02-28T08:58:50.000Z</time>
      </trkpt>
      <trkpt lat="43.3865" lon="5.47698">
        <ele>333.1</ele>
        <time>2021-02-28T08:58:59.000Z</time>
      </trkpt>
      <trkpt lat="43.38653" lon="5.47722">
        <ele>334.73</ele>
        <time>2021-02-28T08:59:08.000Z</time>
      </trkpt>
      <trkpt lat="43.3865" lon="5.47748">
        <ele>336.02</ele>
        <time>2021-02-28T08:59:17.000Z</time>
      </trkpt>
      <trkpt lat="43.38637" lon="5.47765">
        <ele>337.56</ele>
        <time>2021-02-28T08:59:26.000Z</time>
      </trkpt>
      <trkpt lat="43.38618" lon="5.47771">
        <ele>338.98</ele>
        <time>2021-02-28T08:59:35.000Z</time>
      </trkpt>
      <trkpt lat="43.386" lon="5.47779">
        <ele>339.49</ele>
        <time>2021-02-28T08:59:43.000Z</time>
      </trkpt>
      <trkpt lat="43.38581" lon="5.47791">
        <ele>339.72</ele>
        <time>2021-02-28T08:59:50.000Z</time>
      </trkpt>
      <trkpt lat="43.38562" lon="5.47799">
        <ele>340.08</ele>
        <time>2021-02-28T08:59:57.000Z</time>
      </trkpt>
      <trkpt lat="43.38543" lon="5.47803">
        <ele>339.97</ele>
        <time>2021-02-28T09:00:04.000Z</time>
      </trkpt>
      <trkpt lat="43.38526" lon="5.47818">
        <ele>340.23</ele>
        <time>2021-02-28T09:00:11.000Z</time>
      </trkpt>
      <trkpt lat="43.38521" lon="5.47842">
        <ele>340.81</ele>
        <time>2021-02-28T09:00:17.000Z</time>
      </trkpt>
      <trkpt lat="43.38514" lon="5.47867">
        <ele>341.85</ele>
        <time>2021-02-28T09:00:25.000Z</time>
      </trkpt>
      <trkpt lat="43.38505" lon="5.4789">
        <ele>342.87</ele>
        <time>2021-02-28T09:00:33.000Z</time>
      </trkpt>
      <trkpt lat="43.38497" lon="5.47916">
        <ele>343.77</ele>
        <time>2021-02-28T09:00:41.000Z</time>
      </trkpt>
      <trkpt lat="43.38489" lon="5.47937">
        <ele>344.73</ele>
        <time>2021-02-28T09:00:48.000Z</time>
      </trkpt>
      <trkpt lat="43.38479" lon="5.47961">
        <ele>345.57</ele>
        <time>2021-02-28T09:00:56.000Z</time>
      </trkpt>
      <trkpt lat="43.38464" lon="5.47977">
        <ele>345.5</ele>
        <time>2021-02-28T09:01:02.000Z</time>
      </trkpt>
      <trkpt lat="43.38443" lon="5.47986">
        <ele>345.24</ele>
        <time>2021-02-28T09:01:08.000Z</time>
      </trkpt>
      <trkpt lat="43.38425" lon="5.47997">
        <ele>344.59</ele>
        <time>2021-02-28T09:01:13.000Z</time>
      </trkpt>
      <trkpt lat="43.38407" lon="5.4801">
        <ele>344.99</ele>
        <time>2021-02-28T09:01:19.000Z</time>
      </trkpt>
      <trkpt lat="43.384" lon="5.48034">
        <ele>346.41</ele>
        <time>2021-02-28T09:01:28.000Z</time>
      </trkpt>
      <trkpt lat="43.38411" lon="5.48057">
        <ele>346.07</ele>
        <time>2021-02-28T09:01:35.000Z</time>
      </trkpt>
      <trkpt lat="43.38426" lon="5.48071">
        <ele>344.79</ele>
        <time>2021-02-28T09:01:40.000Z</time>
      </trkpt>
      <trkpt lat="43.38442" lon="5.48087">
        <ele>343.79</ele>
        <time>2021-02-28T09:01:45.000Z</time>
      </trkpt>
      <trkpt lat="43.3846" lon="5.48094">
        <ele>344.05</ele>
        <time>2021-02-28T09:01:54.000Z</time>
      </trkpt>
      <trkpt lat="43.38479" lon="5.48094">
        <ele>345.37</ele>
        <time>2021-02-28T09:02:02.000Z</time>
      </trkpt>
      <trkpt lat="43.38496" lon="5.48104">
        <ele>346.73</ele>
        <time>2021-02-28T09:02:11.000Z</time>
      </trkpt>
      <trkpt lat="43.38514" lon="5.48113">
        <ele>347.88</ele>
        <time>2021-02-28T09:02:20.000Z</time>
      </trkpt>
      <trkpt lat="43.38532" lon="5.4812">
        <ele>349.36</ele>
        <time>2021-02-28T09:02:29.000Z</time>
      </trkpt>
      <trkpt lat="43.38548" lon="5.48132">
        <ele>350.26</ele>
        <time>2021-02-28T09:02:37.000Z</time>
      </trkpt>
      <trkpt lat="43.38561" lon="5.48155">
        <ele>351.56</ele>
        <time>2021-02-28T09:02:45.000Z</time>
      </trkpt>
      <trkpt lat="43.38576" lon="5.48173">
        <ele>353.54</ele>
        <time>2021-02-28T09:02:55.000Z</time>
      </trkpt>
      <trkpt lat="43.38594" lon="5.48181">
        <ele>354.74</ele>
        <time>2021-02-28T09:03:05.000Z</time>
      </trkpt>
      <trkpt lat="43.38612" lon="5.48186">
        <ele>355.99</ele>
        <time>2021-02-28T09:03:16.000Z</time>
      </trkpt>
      <trkpt lat="43.3863" lon="5.48191">
        <ele>358.51</ele>
        <time>2021-02-28T09:03:27.000Z</time>
      </trkpt>
      <trkpt lat="43.38644" lon="5.48209">
        <ele>361.46</ele>
        <time>2021-02-28T09:03:41.000Z</time>
      </trkpt>
      <trkpt lat="43.38647" lon="5.48235">
        <ele>364.43</ele>
        <time>2021-02-28T09:03:54.000Z</time>
      </trkpt>
      <trkpt lat="43.38642" lon="5.48259">
        <ele>365.59</ele>
        <time>2021-02-28T09:04:06.000Z</time>
      </trkpt>
      <trkpt lat="43.38637" lon="5.48284">
        <ele>366.48</ele>
        <time>2021-02-28T09:04:18.000Z</time>
      </trkpt>
      <trkpt lat="43.38628" lon="5.48306">
        <ele>368.39</ele>
        <time>2021-02-28T09:04:28.000Z</time>
      </trkpt>
      <trkpt lat="43.38623" lon="5.4833">
        <ele>370.24</ele>
        <time>2021-02-28T09:04:39.000Z</time>
      </trkpt>
      <trkpt lat="43.38623" lon="5.48356">
        <ele>372.29</ele>
        <time>2021-02-28T09:04:51.000Z</time>
      </trkpt>
      <trkpt lat="43.38638" lon="5.48371">
        <ele>375.95</ele>
        <time>2021-02-28T09:05:09.000Z</time>
      </trkpt>
      <trkpt lat="43.38653" lon="5.48386">
        <ele>377.87</ele>
        <time>2021-02-28T09:05:23.000Z</time>
      </trkpt>
      <trkpt lat="43.3867" lon="5.48399">
        <ele>380.15</ele>
        <time>2021-02-28T09:05:36.000Z</time>
      </trkpt>
      <trkpt lat="43.38685" lon="5.48415">
        <ele>383.4</ele>
        <time>2021-02-28T09:05:52.000Z</time>
      </trkpt>
      <trkpt lat="43.38702" lon="5.48426">
        <ele>386.57</ele>
        <time>2021-02-28T09:06:06.000Z</time>
      </trkpt>
      <trkpt lat="43.3872" lon="5.48435">
        <ele>389.55</ele>
        <time>2021-02-28T09:06:19.000Z</time>
      </trkpt>
      <trkpt lat="43.38738" lon="5.48438">
        <ele>390.97</ele>
        <time>2021-02-28T09:11:54.000Z</time>
      </trkpt>
      <trkpt lat="43.3875" lon="5.48417">
        <ele>389.57</ele>
        <time>2021-02-28T09:12:02.000Z</time>
      </trkpt>
      <trkpt lat="43.38756" lon="5.48389">
        <ele>387.58</ele>
        <time>2021-02-28T09:12:06.000Z</time>
      </trkpt>
      <trkpt lat="43.38773" lon="5.48373">
        <ele>385.78</ele>
        <time>2021-02-28T09:12:11.000Z</time>
      </trkpt>
      <trkpt lat="43.38792" lon="5.48377">
        <ele>384.23</ele>
        <time>2021-02-28T09:12:15.000Z</time>
      </trkpt>
      <trkpt lat="43.38811" lon="5.48383">
        <ele>383.81</ele>
        <time>2021-02-28T09:12:19.000Z</time>
      </trkpt>
      <trkpt lat="43.38829" lon="5.48388">
        <ele>381.13</ele>
        <time>2021-02-28T09:12:24.000Z</time>
      </trkpt>
      <trkpt lat="43.38847" lon="5.48397">
        <ele>377.11</ele>
        <time>2021-02-28T09:12:30.000Z</time>
      </trkpt>
      <trkpt lat="43.38863" lon="5.48377">
        <ele>373.24</ele>
        <time>2021-02-28T09:12:37.000Z</time>
      </trkpt>
      <trkpt lat="43.38876" lon="5.4836">
        <ele>370.54</ele>
        <time>2021-02-28T09:12:42.000Z</time>
      </trkpt>
      <trkpt lat="43.38891" lon="5.48338">
        <ele>367.97</ele>
        <time>2021-02-28T09:12:47.000Z</time>
      </trkpt>
      <trkpt lat="43.38907" lon="5.48325">
        <ele>365.98</ele>
        <time>2021-02-28T09:12:51.000Z</time>
      </trkpt>
      <trkpt lat="43.38925" lon="5.48313">
        <ele>362.89</ele>
        <time>2021-02-28T09:12:57.000Z</time>
      </trkpt>
      <trkpt lat="43.38941" lon="5.48298">
        <ele>359.48</ele>
        <time>2021-02-28T09:13:04.000Z</time>
      </trkpt>
      <trkpt lat="43.38959" lon="5.48282">
        <ele>356.67</ele>
        <time>2021-02-28T09:13:10.000Z</time>
      </trkpt>
      <trkpt lat="43.38979" lon="5.48281">
        <ele>353.09</ele>
        <time>2021-02-28T09:13:16.000Z</time>
      </trkpt>
      <trkpt lat="43.38991" lon="5.483">
        <ele>351.54</ele>
        <time>2021-02-28T09:13:23.000Z</time>
      </trkpt>
      <trkpt lat="43.38982" lon="5.48322">
        <ele>351.75</ele>
        <time>2021-02-28T09:13:31.000Z</time>
      </trkpt>
      <trkpt lat="43.38975" lon="5.48348">
        <ele>353.44</ele>
        <time>2021-02-28T09:13:41.000Z</time>
      </trkpt>
      <trkpt lat="43.3897" lon="5.48373">
        <ele>353.4</ele>
        <time>2021-02-28T09:13:49.000Z</time>
      </trkpt>
      <trkpt lat="43.38969" lon="5.48399">
        <ele>353.8</ele>
        <time>2021-02-28T09:13:57.000Z</time>
      </trkpt>
      <trkpt lat="43.38981" lon="5.48423">
        <ele>351.9</ele>
        <time>2021-02-28T09:14:05.000Z</time>
      </trkpt>
      <trkpt lat="43.3899" lon="5.48445">
        <ele>349.48</ele>
        <time>2021-02-28T09:14:09.000Z</time>
      </trkpt>
      <trkpt lat="43.39001" lon="5.48465">
        <ele>346.66</ele>
        <time>2021-02-28T09:14:12.000Z</time>
      </trkpt>
      <trkpt lat="43.39012" lon="5.48488">
        <ele>343.53</ele>
        <time>2021-02-28T09:14:17.000Z</time>
      </trkpt>
      <trkpt lat="43.39028" lon="5.48509">
        <ele>341.39</ele>
        <time>2021-02-28T09:14:21.000Z</time>
      </trkpt>
      <trkpt lat="43.39041" lon="5.48529">
        <ele>339.47</ele>
        <time>2021-02-28T09:14:25.000Z</time>
      </trkpt>
      <trkpt lat="43.39019" lon="5.48525">
        <ele>336.17</ele>
        <time>2021-02-28T09:14:35.000Z</time>
      </trkpt>
      <trkpt lat="43.38997" lon="5.48515">
        <ele>333.75</ele>
        <time>2021-02-28T09:14:39.000Z</time>
      </trkpt>
      <trkpt lat="43.38977" lon="5.48502">
        <ele>332.6</ele>
        <time>2021-02-28T09:14:43.000Z</time>
      </trkpt>
      <trkpt lat="43.38957" lon="5.48513">
        <ele>331.62</ele>
        <time>2021-02-28T09:14:47.000Z</time>
      </trkpt>
      <trkpt lat="43.38939" lon="5.48524">
        <ele>331.01</ele>
        <time>2021-02-28T09:14:52.000Z</time>
      </trkpt>
      <trkpt lat="43.38922" lon="5.48541">
        <ele>329.77</ele>
        <time>2021-02-28T09:14:57.000Z</time>
      </trkpt>
      <trkpt lat="43.38903" lon="5.48535">
        <ele>329.07</ele>
        <time>2021-02-28T09:15:02.000Z</time>
      </trkpt>
      <trkpt lat="43.38883" lon="5.48533">
        <ele>328.65</ele>
        <time>2021-02-28T09:15:08.000Z</time>
      </trkpt>
      <trkpt lat="43.38865" lon="5.48541">
        <ele>328.59</ele>
        <time>2021-02-28T09:15:14.000Z</time>
      </trkpt>
      <trkpt lat="43.3885" lon="5.48554">
        <ele>327.78</ele>
        <time>2021-02-28T09:15:21.000Z</time>
      </trkpt>
      <trkpt lat="43.38835" lon="5.48569">
        <ele>327.91</ele>
        <time>2021-02-28T09:15:30.000Z</time>
      </trkpt>
      <trkpt lat="43.38829" lon="5.48594">
        <ele>327.42</ele>
        <time>2021-02-28T09:15:37.000Z</time>
      </trkpt>
      <trkpt lat="43.38827" lon="5.48619">
        <ele>327.2</ele>
        <time>2021-02-28T09:15:48.000Z</time>
      </trkpt>
      <trkpt lat="43.38823" lon="5.48645">
        <ele>326.8</ele>
        <time>2021-02-28T09:15:58.000Z</time>
      </trkpt>
      <trkpt lat="43.38818" lon="5.4867">
        <ele>326.53</ele>
        <time>2021-02-28T09:16:09.000Z</time>
      </trkpt>
      <trkpt lat="43.38816" lon="5.48696">
        <ele>325.79</ele>
        <time>2021-02-28T09:16:19.000Z</time>
      </trkpt>
      <trkpt lat="43.3881" lon="5.4872">
        <ele>325.3</ele>
        <time>2021-02-28T09:16:30.000Z</time>
      </trkpt>
      <trkpt lat="43.38804" lon="5.48746">
        <ele>325.35</ele>
        <time>2021-02-28T09:16:41.000Z</time>
      </trkpt>
      <trkpt lat="43.38796" lon="5.4877">
        <ele>325.06</ele>
        <time>2021-02-28T09:16:51.000Z</time>
      </trkpt>
      <trkpt lat="43.38786" lon="5.48793">
        <ele>324.95</ele>
        <time>2021-02-28T09:17:00.000Z</time>
      </trkpt>
      <trkpt lat="43.38771" lon="5.48809">
        <ele>324.75</ele>
        <time>2021-02-28T09:17:10.000Z</time>
      </trkpt>
      <trkpt lat="43.38756" lon="5.48824">
        <ele>324.86</ele>
        <time>2021-02-28T09:17:37.000Z</time>
      </trkpt>
      <trkpt lat="43.38739" lon="5.48837">
        <ele>324.34</ele>
        <time>2021-02-28T09:17:45.000Z</time>
      </trkpt>
      <trkpt lat="43.38729" lon="5.48859">
        <ele>319.83</ele>
        <time>2021-02-28T09:17:54.000Z</time>
      </trkpt>
      <trkpt lat="43.38729" lon="5.48884">
        <ele>316.89</ele>
        <time>2021-02-28T09:17:59.000Z</time>
      </trkpt>
      <trkpt lat="43.38714" lon="5.48899">
        <ele>318.12</ele>
        <time>2021-02-28T09:19:31.000Z</time>
      </trkpt>
      <trkpt lat="43.3871" lon="5.48924">
        <ele>320.06</ele>
        <time>2021-02-28T09:19:43.000Z</time>
      </trkpt>
      <trkpt lat="43.38694" lon="5.48939">
        <ele>323.23</ele>
        <time>2021-02-28T09:19:55.000Z</time>
      </trkpt>
      <trkpt lat="43.38683" lon="5.48958">
        <ele>325.22</ele>
        <time>2021-02-28T09:20:07.000Z</time>
      </trkpt>
      <trkpt lat="43.38666" lon="5.48974">
        <ele>327.54</ele>
        <time>2021-02-28T09:20:21.000Z</time>
      </trkpt>
      <trkpt lat="43.38647" lon="5.48979">
        <ele>329.31</ele>
        <time>2021-02-28T09:20:33.000Z</time>
      </trkpt>
      <trkpt lat="43.38633" lon="5.48997">
        <ele>331.11</ele>
        <time>2021-02-28T09:20:43.000Z</time>
      </trkpt>
      <trkpt lat="43.38641" lon="5.49019">
        <ele>332.9</ele>
        <time>2021-02-28T09:20:53.000Z</time>
      </trkpt>
      <trkpt lat="43.38658" lon="5.49029">
        <ele>335.8</ele>
        <time>2021-02-28T09:21:06.000Z</time>
      </trkpt>
      <trkpt lat="43.38678" lon="5.49035">
        <ele>337.55</ele>
        <time>2021-02-28T09:21:17.000Z</time>
      </trkpt>
      <trkpt lat="43.38696" lon="5.49041">
        <ele>339.08</ele>
        <time>2021-02-28T09:21:27.000Z</time>
      </trkpt>
      <trkpt lat="43.38709" lon="5.49059">
        <ele>340.55</ele>
        <time>2021-02-28T09:21:37.000Z</time>
      </trkpt>
      <trkpt lat="43.3872" lon="5.49081">
        <ele>342.3</ele>
        <time>2021-02-28T09:21:48.000Z</time>
      </trkpt>
      <trkpt lat="43.38732" lon="5.491">
        <ele>344.29</ele>
        <time>2021-02-28T09:21:59.000Z</time>
      </trkpt>
      <trkpt lat="43.38743" lon="5.49121">
        <ele>346.68</ele>
        <time>2021-02-28T09:22:11.000Z</time>
      </trkpt>
      <trkpt lat="43.38752" lon="5.49142">
        <ele>349.02</ele>
        <time>2021-02-28T09:22:23.000Z</time>
      </trkpt>
      <trkpt lat="43.3876" lon="5.49165">
        <ele>350.56</ele>
        <time>2021-02-28T09:22:34.000Z</time>
      </trkpt>
      <trkpt lat="43.38772" lon="5.49184">
        <ele>352.15</ele>
        <time>2021-02-28T09:22:46.000Z</time>
      </trkpt>
      <trkpt lat="43.38787" lon="5.49198">
        <ele>353.77</ele>
        <time>2021-02-28T09:22:56.000Z</time>
      </trkpt>
      <trkpt lat="43.38804" lon="5.49205">
        <ele>356.04</ele>
        <time>2021-02-28T09:23:07.000Z</time>
      </trkpt>
      <trkpt lat="43.38824" lon="5.49206">
        <ele>358.36</ele>
        <time>2021-02-28T09:23:20.000Z</time>
      </trkpt>
      <trkpt lat="43.38842" lon="5.49202">
        <ele>361.76</ele>
        <time>2021-02-28T09:23:38.000Z</time>
      </trkpt>
      <trkpt lat="43.3886" lon="5.49199">
        <ele>363.05</ele>
        <time>2021-02-28T09:23:50.000Z</time>
      </trkpt>
      <trkpt lat="43.38879" lon="5.49194">
        <ele>365.22</ele>
        <time>2021-02-28T09:24:01.000Z</time>
      </trkpt>
      <trkpt lat="43.38898" lon="5.49191">
        <ele>366.94</ele>
        <time>2021-02-28T09:24:12.000Z</time>
      </trkpt>
      <trkpt lat="43.38915" lon="5.49177">
        <ele>369.54</ele>
        <time>2021-02-28T09:24:25.000Z</time>
      </trkpt>
      <trkpt lat="43.38933" lon="5.4917">
        <ele>372.51</ele>
        <time>2021-02-28T09:24:36.000Z</time>
      </trkpt>
      <trkpt lat="43.38949" lon="5.49159">
        <ele>374.6</ele>
        <time>2021-02-28T09:24:49.000Z</time>
      </trkpt>
      <trkpt lat="43.38966" lon="5.49147">
        <ele>376.58</ele>
        <time>2021-02-28T09:25:02.000Z</time>
      </trkpt>
      <trkpt lat="43.38982" lon="5.49134">
        <ele>378.32</ele>
        <time>2021-02-28T09:25:13.000Z</time>
      </trkpt>
      <trkpt lat="43.38996" lon="5.49118">
        <ele>380.49</ele>
        <time>2021-02-28T09:25:25.000Z</time>
      </trkpt>
      <trkpt lat="43.39013" lon="5.49106">
        <ele>382.56</ele>
        <time>2021-02-28T09:25:37.000Z</time>
      </trkpt>
      <trkpt lat="43.39032" lon="5.49101">
        <ele>383.91</ele>
        <time>2021-02-28T09:25:49.000Z</time>
      </trkpt>
      <trkpt lat="43.39051" lon="5.49104">
        <ele>385.36</ele>
        <time>2021-02-28T09:25:59.000Z</time>
      </trkpt>
      <trkpt lat="43.39066" lon="5.4912">
        <ele>386.57</ele>
        <time>2021-02-28T09:26:09.000Z</time>
      </trkpt>
      <trkpt lat="43.39081" lon="5.49134">
        <ele>389.6</ele>
        <time>2021-02-28T09:26:21.000Z</time>
      </trkpt>
      <trkpt lat="43.39099" lon="5.49136">
        <ele>392.61</ele>
        <time>2021-02-28T09:26:35.000Z</time>
      </trkpt>
      <trkpt lat="43.39117" lon="5.49128">
        <ele>395.28</ele>
        <time>2021-02-28T09:26:47.000Z</time>
      </trkpt>
      <trkpt lat="43.39134" lon="5.49117">
        <ele>397.72</ele>
        <time>2021-02-28T09:26:59.000Z</time>
      </trkpt>
      <trkpt lat="43.39153" lon="5.49113">
        <ele>400.07</ele>
        <time>2021-02-28T09:27:10.000Z</time>
      </trkpt>
      <trkpt lat="43.39171" lon="5.49112">
        <ele>402.64</ele>
        <time>2021-02-28T09:27:21.000Z</time>
      </trkpt>
      <trkpt lat="43.3919" lon="5.49113">
        <ele>405.85</ele>
        <time>2021-02-28T09:27:34.000Z</time>
      </trkpt>
      <trkpt lat="43.39205" lon="5.49128">
        <ele>408.34</ele>
        <time>2021-02-28T09:27:47.000Z</time>
      </trkpt>
      <trkpt lat="43.39217" lon="5.49147">
        <ele>410.68</ele>
        <time>2021-02-28T09:28:03.000Z</time>
      </trkpt>
      <trkpt lat="43.39236" lon="5.49146">
        <ele>413.2</ele>
        <time>2021-02-28T09:28:18.000Z</time>
      </trkpt>
      <trkpt lat="43.3925" lon="5.4913">
        <ele>415.49</ele>
        <time>2021-02-28T09:28:30.000Z</time>
      </trkpt>
      <trkpt lat="43.39263" lon="5.49112">
        <ele>417.83</ele>
        <time>2021-02-28T09:28:46.000Z</time>
      </trkpt>
      <trkpt lat="43.39277" lon="5.49096">
        <ele>419.5</ele>
        <time>2021-02-28T09:29:00.000Z</time>
      </trkpt>
      <trkpt lat="43.39292" lon="5.4908">
        <ele>421.69</ele>
        <time>2021-02-28T09:29:15.000Z</time>
      </trkpt>
      <trkpt lat="43.3931" lon="5.49081">
        <ele>424.18</ele>
        <time>2021-02-28T09:29:31.000Z</time>
      </trkpt>
      <trkpt lat="43.39328" lon="5.49089">
        <ele>425.88</ele>
        <time>2021-02-28T09:29:43.000Z</time>
      </trkpt>
      <trkpt lat="43.39344" lon="5.49105">
        <ele>427.86</ele>
        <time>2021-02-28T09:29:56.000Z</time>
      </trkpt>
      <trkpt lat="43.39362" lon="5.49106">
        <ele>430.7</ele>
        <time>2021-02-28T09:30:10.000Z</time>
      </trkpt>
      <trkpt lat="43.39379" lon="5.49113">
        <ele>432.58</ele>
        <time>2021-02-28T09:30:21.000Z</time>
      </trkpt>
      <trkpt lat="43.39398" lon="5.49117">
        <ele>434.33</ele>
        <time>2021-02-28T09:30:33.000Z</time>
      </trkpt>
      <trkpt lat="43.39416" lon="5.49125">
        <ele>435.2</ele>
        <time>2021-02-28T09:30:44.000Z</time>
      </trkpt>
      <trkpt lat="43.39431" lon="5.49143">
        <ele>435.31</ele>
        <time>2021-02-28T09:30:52.000Z</time>
      </trkpt>
      <trkpt lat="43.3944" lon="5.49166">
        <ele>435.67</ele>
        <time>2021-02-28T09:31:01.000Z</time>
      </trkpt>
      <trkpt lat="43.39449" lon="5.49188">
        <ele>436.68</ele>
        <time>2021-02-28T09:31:10.000Z</time>
      </trkpt>
      <trkpt lat="43.39462" lon="5.49205">
        <ele>437.74</ele>
        <time>2021-02-28T09:31:21.000Z</time>
      </trkpt>
      <trkpt lat="43.3948" lon="5.4921">
        <ele>439.77</ele>
        <time>2021-02-28T09:31:33.000Z</time>
      </trkpt>
      <trkpt lat="43.39499" lon="5.49204">
        <ele>441.88</ele>
        <time>2021-02-28T09:31:46.000Z</time>
      </trkpt>
      <trkpt lat="43.39516" lon="5.49197">
        <ele>443.21</ele>
        <time>2021-02-28T09:31:58.000Z</time>
      </trkpt>
      <trkpt lat="43.39535" lon="5.49205">
        <ele>444.59</ele>
        <time>2021-02-28T09:32:11.000Z</time>
      </trkpt>
      <trkpt lat="43.39554" lon="5.49202">
        <ele>445.32</ele>
        <time>2021-02-28T09:32:21.000Z</time>
      </trkpt>
      <trkpt lat="43.39573" lon="5.49195">
        <ele>446.85</ele>
        <time>2021-02-28T09:32:32.000Z</time>
      </trkpt>
      <trkpt lat="43.39591" lon="5.4919">
        <ele>446.41</ele>
        <time>2021-02-28T09:32:39.000Z</time>
      </trkpt>
      <trkpt lat="43.39609" lon="5.4919">
        <ele>446.16</ele>
        <time>2021-02-28T09:32:45.000Z</time>
      </trkpt>
      <trkpt lat="43.39626" lon="5.49197">
        <ele>447.08</ele>
        <time>2021-02-28T09:32:53.000Z</time>
      </trkpt>
      <trkpt lat="43.39646" lon="5.49205">
        <ele>447.45</ele>
        <time>2021-02-28T09:33:01.000Z</time>
      </trkpt>
      <trkpt lat="43.39658" lon="5.49223">
        <ele>447.45</ele>
        <time>2021-02-28T09:33:08.000Z</time>
      </trkpt>
      <trkpt lat="43.3967" lon="5.49244">
        <ele>447.81</ele>
        <time>2021-02-28T09:33:16.000Z</time>
      </trkpt>
      <trkpt lat="43.39683" lon="5.49262">
        <ele>448.49</ele>
        <time>2021-02-28T09:33:24.000Z</time>
      </trkpt>
      <trkpt lat="43.39696" lon="5.49282">
        <ele>450.35</ele>
        <time>2021-02-28T09:33:35.000Z</time>
      </trkpt>
      <trkpt lat="43.39715" lon="5.49292">
        <ele>451.85</ele>
        <time>2021-02-28T09:33:43.000Z</time>
      </trkpt>
      <trkpt lat="43.39734" lon="5.49292">
        <ele>452.94</ele>
        <time>2021-02-28T09:33:51.000Z</time>
      </trkpt>
      <trkpt lat="43.39752" lon="5.49285">
        <ele>453.09</ele>
        <time>2021-02-28T09:33:58.000Z</time>
      </trkpt>
      <trkpt lat="43.39769" lon="5.49275">
        <ele>452.83</ele>
        <time>2021-02-28T09:34:05.000Z</time>
      </trkpt>
      <trkpt lat="43.3978" lon="5.49251">
        <ele>452.59</ele>
        <time>2021-02-28T09:34:10.000Z</time>
      </trkpt>
      <trkpt lat="43.39794" lon="5.49227">
        <ele>452.33</ele>
        <time>2021-02-28T09:34:15.000Z</time>
      </trkpt>
      <trkpt lat="43.39814" lon="5.49221">
        <ele>452.78</ele>
        <time>2021-02-28T09:34:21.000Z</time>
      </trkpt>
      <trkpt lat="43.3983" lon="5.49233">
        <ele>454.32</ele>
        <time>2021-02-28T09:34:28.000Z</time>
      </trkpt>
      <trkpt lat="43.39843" lon="5.49214">
        <ele>456.28</ele>
        <time>2021-02-28T09:34:36.000Z</time>
      </trkpt>
      <trkpt lat="43.39857" lon="5.49198">
        <ele>458.82</ele>
        <time>2021-02-28T09:34:46.000Z</time>
      </trkpt>
      <trkpt lat="43.39871" lon="5.49183">
        <ele>460.98</ele>
        <time>2021-02-28T09:34:59.000Z</time>
      </trkpt>
      <trkpt lat="43.39879" lon="5.4916">
        <ele>463.14</ele>
        <time>2021-02-28T09:35:11.000Z</time>
      </trkpt>
      <trkpt lat="43.39898" lon="5.49166">
        <ele>465.25</ele>
        <time>2021-02-28T09:35:24.000Z</time>
      </trkpt>
      <trkpt lat="43.39914" lon="5.49179">
        <ele>466.62</ele>
        <time>2021-02-28T09:35:36.000Z</time>
      </trkpt>
      <trkpt lat="43.39931" lon="5.49189">
        <ele>467.18</ele>
        <time>2021-02-28T09:35:48.000Z</time>
      </trkpt>
      <trkpt lat="43.39949" lon="5.492">
        <ele>467.34</ele>
        <time>2021-02-28T09:35:57.000Z</time>
      </trkpt>
      <trkpt lat="43.39961" lon="5.49179">
        <ele>467.34</ele>
        <time>2021-02-28T09:36:07.000Z</time>
      </trkpt>
      <trkpt lat="43.3997" lon="5.49157">
        <ele>468.97</ele>
        <time>2021-02-28T09:36:18.000Z</time>
      </trkpt>
      <trkpt lat="43.39984" lon="5.49138">
        <ele>471.27</ele>
        <time>2021-02-28T09:36:30.000Z</time>
      </trkpt>
      <trkpt lat="43.40003" lon="5.4914">
        <ele>473.94</ele>
        <time>2021-02-28T09:36:44.000Z</time>
      </trkpt>
      <trkpt lat="43.40021" lon="5.49147">
        <ele>476.46</ele>
        <time>2021-02-28T09:36:57.000Z</time>
      </trkpt>
      <trkpt lat="43.40035" lon="5.49164">
        <ele>478.75</ele>
        <time>2021-02-28T09:37:09.000Z</time>
      </trkpt>
      <trkpt lat="43.40048" lon="5.49183">
        <ele>481.11</ele>
        <time>2021-02-28T09:37:23.000Z</time>
      </trkpt>
      <trkpt lat="43.40062" lon="5.49199">
        <ele>483.36</ele>
        <time>2021-02-28T09:37:37.000Z</time>
      </trkpt>
      <trkpt lat="43.40079" lon="5.49212">
        <ele>485.62</ele>
        <time>2021-02-28T09:37:49.000Z</time>
      </trkpt>
      <trkpt lat="43.40097" lon="5.49215">
        <ele>487.49</ele>
        <time>2021-02-28T09:38:01.000Z</time>
      </trkpt>
      <trkpt lat="43.40108" lon="5.49193">
        <ele>488.69</ele>
        <time>2021-02-28T09:38:14.000Z</time>
      </trkpt>
      <trkpt lat="43.40122" lon="5.49174">
        <ele>489.11</ele>
        <time>2021-02-28T09:38:24.000Z</time>
      </trkpt>
      <trkpt lat="43.40142" lon="5.49169">
        <ele>490.22</ele>
        <time>2021-02-28T09:38:34.000Z</time>
      </trkpt>
      <trkpt lat="43.40158" lon="5.4918">
        <ele>490.3</ele>
        <time>2021-02-28T09:43:01.000Z</time>
      </trkpt>
      <trkpt lat="43.40175" lon="5.49171">
        <ele>490.04</ele>
        <time>2021-02-28T09:44:01.000Z</time>
      </trkpt>
      <trkpt lat="43.40197" lon="5.49168">
        <ele>489.68</ele>
        <time>2021-02-28T09:44:08.000Z</time>
      </trkpt>
      <trkpt lat="43.40214" lon="5.49161">
        <ele>488.89</ele>
        <time>2021-02-28T09:44:13.000Z</time>
      </trkpt>
      <trkpt lat="43.40232" lon="5.49147">
        <ele>487.8</ele>
        <time>2021-02-28T09:44:17.000Z</time>
      </trkpt>
      <trkpt lat="43.40232" lon="5.4912">
        <ele>487.96</ele>
        <time>2021-02-28T09:44:23.000Z</time>
      </trkpt>
      <trkpt lat="43.40218" lon="5.49104">
        <ele>488.86</ele>
        <time>2021-02-28T09:44:30.000Z</time>
      </trkpt>
      <trkpt lat="43.40204" lon="5.49087">
        <ele>489.52</ele>
        <time>2021-02-28T09:44:37.000Z</time>
      </trkpt>
      <trkpt lat="43.40194" lon="5.49065">
        <ele>490.28</ele>
        <time>2021-02-28T09:44:44.000Z</time>
      </trkpt>
      <trkpt lat="43.40186" lon="5.49041">
        <ele>490.84</ele>
        <time>2021-02-28T09:44:51.000Z</time>
      </trkpt>
      <trkpt lat="43.40165" lon="5.49032">
        <ele>491.19</ele>
        <time>2021-02-28T09:44:57.000Z</time>
      </trkpt>
      <trkpt lat="43.40145" lon="5.49026">
        <ele>491.55</ele>
        <time>2021-02-28T09:45:03.000Z</time>
      </trkpt>
      <trkpt lat="43.40125" lon="5.49018">
        <ele>491.92</ele>
        <time>2021-02-28T09:45:09.000Z</time>
      </trkpt>
      <trkpt lat="43.40106" lon="5.49005">
        <ele>491.62</ele>
        <time>2021-02-28T09:45:15.000Z</time>
      </trkpt>
      <trkpt lat="43.40097" lon="5.48982">
        <ele>491.7</ele>
        <time>2021-02-28T09:45:20.000Z</time>
      </trkpt>
      <trkpt lat="43.40094" lon="5.48956">
        <ele>492.86</ele>
        <time>2021-02-28T09:45:26.000Z</time>
      </trkpt>
      <trkpt lat="43.40088" lon="5.48932">
        <ele>494.86</ele>
        <time>2021-02-28T09:45:36.000Z</time>
      </trkpt>
      <trkpt lat="43.40071" lon="5.4892">
        <ele>495.62</ele>
        <time>2021-02-28T09:45:44.000Z</time>
      </trkpt>
      <trkpt lat="43.40053" lon="5.48914">
        <ele>496.88</ele>
        <time>2021-02-28T09:45:53.000Z</time>
      </trkpt>
      <trkpt lat="43.40034" lon="5.4891">
        <ele>498.88</ele>
        <time>2021-02-28T09:46:03.000Z</time>
      </trkpt>
      <trkpt lat="43.40015" lon="5.48911">
        <ele>501.15</ele>
        <time>2021-02-28T09:46:14.000Z</time>
      </trkpt>
      <trkpt lat="43.4" lon="5.48896">
        <ele>503.56</ele>
        <time>2021-02-28T09:46:27.000Z</time>
      </trkpt>
      <trkpt lat="43.39982" lon="5.48883">
        <ele>505.05</ele>
        <time>2021-02-28T09:46:39.000Z</time>
      </trkpt>
      <trkpt lat="43.39966" lon="5.48874">
        <ele>506.77</ele>
        <time>2021-02-28T09:46:51.000Z</time>
      </trkpt>
      <trkpt lat="43.39957" lon="5.48851">
        <ele>508.67</ele>
        <time>2021-02-28T09:47:03.000Z</time>
      </trkpt>
      <trkpt lat="43.3995" lon="5.48828">
        <ele>510.78</ele>
        <time>2021-02-28T09:47:16.000Z</time>
      </trkpt>
      <trkpt lat="43.39937" lon="5.4881">
        <ele>512.72</ele>
        <time>2021-02-28T09:47:29.000Z</time>
      </trkpt>
      <trkpt lat="43.39928" lon="5.48787">
        <ele>514.51</ele>
        <time>2021-02-28T09:47:41.000Z</time>
      </trkpt>
      <trkpt lat="43.39947" lon="5.48787">
        <ele>518.25</ele>
        <time>2021-02-28T09:48:00.000Z</time>
      </trkpt>
      <trkpt lat="43.39963" lon="5.48798">
        <ele>521.15</ele>
        <time>2021-02-28T09:48:12.000Z</time>
      </trkpt>
      <trkpt lat="43.3998" lon="5.4881">
        <ele>524.06</ele>
        <time>2021-02-28T09:48:25.000Z</time>
      </trkpt>
      <trkpt lat="43.39997" lon="5.48818">
        <ele>526.74</ele>
        <time>2021-02-28T09:48:38.000Z</time>
      </trkpt>
      <trkpt lat="43.40015" lon="5.48829">
        <ele>528.98</ele>
        <time>2021-02-28T09:48:52.000Z</time>
      </trkpt>
      <trkpt lat="43.40033" lon="5.48839">
        <ele>531.61</ele>
        <time>2021-02-28T09:49:06.000Z</time>
      </trkpt>
      <trkpt lat="43.40051" lon="5.48845">
        <ele>533.79</ele>
        <time>2021-02-28T09:49:21.000Z</time>
      </trkpt>
      <trkpt lat="43.40068" lon="5.48851">
        <ele>536.11</ele>
        <time>2021-02-28T09:49:36.000Z</time>
      </trkpt>
      <trkpt lat="43.40086" lon="5.48855">
        <ele>538.24</ele>
        <time>2021-02-28T09:49:52.000Z</time>
      </trkpt>
      <trkpt lat="43.40104" lon="5.48855">
        <ele>540.6</ele>
        <time>2021-02-28T09:50:10.000Z</time>
      </trkpt>
      <trkpt lat="43.40122" lon="5.48851">
        <ele>543.62</ele>
        <time>2021-02-28T09:50:31.000Z</time>
      </trkpt>
      <trkpt lat="43.40137" lon="5.48866">
        <ele>546.48</ele>
        <time>2021-02-28T09:50:47.000Z</time>
      </trkpt>
      <trkpt lat="43.40153" lon="5.48879">
        <ele>550.1</ele>
        <time>2021-02-28T09:51:02.000Z</time>
      </trkpt>
      <trkpt lat="43.40171" lon="5.48884">
        <ele>553.22</ele>
        <time>2021-02-28T09:51:17.000Z</time>
      </trkpt>
      <trkpt lat="43.40188" lon="5.48894">
        <ele>555.81</ele>
        <time>2021-02-28T09:51:31.000Z</time>
      </trkpt>
      <trkpt lat="43.40194" lon="5.48919">
        <ele>557.15</ele>
        <time>2021-02-28T09:51:43.000Z</time>
      </trkpt>
      <trkpt lat="43.40196" lon="5.48945">
        <ele>558.56</ele>
        <time>2021-02-28T09:51:56.000Z</time>
      </trkpt>
      <trkpt lat="43.40214" lon="5.48949">
        <ele>559.47</ele>
        <time>2021-02-28T10:00:48.000Z</time>
      </trkpt>
      <trkpt lat="43.40233" lon="5.48943">
        <ele>561.72</ele>
        <time>2021-02-28T10:01:00.000Z</time>
      </trkpt>
      <trkpt lat="43.40251" lon="5.48947">
        <ele>563.98</ele>
        <time>2021-02-28T10:01:12.000Z</time>
      </trkpt>
      <trkpt lat="43.40268" lon="5.48955">
        <ele>566.2</ele>
        <time>2021-02-28T10:01:24.000Z</time>
      </trkpt>
      <trkpt lat="43.40287" lon="5.48963">
        <ele>568.92</ele>
        <time>2021-02-28T10:01:37.000Z</time>
      </trkpt>
      <trkpt lat="43.40304" lon="5.48973">
        <ele>570.54</ele>
        <time>2021-02-28T10:01:49.000Z</time>
      </trkpt>
      <trkpt lat="43.40318" lon="5.48992">
        <ele>574.34</ele>
        <time>2021-02-28T10:02:01.000Z</time>
      </trkpt>
      <trkpt lat="43.40326" lon="5.48969">
        <ele>576.89</ele>
        <time>2021-02-28T10:02:14.000Z</time>
      </trkpt>
      <trkpt lat="43.40312" lon="5.48955">
        <ele>577.72</ele>
        <time>2021-02-28T10:02:22.000Z</time>
      </trkpt>
      <trkpt lat="43.40295" lon="5.48943">
        <ele>578.24</ele>
        <time>2021-02-28T10:02:31.000Z</time>
      </trkpt>
      <trkpt lat="43.40281" lon="5.48926">
        <ele>580.53</ele>
        <time>2021-02-28T10:02:43.000Z</time>
      </trkpt>
      <trkpt lat="43.40269" lon="5.48907">
        <ele>582.73</ele>
        <time>2021-02-28T10:02:55.000Z</time>
      </trkpt>
      <trkpt lat="43.40285" lon="5.48896">
        <ele>584.51</ele>
        <time>2021-02-28T10:03:05.000Z</time>
      </trkpt>
      <trkpt lat="43.40305" lon="5.48896">
        <ele>585.13</ele>
        <time>2021-02-28T10:03:14.000Z</time>
      </trkpt>
      <trkpt lat="43.40322" lon="5.48884">
        <ele>585.59</ele>
        <time>2021-02-28T10:03:21.000Z</time>
      </trkpt>
      <trkpt lat="43.40343" lon="5.48888">
        <ele>586.15</ele>
        <time>2021-02-28T10:03:28.000Z</time>
      </trkpt>
      <trkpt lat="43.40361" lon="5.48891">
        <ele>586.08</ele>
        <time>2021-02-28T10:03:34.000Z</time>
      </trkpt>
      <trkpt lat="43.40378" lon="5.48876">
        <ele>586.68</ele>
        <time>2021-02-28T10:03:41.000Z</time>
      </trkpt>
      <trkpt lat="43.4039" lon="5.48855">
        <ele>587.43</ele>
        <time>2021-02-28T10:03:47.000Z</time>
      </trkpt>
      <trkpt lat="43.40408" lon="5.4886">
        <ele>588.35</ele>
        <time>2021-02-28T10:03:54.000Z</time>
      </trkpt>
      <trkpt lat="43.40428" lon="5.48859">
        <ele>588.47</ele>
        <time>2021-02-28T10:04:00.000Z</time>
      </trkpt>
      <trkpt lat="43.40442" lon="5.48842">
        <ele>589.27</ele>
        <time>2021-02-28T10:04:06.000Z</time>
      </trkpt>
      <trkpt lat="43.4045" lon="5.4882">
        <ele>590.74</ele>
        <time>2021-02-28T10:04:16.000Z</time>
      </trkpt>
      <trkpt lat="43.40456" lon="5.48796">
        <ele>591.68</ele>
        <time>2021-02-28T10:04:26.000Z</time>
      </trkpt>
      <trkpt lat="43.40469" lon="5.48774">
        <ele>593.05</ele>
        <time>2021-02-28T10:04:36.000Z</time>
      </trkpt>
      <trkpt lat="43.40477" lon="5.48751">
        <ele>594.58</ele>
        <time>2021-02-28T10:04:44.000Z</time>
      </trkpt>
      <trkpt lat="43.40487" lon="5.48729">
        <ele>595.49</ele>
        <time>2021-02-28T10:04:53.000Z</time>
      </trkpt>
      <trkpt lat="43.40488" lon="5.48703">
        <ele>596.87</ele>
        <time>2021-02-28T10:05:02.000Z</time>
      </trkpt>
      <trkpt lat="43.40505" lon="5.48689">
        <ele>595.87</ele>
        <time>2021-02-28T10:05:08.000Z</time>
      </trkpt>
      <trkpt lat="43.40523" lon="5.48695">
        <ele>594.88</ele>
        <time>2021-02-28T10:05:12.000Z</time>
      </trkpt>
      <trkpt lat="43.4053" lon="5.48724">
        <ele>594.38</ele>
        <time>2021-02-28T10:05:16.000Z</time>
      </trkpt>
      <trkpt lat="43.40537" lon="5.48748">
        <ele>593.35</ele>
        <time>2021-02-28T10:05:19.000Z</time>
      </trkpt>
      <trkpt lat="43.40547" lon="5.48772">
        <ele>592.76</ele>
        <time>2021-02-28T10:05:22.000Z</time>
      </trkpt>
      <trkpt lat="43.40555" lon="5.48794">
        <ele>592.18</ele>
        <time>2021-02-28T10:05:25.000Z</time>
      </trkpt>
      <trkpt lat="43.40574" lon="5.48807">
        <ele>591.65</ele>
        <time>2021-02-28T10:05:29.000Z</time>
      </trkpt>
      <trkpt lat="43.40591" lon="5.48795">
        <ele>590.31</ele>
        <time>2021-02-28T10:05:32.000Z</time>
      </trkpt>
      <trkpt lat="43.40599" lon="5.48766">
        <ele>589.06</ele>
        <time>2021-02-28T10:05:35.000Z</time>
      </trkpt>
      <trkpt lat="43.40618" lon="5.48746">
        <ele>587.24</ele>
        <time>2021-02-28T10:05:39.000Z</time>
      </trkpt>
      <trkpt lat="43.4064" lon="5.48737">
        <ele>583.87</ele>
        <time>2021-02-28T10:05:42.000Z</time>
      </trkpt>
      <trkpt lat="43.40643" lon="5.4871">
        <ele>581.65</ele>
        <time>2021-02-28T10:05:46.000Z</time>
      </trkpt>
      <trkpt lat="43.40627" lon="5.48687">
        <ele>579.11</ele>
        <time>2021-02-28T10:05:49.000Z</time>
      </trkpt>
      <trkpt lat="43.40632" lon="5.48659">
        <ele>577.66</ele>
        <time>2021-02-28T10:05:52.000Z</time>
      </trkpt>
      <trkpt lat="43.40642" lon="5.48636">
        <ele>576.78</ele>
        <time>2021-02-28T10:05:55.000Z</time>
      </trkpt>
      <trkpt lat="43.40659" lon="5.48655">
        <ele>576.14</ele>
        <time>2021-02-28T10:05:59.000Z</time>
      </trkpt>
      <trkpt lat="43.40663" lon="5.48685">
        <ele>575.76</ele>
        <time>2021-02-28T10:06:03.000Z</time>
      </trkpt>
      <trkpt lat="43.40673" lon="5.48712">
        <ele>575.34</ele>
        <time>2021-02-28T10:06:07.000Z</time>
      </trkpt>
      <trkpt lat="43.40691" lon="5.48707">
        <ele>575.4</ele>
        <time>2021-02-28T10:06:11.000Z</time>
      </trkpt>
      <trkpt lat="43.40704" lon="5.48683">
        <ele>575.9</ele>
        <time>2021-02-28T10:06:16.000Z</time>
      </trkpt>
      <trkpt lat="43.40715" lon="5.48664">
        <ele>576.43</ele>
        <time>2021-02-28T10:06:21.000Z</time>
      </trkpt>
      <trkpt lat="43.40723" lon="5.4864">
        <ele>576.79</ele>
        <time>2021-02-28T10:06:26.000Z</time>
      </trkpt>
      <trkpt lat="43.40736" lon="5.48619">
        <ele>577.11</ele>
        <time>2021-02-28T10:06:31.000Z</time>
      </trkpt>
      <trkpt lat="43.40745" lon="5.48593">
        <ele>577.09</ele>
        <time>2021-02-28T10:06:36.000Z</time>
      </trkpt>
      <trkpt lat="43.40749" lon="5.48565">
        <ele>577.4</ele>
        <time>2021-02-28T10:06:41.000Z</time>
      </trkpt>
      <trkpt lat="43.40754" lon="5.48538">
        <ele>577.74</ele>
        <time>2021-02-28T10:06:46.000Z</time>
      </trkpt>
      <trkpt lat="43.4076" lon="5.48509">
        <ele>578.47</ele>
        <time>2021-02-28T10:06:51.000Z</time>
      </trkpt>
      <trkpt lat="43.4077" lon="5.48488">
        <ele>579.47</ele>
        <time>2021-02-28T10:06:56.000Z</time>
      </trkpt>
      <trkpt lat="43.40781" lon="5.48464">
        <ele>580.84</ele>
        <time>2021-02-28T10:07:03.000Z</time>
      </trkpt>
      <trkpt lat="43.40789" lon="5.4844">
        <ele>582.22</ele>
        <time>2021-02-28T10:07:10.000Z</time>
      </trkpt>
      <trkpt lat="43.40802" lon="5.48421">
        <ele>583.39</ele>
        <time>2021-02-28T10:07:17.000Z</time>
      </trkpt>
      <trkpt lat="43.40815" lon="5.48401">
        <ele>585.3</ele>
        <time>2021-02-28T10:07:25.000Z</time>
      </trkpt>
      <trkpt lat="43.40824" lon="5.48377">
        <ele>587.58</ele>
        <time>2021-02-28T10:07:34.000Z</time>
      </trkpt>
      <trkpt lat="43.40831" lon="5.48354">
        <ele>589.53</ele>
        <time>2021-02-28T10:07:49.000Z</time>
      </trkpt>
      <trkpt lat="43.40815" lon="5.48341">
        <ele>589.72</ele>
        <time>2021-02-28T10:10:18.000Z</time>
      </trkpt>
      <trkpt lat="43.40809" lon="5.48315">
        <ele>588.86</ele>
        <time>2021-02-28T10:10:24.000Z</time>
      </trkpt>
      <trkpt lat="43.40805" lon="5.4829">
        <ele>588.51</ele>
        <time>2021-02-28T10:10:28.000Z</time>
      </trkpt>
      <trkpt lat="43.40798" lon="5.48264">
        <ele>588.08</ele>
        <time>2021-02-28T10:10:32.000Z</time>
      </trkpt>
      <trkpt lat="43.40793" lon="5.48232">
        <ele>587.25</ele>
        <time>2021-02-28T10:10:36.000Z</time>
      </trkpt>
      <trkpt lat="43.40792" lon="5.48205">
        <ele>586.69</ele>
        <time>2021-02-28T10:10:39.000Z</time>
      </trkpt>
      <trkpt lat="43.40793" lon="5.48177">
        <ele>586.08</ele>
        <time>2021-02-28T10:10:42.000Z</time>
      </trkpt>
      <trkpt lat="43.40794" lon="5.48148">
        <ele>585.9</ele>
        <time>2021-02-28T10:10:45.000Z</time>
      </trkpt>
      <trkpt lat="43.40794" lon="5.48119">
        <ele>585.6</ele>
        <time>2021-02-28T10:10:48.000Z</time>
      </trkpt>
      <trkpt lat="43.40795" lon="5.48092">
        <ele>585.42</ele>
        <time>2021-02-28T10:10:51.000Z</time>
      </trkpt>
      <trkpt lat="43.40795" lon="5.48066">
        <ele>585.18</ele>
        <time>2021-02-28T10:10:54.000Z</time>
      </trkpt>
      <trkpt lat="43.40791" lon="5.4804">
        <ele>585.54</ele>
        <time>2021-02-28T10:10:57.000Z</time>
      </trkpt>
      <trkpt lat="43.40787" lon="5.48015">
        <ele>585.69</ele>
        <time>2021-02-28T10:11:00.000Z</time>
      </trkpt>
      <trkpt lat="43.4078" lon="5.47984">
        <ele>585.02</ele>
        <time>2021-02-28T10:11:04.000Z</time>
      </trkpt>
      <trkpt lat="43.40772" lon="5.47961">
        <ele>584.97</ele>
        <time>2021-02-28T10:11:07.000Z</time>
      </trkpt>
      <trkpt lat="43.40765" lon="5.47937">
        <ele>584.6</ele>
        <time>2021-02-28T10:11:10.000Z</time>
      </trkpt>
      <trkpt lat="43.40758" lon="5.47912">
        <ele>584.26</ele>
        <time>2021-02-28T10:11:13.000Z</time>
      </trkpt>
      <trkpt lat="43.40751" lon="5.47887">
        <ele>584.51</ele>
        <time>2021-02-28T10:11:16.000Z</time>
      </trkpt>
      <trkpt lat="43.40746" lon="5.47862">
        <ele>584.1</ele>
        <time>2021-02-28T10:11:19.000Z</time>
      </trkpt>
      <trkpt lat="43.40737" lon="5.47834">
        <ele>583.88</ele>
        <time>2021-02-28T10:11:23.000Z</time>
      </trkpt>
      <trkpt lat="43.40728" lon="5.4781">
        <ele>584.93</ele>
        <time>2021-02-28T10:11:27.000Z</time>
      </trkpt>
      <trkpt lat="43.40716" lon="5.47788">
        <ele>587.08</ele>
        <time>2021-02-28T10:11:34.000Z</time>
      </trkpt>
      <trkpt lat="43.40701" lon="5.47768">
        <ele>588.65</ele>
        <time>2021-02-28T10:11:42.000Z</time>
      </trkpt>
      <trkpt lat="43.40687" lon="5.47751">
        <ele>590.87</ele>
        <time>2021-02-28T10:11:51.000Z</time>
      </trkpt>
      <trkpt lat="43.40674" lon="5.47732">
        <ele>593.32</ele>
        <time>2021-02-28T10:12:01.000Z</time>
      </trkpt>
      <trkpt lat="43.40657" lon="5.47717">
        <ele>595.45</ele>
        <time>2021-02-28T10:12:10.000Z</time>
      </trkpt>
      <trkpt lat="43.40642" lon="5.47702">
        <ele>597.11</ele>
        <time>2021-02-28T10:12:19.000Z</time>
      </trkpt>
      <trkpt lat="43.40627" lon="5.47687">
        <ele>598.13</ele>
        <time>2021-02-28T10:12:28.000Z</time>
      </trkpt>
      <trkpt lat="43.40615" lon="5.47668">
        <ele>598.68</ele>
        <time>2021-02-28T10:12:36.000Z</time>
      </trkpt>
      <trkpt lat="43.40605" lon="5.47647">
        <ele>599.59</ele>
        <time>2021-02-28T10:12:44.000Z</time>
      </trkpt>
      <trkpt lat="43.40592" lon="5.47626">
        <ele>601.09</ele>
        <time>2021-02-28T10:12:53.000Z</time>
      </trkpt>
      <trkpt lat="43.40581" lon="5.47604">
        <ele>602.28</ele>
        <time>2021-02-28T10:13:01.000Z</time>
      </trkpt>
      <trkpt lat="43.4057" lon="5.47584">
        <ele>603.5</ele>
        <time>2021-02-28T10:13:09.000Z</time>
      </trkpt>
      <trkpt lat="43.40551" lon="5.47574">
        <ele>605.01</ele>
        <time>2021-02-28T10:13:18.000Z</time>
      </trkpt>
      <trkpt lat="43.40532" lon="5.47569">
        <ele>606.72</ele>
        <time>2021-02-28T10:13:28.000Z</time>
      </trkpt>
      <trkpt lat="43.40517" lon="5.47553">
        <ele>609.23</ele>
        <time>2021-02-28T10:13:38.000Z</time>
      </trkpt>
      <trkpt lat="43.40507" lon="5.47531">
        <ele>610.42</ele>
        <time>2021-02-28T10:13:49.000Z</time>
      </trkpt>
      <trkpt lat="43.40502" lon="5.47506">
        <ele>610.94</ele>
        <time>2021-02-28T10:13:57.000Z</time>
      </trkpt>
      <trkpt lat="43.40493" lon="5.47482">
        <ele>611.81</ele>
        <time>2021-02-28T10:14:06.000Z</time>
      </trkpt>
      <trkpt lat="43.40498" lon="5.47456">
        <ele>612.71</ele>
        <time>2021-02-28T10:14:14.000Z</time>
      </trkpt>
      <trkpt lat="43.40497" lon="5.47431">
        <ele>614.11</ele>
        <time>2021-02-28T10:14:23.000Z</time>
      </trkpt>
      <trkpt lat="43.40483" lon="5.47417">
        <ele>615.64</ele>
        <time>2021-02-28T10:14:31.000Z</time>
      </trkpt>
      <trkpt lat="43.40472" lon="5.47397">
        <ele>615.97</ele>
        <time>2021-02-28T10:14:39.000Z</time>
      </trkpt>
      <trkpt lat="43.40469" lon="5.47371">
        <ele>615.67</ele>
        <time>2021-02-28T10:14:46.000Z</time>
      </trkpt>
      <trkpt lat="43.40461" lon="5.47346">
        <ele>615.32</ele>
        <time>2021-02-28T10:14:53.000Z</time>
      </trkpt>
      <trkpt lat="43.40452" lon="5.4732">
        <ele>614.37</ele>
        <time>2021-02-28T10:14:59.000Z</time>
      </trkpt>
      <trkpt lat="43.40448" lon="5.47294">
        <ele>612.27</ele>
        <time>2021-02-28T10:15:03.000Z</time>
      </trkpt>
      <trkpt lat="43.40439" lon="5.4727">
        <ele>611.01</ele>
        <time>2021-02-28T10:15:07.000Z</time>
      </trkpt>
      <trkpt lat="43.4043" lon="5.47245">
        <ele>611.2</ele>
        <time>2021-02-28T10:15:12.000Z</time>
      </trkpt>
      <trkpt lat="43.40421" lon="5.47223">
        <ele>611.85</ele>
        <time>2021-02-28T10:15:17.000Z</time>
      </trkpt>
      <trkpt lat="43.40417" lon="5.47195">
        <ele>612.66</ele>
        <time>2021-02-28T10:15:23.000Z</time>
      </trkpt>
      <trkpt lat="43.4043" lon="5.47174">
        <ele>613.25</ele>
        <time>2021-02-28T10:15:29.000Z</time>
      </trkpt>
      <trkpt lat="43.4044" lon="5.47152">
        <ele>614.93</ele>
        <time>2021-02-28T10:15:36.000Z</time>
      </trkpt>
      <trkpt lat="43.40457" lon="5.47141">
        <ele>617.15</ele>
        <time>2021-02-28T10:15:45.000Z</time>
      </trkpt>
      <trkpt lat="43.40476" lon="5.47138">
        <ele>618.77</ele>
        <time>2021-02-28T10:15:53.000Z</time>
      </trkpt>
      <trkpt lat="43.40493" lon="5.47125">
        <ele>620.08</ele>
        <time>2021-02-28T10:16:02.000Z</time>
      </trkpt>
      <trkpt lat="43.40496" lon="5.47101">
        <ele>621.47</ele>
        <time>2021-02-28T10:16:11.000Z</time>
      </trkpt>
      <trkpt lat="43.40504" lon="5.47076">
        <ele>622.68</ele>
        <time>2021-02-28T10:16:20.000Z</time>
      </trkpt>
      <trkpt lat="43.40515" lon="5.47054">
        <ele>625.06</ele>
        <time>2021-02-28T10:16:31.000Z</time>
      </trkpt>
      <trkpt lat="43.40518" lon="5.47028">
        <ele>626.97</ele>
        <time>2021-02-28T10:16:43.000Z</time>
      </trkpt>
      <trkpt lat="43.40514" lon="5.47003">
        <ele>629.49</ele>
        <time>2021-02-28T10:16:55.000Z</time>
      </trkpt>
      <trkpt lat="43.40515" lon="5.46978">
        <ele>630.14</ele>
        <time>2021-02-28T10:17:05.000Z</time>
      </trkpt>
      <trkpt lat="43.40523" lon="5.46955">
        <ele>631.19</ele>
        <time>2021-02-28T10:17:14.000Z</time>
      </trkpt>
      <trkpt lat="43.40533" lon="5.46934">
        <ele>632.48</ele>
        <time>2021-02-28T10:17:23.000Z</time>
      </trkpt>
      <trkpt lat="43.40537" lon="5.46907">
        <ele>633.01</ele>
        <time>2021-02-28T10:17:32.000Z</time>
      </trkpt>
      <trkpt lat="43.40542" lon="5.46879">
        <ele>633.05</ele>
        <time>2021-02-28T10:17:40.000Z</time>
      </trkpt>
      <trkpt lat="43.40546" lon="5.46852">
        <ele>632.73</ele>
        <time>2021-02-28T10:17:46.000Z</time>
      </trkpt>
      <trkpt lat="43.40562" lon="5.4684">
        <ele>632.03</ele>
        <time>2021-02-28T10:17:51.000Z</time>
      </trkpt>
      <trkpt lat="43.40581" lon="5.46839">
        <ele>631.5</ele>
        <time>2021-02-28T10:17:55.000Z</time>
      </trkpt>
      <trkpt lat="43.40603" lon="5.46839">
        <ele>631.71</ele>
        <time>2021-02-28T10:18:00.000Z</time>
      </trkpt>
      <trkpt lat="43.40621" lon="5.46829">
        <ele>632.33</ele>
        <time>2021-02-28T10:18:06.000Z</time>
      </trkpt>
      <trkpt lat="43.40609" lon="5.46808">
        <ele>632.25</ele>
        <time>2021-02-28T10:18:13.000Z</time>
      </trkpt>
      <trkpt lat="43.40593" lon="5.46791">
        <ele>632.79</ele>
        <time>2021-02-28T10:18:19.000Z</time>
      </trkpt>
      <trkpt lat="43.40577" lon="5.46782">
        <ele>635.04</ele>
        <time>2021-02-28T10:18:30.000Z</time>
      </trkpt>
      <trkpt lat="43.40567" lon="5.46759">
        <ele>638.08</ele>
        <time>2021-02-28T10:18:41.000Z</time>
      </trkpt>
      <trkpt lat="43.40561" lon="5.46734">
        <ele>640.72</ele>
        <time>2021-02-28T10:18:50.000Z</time>
      </trkpt>
      <trkpt lat="43.40553" lon="5.46711">
        <ele>641.8</ele>
        <time>2021-02-28T10:19:00.000Z</time>
      </trkpt>
      <trkpt lat="43.40553" lon="5.4668">
        <ele>639.39</ele>
        <time>2021-02-28T10:19:07.000Z</time>
      </trkpt>
      <trkpt lat="43.40565" lon="5.4666">
        <ele>637.91</ele>
        <time>2021-02-28T10:19:10.000Z</time>
      </trkpt>
      <trkpt lat="43.40578" lon="5.46638">
        <ele>635.88</ele>
        <time>2021-02-28T10:19:13.000Z</time>
      </trkpt>
      <trkpt lat="43.40594" lon="5.46615">
        <ele>634.58</ele>
        <time>2021-02-28T10:19:17.000Z</time>
      </trkpt>
      <trkpt lat="43.40593" lon="5.46587">
        <ele>632.43</ele>
        <time>2021-02-28T10:19:21.000Z</time>
      </trkpt>
      <trkpt lat="43.40589" lon="5.46556">
        <ele>631.41</ele>
        <time>2021-02-28T10:19:25.000Z</time>
      </trkpt>
      <trkpt lat="43.40585" lon="5.4653">
        <ele>630.37</ele>
        <time>2021-02-28T10:19:28.000Z</time>
      </trkpt>
      <trkpt lat="43.4058" lon="5.46501">
        <ele>628.76</ele>
        <time>2021-02-28T10:19:32.000Z</time>
      </trkpt>
      <trkpt lat="43.40592" lon="5.46479">
        <ele>625.95</ele>
        <time>2021-02-28T10:19:35.000Z</time>
      </trkpt>
      <trkpt lat="43.40601" lon="5.46457">
        <ele>623.1</ele>
        <time>2021-02-28T10:19:38.000Z</time>
      </trkpt>
      <trkpt lat="43.40611" lon="5.46433">
        <ele>621.91</ele>
        <time>2021-02-28T10:19:41.000Z</time>
      </trkpt>
      <trkpt lat="43.40615" lon="5.46405">
        <ele>619.29</ele>
        <time>2021-02-28T10:19:45.000Z</time>
      </trkpt>
      <trkpt lat="43.40616" lon="5.4638">
        <ele>617.22</ele>
        <time>2021-02-28T10:19:48.000Z</time>
      </trkpt>
      <trkpt lat="43.40613" lon="5.46349">
        <ele>616.25</ele>
        <time>2021-02-28T10:19:52.000Z</time>
      </trkpt>
      <trkpt lat="43.40611" lon="5.4632">
        <ele>615.76</ele>
        <time>2021-02-28T10:19:56.000Z</time>
      </trkpt>
      <trkpt lat="43.4061" lon="5.46294">
        <ele>615.01</ele>
        <time>2021-02-28T10:20:00.000Z</time>
      </trkpt>
      <trkpt lat="43.40609" lon="5.46269">
        <ele>615.15</ele>
        <time>2021-02-28T10:20:04.000Z</time>
      </trkpt>
      <trkpt lat="43.40608" lon="5.46242">
        <ele>616.15</ele>
        <time>2021-02-28T10:20:08.000Z</time>
      </trkpt>
      <trkpt lat="43.40617" lon="5.46217">
        <ele>616.9</ele>
        <time>2021-02-28T10:20:13.000Z</time>
      </trkpt>
      <trkpt lat="43.40607" lon="5.46188">
        <ele>615.26</ele>
        <time>2021-02-28T10:20:18.000Z</time>
      </trkpt>
      <trkpt lat="43.40604" lon="5.46156">
        <ele>613.25</ele>
        <time>2021-02-28T10:20:22.000Z</time>
      </trkpt>
      <trkpt lat="43.40608" lon="5.46125">
        <ele>611.18</ele>
        <time>2021-02-28T10:20:25.000Z</time>
      </trkpt>
      <trkpt lat="43.40613" lon="5.46099">
        <ele>609.99</ele>
        <time>2021-02-28T10:20:28.000Z</time>
      </trkpt>
      <trkpt lat="43.40626" lon="5.46069">
        <ele>607.27</ele>
        <time>2021-02-28T10:20:32.000Z</time>
      </trkpt>
      <trkpt lat="43.40641" lon="5.46047">
        <ele>605.74</ele>
        <time>2021-02-28T10:20:35.000Z</time>
      </trkpt>
      <trkpt lat="43.40658" lon="5.46028">
        <ele>604.79</ele>
        <time>2021-02-28T10:20:38.000Z</time>
      </trkpt>
      <trkpt lat="43.40674" lon="5.46011">
        <ele>604.66</ele>
        <time>2021-02-28T10:20:41.000Z</time>
      </trkpt>
      <trkpt lat="43.40695" lon="5.46001">
        <ele>603.96</ele>
        <time>2021-02-28T10:20:45.000Z</time>
      </trkpt>
      <trkpt lat="43.4071" lon="5.45976">
        <ele>601.44</ele>
        <time>2021-02-28T10:20:49.000Z</time>
      </trkpt>
      <trkpt lat="43.40725" lon="5.45956">
        <ele>600.08</ele>
        <time>2021-02-28T10:20:52.000Z</time>
      </trkpt>
      <trkpt lat="43.40743" lon="5.45943">
        <ele>598.17</ele>
        <time>2021-02-28T10:20:55.000Z</time>
      </trkpt>
      <trkpt lat="43.40762" lon="5.45931">
        <ele>597.05</ele>
        <time>2021-02-28T10:20:58.000Z</time>
      </trkpt>
      <trkpt lat="43.40779" lon="5.45911">
        <ele>594.32</ele>
        <time>2021-02-28T10:21:02.000Z</time>
      </trkpt>
      <trkpt lat="43.40781" lon="5.45882">
        <ele>592.49</ele>
        <time>2021-02-28T10:21:06.000Z</time>
      </trkpt>
      <trkpt lat="43.40782" lon="5.45854">
        <ele>590.8</ele>
        <time>2021-02-28T10:21:09.000Z</time>
      </trkpt>
      <trkpt lat="43.4079" lon="5.45826">
        <ele>589.76</ele>
        <time>2021-02-28T10:21:12.000Z</time>
      </trkpt>
      <trkpt lat="43.40803" lon="5.458">
        <ele>588.54</ele>
        <time>2021-02-28T10:21:15.000Z</time>
      </trkpt>
      <trkpt lat="43.40818" lon="5.45774">
        <ele>587.48</ele>
        <time>2021-02-28T10:21:18.000Z</time>
      </trkpt>
      <trkpt lat="43.40834" lon="5.45752">
        <ele>586.47</ele>
        <time>2021-02-28T10:21:21.000Z</time>
      </trkpt>
      <trkpt lat="43.4085" lon="5.45729">
        <ele>584.95</ele>
        <time>2021-02-28T10:21:24.000Z</time>
      </trkpt>
      <trkpt lat="43.40857" lon="5.45703">
        <ele>584.96</ele>
        <time>2021-02-28T10:21:27.000Z</time>
      </trkpt>
      <trkpt lat="43.4086" lon="5.45674">
        <ele>587.04</ele>
        <time>2021-02-28T10:21:32.000Z</time>
      </trkpt>
      <trkpt lat="43.40857" lon="5.45647">
        <ele>588.01</ele>
        <time>2021-02-28T10:21:37.000Z</time>
      </trkpt>
      <trkpt lat="43.40843" lon="5.45625">
        <ele>588.33</ele>
        <time>2021-02-28T10:21:42.000Z</time>
      </trkpt>
      <trkpt lat="43.40825" lon="5.45607">
        <ele>588.65</ele>
        <time>2021-02-28T10:21:48.000Z</time>
      </trkpt>
      <trkpt lat="43.40805" lon="5.45596">
        <ele>587.36</ele>
        <time>2021-02-28T10:21:52.000Z</time>
      </trkpt>
      <trkpt lat="43.40785" lon="5.45581">
        <ele>585.89</ele>
        <time>2021-02-28T10:21:56.000Z</time>
      </trkpt>
      <trkpt lat="43.4077" lon="5.45566">
        <ele>585.07</ele>
        <time>2021-02-28T10:22:01.000Z</time>
      </trkpt>
      <trkpt lat="43.40753" lon="5.45582">
        <ele>584.57</ele>
        <time>2021-02-28T10:22:09.000Z</time>
      </trkpt>
      <trkpt lat="43.40741" lon="5.45601">
        <ele>584.08</ele>
        <time>2021-02-28T10:22:14.000Z</time>
      </trkpt>
      <trkpt lat="43.40728" lon="5.45621">
        <ele>582.81</ele>
        <time>2021-02-28T10:22:18.000Z</time>
      </trkpt>
      <trkpt lat="43.40712" lon="5.45642">
        <ele>581.8</ele>
        <time>2021-02-28T10:22:22.000Z</time>
      </trkpt>
      <trkpt lat="43.40693" lon="5.45656">
        <ele>581.12</ele>
        <time>2021-02-28T10:22:26.000Z</time>
      </trkpt>
      <trkpt lat="43.40674" lon="5.45674">
        <ele>578.7</ele>
        <time>2021-02-28T10:22:30.000Z</time>
      </trkpt>
      <trkpt lat="43.40658" lon="5.45694">
        <ele>577.31</ele>
        <time>2021-02-28T10:22:34.000Z</time>
      </trkpt>
      <trkpt lat="43.40649" lon="5.45718">
        <ele>577.21</ele>
        <time>2021-02-28T10:22:38.000Z</time>
      </trkpt>
      <trkpt lat="43.4064" lon="5.45741">
        <ele>576.69</ele>
        <time>2021-02-28T10:22:42.000Z</time>
      </trkpt>
      <trkpt lat="43.40635" lon="5.45769">
        <ele>577.09</ele>
        <time>2021-02-28T10:22:47.000Z</time>
      </trkpt>
      <trkpt lat="43.40622" lon="5.45794">
        <ele>575.13</ele>
        <time>2021-02-28T10:22:51.000Z</time>
      </trkpt>
      <trkpt lat="43.40604" lon="5.45814">
        <ele>572.62</ele>
        <time>2021-02-28T10:22:55.000Z</time>
      </trkpt>
      <trkpt lat="43.40599" lon="5.45843">
        <ele>570.05</ele>
        <time>2021-02-28T10:22:59.000Z</time>
      </trkpt>
      <trkpt lat="43.40586" lon="5.45865">
        <ele>568.38</ele>
        <time>2021-02-28T10:23:02.000Z</time>
      </trkpt>
      <trkpt lat="43.40572" lon="5.45884">
        <ele>567.95</ele>
        <time>2021-02-28T10:23:05.000Z</time>
      </trkpt>
      <trkpt lat="43.40553" lon="5.459">
        <ele>566.93</ele>
        <time>2021-02-28T10:23:09.000Z</time>
      </trkpt>
      <trkpt lat="43.4055" lon="5.45925">
        <ele>566.01</ele>
        <time>2021-02-28T10:23:13.000Z</time>
      </trkpt>
      <trkpt lat="43.40548" lon="5.4595">
        <ele>565.29</ele>
        <time>2021-02-28T10:23:17.000Z</time>
      </trkpt>
      <trkpt lat="43.40538" lon="5.45928">
        <ele>562.83</ele>
        <time>2021-02-28T10:23:24.000Z</time>
      </trkpt>
      <trkpt lat="43.40535" lon="5.45899">
        <ele>560.72</ele>
        <time>2021-02-28T10:23:28.000Z</time>
      </trkpt>
      <trkpt lat="43.40544" lon="5.45875">
        <ele>558.56</ele>
        <time>2021-02-28T10:23:34.000Z</time>
      </trkpt>
      <trkpt lat="43.40563" lon="5.45864">
        <ele>556.23</ele>
        <time>2021-02-28T10:23:38.000Z</time>
      </trkpt>
      <trkpt lat="43.40572" lon="5.45841">
        <ele>554.42</ele>
        <time>2021-02-28T10:23:43.000Z</time>
      </trkpt>
      <trkpt lat="43.40571" lon="5.45811">
        <ele>553.31</ele>
        <time>2021-02-28T10:23:48.000Z</time>
      </trkpt>
      <trkpt lat="43.40578" lon="5.45785">
        <ele>551.92</ele>
        <time>2021-02-28T10:23:53.000Z</time>
      </trkpt>
      <trkpt lat="43.40591" lon="5.45767">
        <ele>551.45</ele>
        <time>2021-02-28T10:23:57.000Z</time>
      </trkpt>
      <trkpt lat="43.40594" lon="5.45739">
        <ele>550.06</ele>
        <time>2021-02-28T10:24:01.000Z</time>
      </trkpt>
      <trkpt lat="43.406" lon="5.45713">
        <ele>548.77</ele>
        <time>2021-02-28T10:24:04.000Z</time>
      </trkpt>
      <trkpt lat="43.40601" lon="5.45685">
        <ele>546.97</ele>
        <time>2021-02-28T10:24:07.000Z</time>
      </trkpt>
      <trkpt lat="43.40601" lon="5.45654">
        <ele>546.04</ele>
        <time>2021-02-28T10:24:11.000Z</time>
      </trkpt>
      <trkpt lat="43.40601" lon="5.45624">
        <ele>543.21</ele>
        <time>2021-02-28T10:24:15.000Z</time>
      </trkpt>
      <trkpt lat="43.40618" lon="5.45607">
        <ele>541.59</ele>
        <time>2021-02-28T10:24:20.000Z</time>
      </trkpt>
      <trkpt lat="43.40641" lon="5.456">
        <ele>538.95</ele>
        <time>2021-02-28T10:24:24.000Z</time>
      </trkpt>
      <trkpt lat="43.40658" lon="5.45583">
        <ele>536.61</ele>
        <time>2021-02-28T10:24:27.000Z</time>
      </trkpt>
      <trkpt lat="43.4067" lon="5.4556">
        <ele>534.83</ele>
        <time>2021-02-28T10:24:30.000Z</time>
      </trkpt>
      <trkpt lat="43.40677" lon="5.45532">
        <ele>534.01</ele>
        <time>2021-02-28T10:24:33.000Z</time>
      </trkpt>
      <trkpt lat="43.40678" lon="5.45503">
        <ele>533.02</ele>
        <time>2021-02-28T10:24:36.000Z</time>
      </trkpt>
      <trkpt lat="43.40673" lon="5.45478">
        <ele>531.86</ele>
        <time>2021-02-28T10:24:39.000Z</time>
      </trkpt>
      <trkpt lat="43.40668" lon="5.45449">
        <ele>530.61</ele>
        <time>2021-02-28T10:24:42.000Z</time>
      </trkpt>
      <trkpt lat="43.40663" lon="5.45421">
        <ele>529.41</ele>
        <time>2021-02-28T10:24:45.000Z</time>
      </trkpt>
      <trkpt lat="43.40654" lon="5.45394">
        <ele>527.85</ele>
        <time>2021-02-28T10:24:48.000Z</time>
      </trkpt>
      <trkpt lat="43.40645" lon="5.45368">
        <ele>526.41</ele>
        <time>2021-02-28T10:24:51.000Z</time>
      </trkpt>
      <trkpt lat="43.40634" lon="5.45343">
        <ele>524.41</ele>
        <time>2021-02-28T10:24:54.000Z</time>
      </trkpt>
      <trkpt lat="43.40617" lon="5.45324">
        <ele>522.38</ele>
        <time>2021-02-28T10:24:57.000Z</time>
      </trkpt>
      <trkpt lat="43.40604" lon="5.45299">
        <ele>521.05</ele>
        <time>2021-02-28T10:25:01.000Z</time>
      </trkpt>
      <trkpt lat="43.40606" lon="5.45271">
        <ele>518.52</ele>
        <time>2021-02-28T10:25:04.000Z</time>
      </trkpt>
      <trkpt lat="43.40618" lon="5.45243">
        <ele>516.07</ele>
        <time>2021-02-28T10:25:07.000Z</time>
      </trkpt>
      <trkpt lat="43.40627" lon="5.45214">
        <ele>514.81</ele>
        <time>2021-02-28T10:25:10.000Z</time>
      </trkpt>
      <trkpt lat="43.40632" lon="5.45187">
        <ele>513.38</ele>
        <time>2021-02-28T10:25:13.000Z</time>
      </trkpt>
      <trkpt lat="43.40629" lon="5.45155">
        <ele>511.1</ele>
        <time>2021-02-28T10:25:17.000Z</time>
      </trkpt>
      <trkpt lat="43.4064" lon="5.45129">
        <ele>509.43</ele>
        <time>2021-02-28T10:25:21.000Z</time>
      </trkpt>
      <trkpt lat="43.40663" lon="5.45121">
        <ele>507.87</ele>
        <time>2021-02-28T10:25:25.000Z</time>
      </trkpt>
      <trkpt lat="43.40683" lon="5.4511">
        <ele>505.42</ele>
        <time>2021-02-28T10:25:29.000Z</time>
      </trkpt>
      <trkpt lat="43.40699" lon="5.45097">
        <ele>503.71</ele>
        <time>2021-02-28T10:25:34.000Z</time>
      </trkpt>
      <trkpt lat="43.40718" lon="5.45084">
        <ele>501.85</ele>
        <time>2021-02-28T10:25:39.000Z</time>
      </trkpt>
      <trkpt lat="43.40734" lon="5.45071">
        <ele>501.13</ele>
        <time>2021-02-28T10:25:42.000Z</time>
      </trkpt>
      <trkpt lat="43.40747" lon="5.45054">
        <ele>499.67</ele>
        <time>2021-02-28T10:25:45.000Z</time>
      </trkpt>
      <trkpt lat="43.40762" lon="5.45035">
        <ele>496.5</ele>
        <time>2021-02-28T10:25:49.000Z</time>
      </trkpt>
      <trkpt lat="43.40776" lon="5.45019">
        <ele>493.93</ele>
        <time>2021-02-28T10:25:52.000Z</time>
      </trkpt>
      <trkpt lat="43.40788" lon="5.44995">
        <ele>490.97</ele>
        <time>2021-02-28T10:25:55.000Z</time>
      </trkpt>
      <trkpt lat="43.40796" lon="5.4497">
        <ele>488.75</ele>
        <time>2021-02-28T10:25:58.000Z</time>
      </trkpt>
      <trkpt lat="43.40799" lon="5.44943">
        <ele>486.03</ele>
        <time>2021-02-28T10:26:01.000Z</time>
      </trkpt>
      <trkpt lat="43.40799" lon="5.44918">
        <ele>483.22</ele>
        <time>2021-02-28T10:26:04.000Z</time>
      </trkpt>
      <trkpt lat="43.40806" lon="5.44891">
        <ele>480.87</ele>
        <time>2021-02-28T10:26:07.000Z</time>
      </trkpt>
      <trkpt lat="43.40814" lon="5.44862">
        <ele>478.69</ele>
        <time>2021-02-28T10:26:10.000Z</time>
      </trkpt>
      <trkpt lat="43.40819" lon="5.44829">
        <ele>475.98</ele>
        <time>2021-02-28T10:26:13.000Z</time>
      </trkpt>
      <trkpt lat="43.40825" lon="5.44794">
        <ele>473.28</ele>
        <time>2021-02-28T10:26:16.000Z</time>
      </trkpt>
      <trkpt lat="43.40824" lon="5.44769">
        <ele>472.19</ele>
        <time>2021-02-28T10:26:18.000Z</time>
      </trkpt>
      <trkpt lat="43.4082" lon="5.44735">
        <ele>471.56</ele>
        <time>2021-02-28T10:26:21.000Z</time>
      </trkpt>
      <trkpt lat="43.40815" lon="5.44704">
        <ele>470.07</ele>
        <time>2021-02-28T10:26:25.000Z</time>
      </trkpt>
      <trkpt lat="43.40822" lon="5.44678">
        <ele>467.58</ele>
        <time>2021-02-28T10:26:29.000Z</time>
      </trkpt>
      <trkpt lat="43.40839" lon="5.44662">
        <ele>465.52</ele>
        <time>2021-02-28T10:26:32.000Z</time>
      </trkpt>
      <trkpt lat="43.40854" lon="5.44644">
        <ele>463.93</ele>
        <time>2021-02-28T10:26:35.000Z</time>
      </trkpt>
      <trkpt lat="43.40866" lon="5.44617">
        <ele>461.26</ele>
        <time>2021-02-28T10:26:38.000Z</time>
      </trkpt>
      <trkpt lat="43.40874" lon="5.44586">
        <ele>460.1</ele>
        <time>2021-02-28T10:26:41.000Z</time>
      </trkpt>
      <trkpt lat="43.40876" lon="5.44558">
        <ele>458.55</ele>
        <time>2021-02-28T10:26:44.000Z</time>
      </trkpt>
      <trkpt lat="43.40881" lon="5.44526">
        <ele>455.53</ele>
        <time>2021-02-28T10:26:48.000Z</time>
      </trkpt>
      <trkpt lat="43.40891" lon="5.44497">
        <ele>452.97</ele>
        <time>2021-02-28T10:26:51.000Z</time>
      </trkpt>
      <trkpt lat="43.409" lon="5.44466">
        <ele>450.58</ele>
        <time>2021-02-28T10:26:54.000Z</time>
      </trkpt>
      <trkpt lat="43.40906" lon="5.44439">
        <ele>448.11</ele>
        <time>2021-02-28T10:26:57.000Z</time>
      </trkpt>
      <trkpt lat="43.40908" lon="5.44408">
        <ele>445.41</ele>
        <time>2021-02-28T10:27:01.000Z</time>
      </trkpt>
      <trkpt lat="43.40909" lon="5.44379">
        <ele>443.84</ele>
        <time>2021-02-28T10:27:06.000Z</time>
      </trkpt>
      <trkpt lat="43.40901" lon="5.44356">
        <ele>442.4</ele>
        <time>2021-02-28T10:27:11.000Z</time>
      </trkpt>
      <trkpt lat="43.40889" lon="5.44336">
        <ele>440.34</ele>
        <time>2021-02-28T10:27:15.000Z</time>
      </trkpt>
      <trkpt lat="43.40884" lon="5.44308">
        <ele>439.56</ele>
        <time>2021-02-28T10:27:20.000Z</time>
      </trkpt>
      <trkpt lat="43.40884" lon="5.44281">
        <ele>438.52</ele>
        <time>2021-02-28T10:27:24.000Z</time>
      </trkpt>
      <trkpt lat="43.40879" lon="5.44255">
        <ele>437.44</ele>
        <time>2021-02-28T10:27:28.000Z</time>
      </trkpt>
      <trkpt lat="43.40874" lon="5.4423">
        <ele>435.98</ele>
        <time>2021-02-28T10:27:32.000Z</time>
      </trkpt>
      <trkpt lat="43.40867" lon="5.44201">
        <ele>433.15</ele>
        <time>2021-02-28T10:27:37.000Z</time>
      </trkpt>
      <trkpt lat="43.40859" lon="5.44176">
        <ele>430.74</ele>
        <time>2021-02-28T10:27:42.000Z</time>
      </trkpt>
      <trkpt lat="43.40867" lon="5.44151">
        <ele>429.18</ele>
        <time>2021-02-28T10:27:46.000Z</time>
      </trkpt>
      <trkpt lat="43.40871" lon="5.44125">
        <ele>427.82</ele>
        <time>2021-02-28T10:27:49.000Z</time>
      </trkpt>
      <trkpt lat="43.4087" lon="5.44099">
        <ele>426.86</ele>
        <time>2021-02-28T10:27:52.000Z</time>
      </trkpt>
      <trkpt lat="43.40865" lon="5.44069">
        <ele>424.85</ele>
        <time>2021-02-28T10:27:56.000Z</time>
      </trkpt>
      <trkpt lat="43.40858" lon="5.44043">
        <ele>423.42</ele>
        <time>2021-02-28T10:28:00.000Z</time>
      </trkpt>
      <trkpt lat="43.40864" lon="5.44016">
        <ele>420.73</ele>
        <time>2021-02-28T10:28:04.000Z</time>
      </trkpt>
      <trkpt lat="43.4088" lon="5.43992">
        <ele>418.49</ele>
        <time>2021-02-28T10:28:08.000Z</time>
      </trkpt>
      <trkpt lat="43.40883" lon="5.43964">
        <ele>417.51</ele>
        <time>2021-02-28T10:28:11.000Z</time>
      </trkpt>
      <trkpt lat="43.40875" lon="5.43934">
        <ele>416.47</ele>
        <time>2021-02-28T10:28:15.000Z</time>
      </trkpt>
      <trkpt lat="43.40859" lon="5.43914">
        <ele>415.34</ele>
        <time>2021-02-28T10:28:18.000Z</time>
      </trkpt>
      <trkpt lat="43.40844" lon="5.43896">
        <ele>413.91</ele>
        <time>2021-02-28T10:28:21.000Z</time>
      </trkpt>
      <trkpt lat="43.40838" lon="5.43872">
        <ele>411.78</ele>
        <time>2021-02-28T10:28:25.000Z</time>
      </trkpt>
      <trkpt lat="43.40861" lon="5.43865">
        <ele>410.65</ele>
        <time>2021-02-28T10:28:29.000Z</time>
      </trkpt>
      <trkpt lat="43.40878" lon="5.43854">
        <ele>409.76</ele>
        <time>2021-02-28T10:28:32.000Z</time>
      </trkpt>
      <trkpt lat="43.40887" lon="5.43827">
        <ele>408.87</ele>
        <time>2021-02-28T10:28:36.000Z</time>
      </trkpt>
      <trkpt lat="43.40883" lon="5.43796">
        <ele>406.79</ele>
        <time>2021-02-28T10:28:40.000Z</time>
      </trkpt>
      <trkpt lat="43.40876" lon="5.43771">
        <ele>404.14</ele>
        <time>2021-02-28T10:28:43.000Z</time>
      </trkpt>
      <trkpt lat="43.40863" lon="5.43744">
        <ele>400.55</ele>
        <time>2021-02-28T10:28:47.000Z</time>
      </trkpt>
      <trkpt lat="43.4085" lon="5.43726">
        <ele>398.85</ele>
        <time>2021-02-28T10:28:50.000Z</time>
      </trkpt>
      <trkpt lat="43.40849" lon="5.43698">
        <ele>397.97</ele>
        <time>2021-02-28T10:28:53.000Z</time>
      </trkpt>
      <trkpt lat="43.40845" lon="5.43667">
        <ele>394.57</ele>
        <time>2021-02-28T10:28:56.000Z</time>
      </trkpt>
      <trkpt lat="43.40834" lon="5.43642">
        <ele>392.3</ele>
        <time>2021-02-28T10:28:59.000Z</time>
      </trkpt>
      <trkpt lat="43.40831" lon="5.43617">
        <ele>391.15</ele>
        <time>2021-02-28T10:29:02.000Z</time>
      </trkpt>
      <trkpt lat="43.40843" lon="5.43594">
        <ele>389.66</ele>
        <time>2021-02-28T10:29:05.000Z</time>
      </trkpt>
      <trkpt lat="43.40859" lon="5.43579">
        <ele>387.48</ele>
        <time>2021-02-28T10:29:08.000Z</time>
      </trkpt>
      <trkpt lat="43.40878" lon="5.43567">
        <ele>385.34</ele>
        <time>2021-02-28T10:29:11.000Z</time>
      </trkpt>
      <trkpt lat="43.40874" lon="5.43541">
        <ele>383.46</ele>
        <time>2021-02-28T10:29:15.000Z</time>
      </trkpt>
      <trkpt lat="43.40868" lon="5.43511">
        <ele>381.53</ele>
        <time>2021-02-28T10:29:19.000Z</time>
      </trkpt>
      <trkpt lat="43.40862" lon="5.43487">
        <ele>380.4</ele>
        <time>2021-02-28T10:29:22.000Z</time>
      </trkpt>
      <trkpt lat="43.40839" lon="5.43479">
        <ele>379.63</ele>
        <time>2021-02-28T10:29:26.000Z</time>
      </trkpt>
      <trkpt lat="43.40821" lon="5.43475">
        <ele>378.01</ele>
        <time>2021-02-28T10:29:29.000Z</time>
      </trkpt>
      <trkpt lat="43.40802" lon="5.43471">
        <ele>376.58</ele>
        <time>2021-02-28T10:29:32.000Z</time>
      </trkpt>
      <trkpt lat="43.40779" lon="5.43466">
        <ele>375.5</ele>
        <time>2021-02-28T10:29:36.000Z</time>
      </trkpt>
      <trkpt lat="43.40768" lon="5.43446">
        <ele>373.71</ele>
        <time>2021-02-28T10:29:39.000Z</time>
      </trkpt>
      <trkpt lat="43.40761" lon="5.43419">
        <ele>372.74</ele>
        <time>2021-02-28T10:29:42.000Z</time>
      </trkpt>
      <trkpt lat="43.40757" lon="5.43388">
        <ele>370.6</ele>
        <time>2021-02-28T10:29:45.000Z</time>
      </trkpt>
      <trkpt lat="43.40749" lon="5.43361">
        <ele>368.89</ele>
        <time>2021-02-28T10:29:48.000Z</time>
      </trkpt>
      <trkpt lat="43.40748" lon="5.43336">
        <ele>367.67</ele>
        <time>2021-02-28T10:29:51.000Z</time>
      </trkpt>
      <trkpt lat="43.40753" lon="5.43305">
        <ele>366.11</ele>
        <time>2021-02-28T10:29:55.000Z</time>
      </trkpt>
      <trkpt lat="43.40771" lon="5.43289">
        <ele>363.69</ele>
        <time>2021-02-28T10:29:59.000Z</time>
      </trkpt>
      <trkpt lat="43.40793" lon="5.43288">
        <ele>361.88</ele>
        <time>2021-02-28T10:30:03.000Z</time>
      </trkpt>
      <trkpt lat="43.40812" lon="5.43285">
        <ele>360.05</ele>
        <time>2021-02-28T10:30:06.000Z</time>
      </trkpt>
      <trkpt lat="43.40827" lon="5.43267">
        <ele>358.06</ele>
        <time>2021-02-28T10:30:09.000Z</time>
      </trkpt>
      <trkpt lat="43.40849" lon="5.43255">
        <ele>356.34</ele>
        <time>2021-02-28T10:30:13.000Z</time>
      </trkpt>
      <trkpt lat="43.40863" lon="5.43234">
        <ele>354.03</ele>
        <time>2021-02-28T10:30:16.000Z</time>
      </trkpt>
      <trkpt lat="43.40865" lon="5.43208">
        <ele>351.95</ele>
        <time>2021-02-28T10:30:20.000Z</time>
      </trkpt>
      <trkpt lat="43.40863" lon="5.43181">
        <ele>350.74</ele>
        <time>2021-02-28T10:30:24.000Z</time>
      </trkpt>
      <trkpt lat="43.4086" lon="5.43154">
        <ele>347.8</ele>
        <time>2021-02-28T10:30:27.000Z</time>
      </trkpt>
      <trkpt lat="43.40857" lon="5.43129">
        <ele>345.71</ele>
        <time>2021-02-28T10:30:30.000Z</time>
      </trkpt>
      <trkpt lat="43.40869" lon="5.43103">
        <ele>343.63</ele>
        <time>2021-02-28T10:30:35.000Z</time>
      </trkpt>
      <trkpt lat="43.40888" lon="5.43098">
        <ele>341.47</ele>
        <time>2021-02-28T10:30:38.000Z</time>
      </trkpt>
      <trkpt lat="43.40906" lon="5.43098">
        <ele>341.52</ele>
        <time>2021-02-28T10:30:41.000Z</time>
      </trkpt>
      <trkpt lat="43.40929" lon="5.43099">
        <ele>339.9</ele>
        <time>2021-02-28T10:30:45.000Z</time>
      </trkpt>
      <trkpt lat="43.40947" lon="5.43109">
        <ele>338.83</ele>
        <time>2021-02-28T10:30:48.000Z</time>
      </trkpt>
      <trkpt lat="43.40969" lon="5.43114">
        <ele>335.96</ele>
        <time>2021-02-28T10:30:52.000Z</time>
      </trkpt>
      <trkpt lat="43.40973" lon="5.43089">
        <ele>335.28</ele>
        <time>2021-02-28T10:30:55.000Z</time>
      </trkpt>
      <trkpt lat="43.40969" lon="5.43058">
        <ele>334.62</ele>
        <time>2021-02-28T10:30:59.000Z</time>
      </trkpt>
      <trkpt lat="43.40976" lon="5.43032">
        <ele>332.24</ele>
        <time>2021-02-28T10:31:02.000Z</time>
      </trkpt>
      <trkpt lat="43.40987" lon="5.43008">
        <ele>331.24</ele>
        <time>2021-02-28T10:31:05.000Z</time>
      </trkpt>
      <trkpt lat="43.40998" lon="5.42987">
        <ele>329.62</ele>
        <time>2021-02-28T10:31:08.000Z</time>
      </trkpt>
      <trkpt lat="43.41016" lon="5.42979">
        <ele>328.43</ele>
        <time>2021-02-28T10:31:11.000Z</time>
      </trkpt>
      <trkpt lat="43.41031" lon="5.42962">
        <ele>326.72</ele>
        <time>2021-02-28T10:31:14.000Z</time>
      </trkpt>
      <trkpt lat="43.41047" lon="5.42949">
        <ele>325</ele>
        <time>2021-02-28T10:31:18.000Z</time>
      </trkpt>
      <trkpt lat="43.41059" lon="5.42924">
        <ele>322.27</ele>
        <time>2021-02-28T10:31:21.000Z</time>
      </trkpt>
      <trkpt lat="43.41071" lon="5.42897">
        <ele>319.48</ele>
        <time>2021-02-28T10:31:24.000Z</time>
      </trkpt>
      <trkpt lat="43.41084" lon="5.42871">
        <ele>316.79</ele>
        <time>2021-02-28T10:31:27.000Z</time>
      </trkpt>
      <trkpt lat="43.41095" lon="5.42843">
        <ele>314.35</ele>
        <time>2021-02-28T10:31:30.000Z</time>
      </trkpt>
      <trkpt lat="43.41103" lon="5.42816">
        <ele>312.01</ele>
        <time>2021-02-28T10:31:33.000Z</time>
      </trkpt>
      <trkpt lat="43.41104" lon="5.42782">
        <ele>309.79</ele>
        <time>2021-02-28T10:31:36.000Z</time>
      </trkpt>
      <trkpt lat="43.41104" lon="5.4275">
        <ele>307.87</ele>
        <time>2021-02-28T10:31:39.000Z</time>
      </trkpt>
      <trkpt lat="43.41102" lon="5.4272">
        <ele>305.53</ele>
        <time>2021-02-28T10:31:43.000Z</time>
      </trkpt>
      <trkpt lat="43.41101" lon="5.42695">
        <ele>302.88</ele>
        <time>2021-02-28T10:31:52.000Z</time>
      </trkpt>
      <trkpt lat="43.41089" lon="5.42716">
        <ele>302.88</ele>
        <time>2021-02-28T10:32:02.000Z</time>
      </trkpt>
      <trkpt lat="43.41071" lon="5.42714">
        <ele>304.77</ele>
        <time>2021-02-28T10:32:23.000Z</time>
      </trkpt>
      <trkpt lat="43.41052" lon="5.42714">
        <ele>305.52</ele>
        <time>2021-02-28T10:32:39.000Z</time>
      </trkpt>
      <trkpt lat="43.41036" lon="5.42727">
        <ele>306.48</ele>
        <time>2021-02-28T10:32:48.000Z</time>
      </trkpt>
      <trkpt lat="43.41017" lon="5.42732">
        <ele>307.2</ele>
        <time>2021-02-28T10:32:56.000Z</time>
      </trkpt>
      <trkpt lat="43.40998" lon="5.42734">
        <ele>307.7</ele>
        <time>2021-02-28T10:33:03.000Z</time>
      </trkpt>
      <trkpt lat="43.40978" lon="5.42736">
        <ele>308.28</ele>
        <time>2021-02-28T10:33:10.000Z</time>
      </trkpt>
      <trkpt lat="43.40958" lon="5.42739">
        <ele>308.73</ele>
        <time>2021-02-28T10:33:17.000Z</time>
      </trkpt>
      <trkpt lat="43.4094" lon="5.42744">
        <ele>309.37</ele>
        <time>2021-02-28T10:33:24.000Z</time>
      </trkpt>
      <trkpt lat="43.40922" lon="5.42745">
        <ele>310.51</ele>
        <time>2021-02-28T10:33:30.000Z</time>
      </trkpt>
      <trkpt lat="43.40903" lon="5.42747">
        <ele>311.74</ele>
        <time>2021-02-28T10:33:36.000Z</time>
      </trkpt>
      <trkpt lat="43.40885" lon="5.42748">
        <ele>312.38</ele>
        <time>2021-02-28T10:33:42.000Z</time>
      </trkpt>
      <trkpt lat="43.40863" lon="5.42748">
        <ele>313.28</ele>
        <time>2021-02-28T10:33:48.000Z</time>
      </trkpt>
      <trkpt lat="43.40844" lon="5.42746">
        <ele>314.54</ele>
        <time>2021-02-28T10:33:54.000Z</time>
      </trkpt>
      <trkpt lat="43.40825" lon="5.42743">
        <ele>315.27</ele>
        <time>2021-02-28T10:34:00.000Z</time>
      </trkpt>
      <trkpt lat="43.40804" lon="5.42742">
        <ele>315.91</ele>
        <time>2021-02-28T10:34:06.000Z</time>
      </trkpt>
      <trkpt lat="43.40784" lon="5.42741">
        <ele>317.03</ele>
        <time>2021-02-28T10:34:13.000Z</time>
      </trkpt>
      <trkpt lat="43.40765" lon="5.42745">
        <ele>317.65</ele>
        <time>2021-02-28T10:34:19.000Z</time>
      </trkpt>
      <trkpt lat="43.40746" lon="5.4275">
        <ele>318.57</ele>
        <time>2021-02-28T10:34:25.000Z</time>
      </trkpt>
      <trkpt lat="43.40727" lon="5.42757">
        <ele>319.19</ele>
        <time>2021-02-28T10:34:31.000Z</time>
      </trkpt>
      <trkpt lat="43.4071" lon="5.42769">
        <ele>320.26</ele>
        <time>2021-02-28T10:34:37.000Z</time>
      </trkpt>
      <trkpt lat="43.40696" lon="5.42784">
        <ele>321.16</ele>
        <time>2021-02-28T10:34:43.000Z</time>
      </trkpt>
      <trkpt lat="43.40679" lon="5.42796">
        <ele>322.28</ele>
        <time>2021-02-28T10:34:49.000Z</time>
      </trkpt>
      <trkpt lat="43.40661" lon="5.42807">
        <ele>322.98</ele>
        <time>2021-02-28T10:34:55.000Z</time>
      </trkpt>
      <trkpt lat="43.40642" lon="5.42819">
        <ele>324.29</ele>
        <time>2021-02-28T10:35:02.000Z</time>
      </trkpt>
      <trkpt lat="43.40623" lon="5.42831">
        <ele>325.81</ele>
        <time>2021-02-28T10:35:09.000Z</time>
      </trkpt>
      <trkpt lat="43.40604" lon="5.42835">
        <ele>327.13</ele>
        <time>2021-02-28T10:35:17.000Z</time>
      </trkpt>
      <trkpt lat="43.40587" lon="5.42822">
        <ele>327.38</ele>
        <time>2021-02-28T10:35:23.000Z</time>
      </trkpt>
      <trkpt lat="43.40574" lon="5.42801">
        <ele>328.29</ele>
        <time>2021-02-28T10:35:30.000Z</time>
      </trkpt>
      <trkpt lat="43.40562" lon="5.42783">
        <ele>329.82</ele>
        <time>2021-02-28T10:35:38.000Z</time>
      </trkpt>
      <trkpt lat="43.40549" lon="5.42761">
        <ele>331.41</ele>
        <time>2021-02-28T10:35:47.000Z</time>
      </trkpt>
      <trkpt lat="43.40546" lon="5.42735">
        <ele>331.82</ele>
        <time>2021-02-28T10:35:55.000Z</time>
      </trkpt>
      <trkpt lat="43.40544" lon="5.4271">
        <ele>332.43</ele>
        <time>2021-02-28T10:36:02.000Z</time>
      </trkpt>
      <trkpt lat="43.40532" lon="5.42689">
        <ele>334.59</ele>
        <time>2021-02-28T10:36:12.000Z</time>
      </trkpt>
      <trkpt lat="43.40516" lon="5.42676">
        <ele>336.27</ele>
        <time>2021-02-28T10:36:22.000Z</time>
      </trkpt>
      <trkpt lat="43.40499" lon="5.42663">
        <ele>337.19</ele>
        <time>2021-02-28T10:36:31.000Z</time>
      </trkpt>
      <trkpt lat="43.40486" lon="5.42644">
        <ele>338.89</ele>
        <time>2021-02-28T10:36:40.000Z</time>
      </trkpt>
      <trkpt lat="43.40474" lon="5.42623">
        <ele>341.33</ele>
        <time>2021-02-28T10:36:52.000Z</time>
      </trkpt>
      <trkpt lat="43.4046" lon="5.42606">
        <ele>344.66</ele>
        <time>2021-02-28T10:37:05.000Z</time>
      </trkpt>
      <trkpt lat="43.40441" lon="5.42605">
        <ele>345.06</ele>
        <time>2021-02-28T10:37:16.000Z</time>
      </trkpt>
      <trkpt lat="43.40422" lon="5.42611">
        <ele>345.87</ele>
        <time>2021-02-28T10:37:31.000Z</time>
      </trkpt>
      <trkpt lat="43.40404" lon="5.42618">
        <ele>346.88</ele>
        <time>2021-02-28T10:37:42.000Z</time>
      </trkpt>
      <trkpt lat="43.40391" lon="5.42636">
        <ele>347.03</ele>
        <time>2021-02-28T10:37:52.000Z</time>
      </trkpt>
      <trkpt lat="43.404" lon="5.42612">
        <ele>349.5</ele>
        <time>2021-02-28T10:38:10.000Z</time>
      </trkpt>
      <trkpt lat="43.40415" lon="5.42598">
        <ele>350.08</ele>
        <time>2021-02-28T10:38:18.000Z</time>
      </trkpt>
      <trkpt lat="43.40431" lon="5.42585">
        <ele>351.21</ele>
        <time>2021-02-28T10:38:28.000Z</time>
      </trkpt>
      <trkpt lat="43.40447" lon="5.42571">
        <ele>353.61</ele>
        <time>2021-02-28T10:38:41.000Z</time>
      </trkpt>
      <trkpt lat="43.40466" lon="5.42565">
        <ele>355.45</ele>
        <time>2021-02-28T10:38:52.000Z</time>
      </trkpt>
      <trkpt lat="43.40485" lon="5.42571">
        <ele>357.88</ele>
        <time>2021-02-28T10:39:02.000Z</time>
      </trkpt>
      <trkpt lat="43.40502" lon="5.42581">
        <ele>360.98</ele>
        <time>2021-02-28T10:39:13.000Z</time>
      </trkpt>
      <trkpt lat="43.40512" lon="5.4256">
        <ele>364</ele>
        <time>2021-02-28T10:39:28.000Z</time>
      </trkpt>
      <trkpt lat="43.40497" lon="5.42543">
        <ele>364.94</ele>
        <time>2021-02-28T10:39:41.000Z</time>
      </trkpt>
      <trkpt lat="43.40482" lon="5.42528">
        <ele>365.83</ele>
        <time>2021-02-28T10:39:52.000Z</time>
      </trkpt>
      <trkpt lat="43.40465" lon="5.42517">
        <ele>368.4</ele>
        <time>2021-02-28T10:40:06.000Z</time>
      </trkpt>
      <trkpt lat="43.40459" lon="5.42491">
        <ele>371.59</ele>
        <time>2021-02-28T10:40:21.000Z</time>
      </trkpt>
      <trkpt lat="43.40444" lon="5.42475">
        <ele>372.19</ele>
        <time>2021-02-28T10:40:31.000Z</time>
      </trkpt>
      <trkpt lat="43.40426" lon="5.42475">
        <ele>373.34</ele>
        <time>2021-02-28T10:40:41.000Z</time>
      </trkpt>
      <trkpt lat="43.40408" lon="5.42484">
        <ele>376.16</ele>
        <time>2021-02-28T10:40:52.000Z</time>
      </trkpt>
      <trkpt lat="43.40391" lon="5.42497">
        <ele>378.61</ele>
        <time>2021-02-28T10:41:02.000Z</time>
      </trkpt>
      <trkpt lat="43.40374" lon="5.42511">
        <ele>379.89</ele>
        <time>2021-02-28T10:41:13.000Z</time>
      </trkpt>
      <trkpt lat="43.40361" lon="5.42528">
        <ele>381.3</ele>
        <time>2021-02-28T10:41:23.000Z</time>
      </trkpt>
      <trkpt lat="43.40347" lon="5.42545">
        <ele>381.68</ele>
        <time>2021-02-28T10:44:45.000Z</time>
      </trkpt>
      <trkpt lat="43.40329" lon="5.4256">
        <ele>382.75</ele>
        <time>2021-02-28T10:44:55.000Z</time>
      </trkpt>
      <trkpt lat="43.4031" lon="5.42568">
        <ele>383.18</ele>
        <time>2021-02-28T10:45:04.000Z</time>
      </trkpt>
      <trkpt lat="43.40291" lon="5.42573">
        <ele>383.67</ele>
        <time>2021-02-28T10:45:12.000Z</time>
      </trkpt>
      <trkpt lat="43.40271" lon="5.42575">
        <ele>385.14</ele>
        <time>2021-02-28T10:45:21.000Z</time>
      </trkpt>
      <trkpt lat="43.40258" lon="5.42554">
        <ele>386.11</ele>
        <time>2021-02-28T10:45:30.000Z</time>
      </trkpt>
      <trkpt lat="43.40256" lon="5.42527">
        <ele>385.99</ele>
        <time>2021-02-28T10:45:36.000Z</time>
      </trkpt>
      <trkpt lat="43.4026" lon="5.425">
        <ele>387</ele>
        <time>2021-02-28T10:45:43.000Z</time>
      </trkpt>
      <trkpt lat="43.40262" lon="5.42475">
        <ele>387.86</ele>
        <time>2021-02-28T10:45:49.000Z</time>
      </trkpt>
      <trkpt lat="43.40258" lon="5.4245">
        <ele>388.27</ele>
        <time>2021-02-28T10:45:55.000Z</time>
      </trkpt>
      <trkpt lat="43.4025" lon="5.42426">
        <ele>388.42</ele>
        <time>2021-02-28T10:46:01.000Z</time>
      </trkpt>
      <trkpt lat="43.40246" lon="5.42399">
        <ele>389.17</ele>
        <time>2021-02-28T10:46:07.000Z</time>
      </trkpt>
      <trkpt lat="43.40239" lon="5.42373">
        <ele>390.93</ele>
        <time>2021-02-28T10:46:14.000Z</time>
      </trkpt>
      <trkpt lat="43.40222" lon="5.42357">
        <ele>392.15</ele>
        <time>2021-02-28T10:46:23.000Z</time>
      </trkpt>
      <trkpt lat="43.40204" lon="5.4235">
        <ele>391.23</ele>
        <time>2021-02-28T10:46:28.000Z</time>
      </trkpt>
      <trkpt lat="43.40186" lon="5.42356">
        <ele>390.69</ele>
        <time>2021-02-28T10:46:32.000Z</time>
      </trkpt>
      <trkpt lat="43.40163" lon="5.42363">
        <ele>389.86</ele>
        <time>2021-02-28T10:46:36.000Z</time>
      </trkpt>
      <trkpt lat="43.40145" lon="5.42357">
        <ele>390.68</ele>
        <time>2021-02-28T10:46:40.000Z</time>
      </trkpt>
      <trkpt lat="43.40148" lon="5.4233">
        <ele>393.1</ele>
        <time>2021-02-28T10:46:47.000Z</time>
      </trkpt>
      <trkpt lat="43.40155" lon="5.42302">
        <ele>394.31</ele>
        <time>2021-02-28T10:46:54.000Z</time>
      </trkpt>
      <trkpt lat="43.40155" lon="5.42277">
        <ele>394.03</ele>
        <time>2021-02-28T10:46:59.000Z</time>
      </trkpt>
      <trkpt lat="43.40155" lon="5.42252">
        <ele>393.23</ele>
        <time>2021-02-28T10:47:03.000Z</time>
      </trkpt>
      <trkpt lat="43.40154" lon="5.42226">
        <ele>391.99</ele>
        <time>2021-02-28T10:47:07.000Z</time>
      </trkpt>
      <trkpt lat="43.40152" lon="5.42198">
        <ele>390.23</ele>
        <time>2021-02-28T10:47:10.000Z</time>
      </trkpt>
      <trkpt lat="43.4015" lon="5.42171">
        <ele>388.93</ele>
        <time>2021-02-28T10:47:13.000Z</time>
      </trkpt>
      <trkpt lat="43.40148" lon="5.42142">
        <ele>388.1</ele>
        <time>2021-02-28T10:47:16.000Z</time>
      </trkpt>
      <trkpt lat="43.40145" lon="5.42112">
        <ele>387.79</ele>
        <time>2021-02-28T10:47:20.000Z</time>
      </trkpt>
      <trkpt lat="43.40141" lon="5.42083">
        <ele>385.86</ele>
        <time>2021-02-28T10:47:23.000Z</time>
      </trkpt>
      <trkpt lat="43.40143" lon="5.42051">
        <ele>384.72</ele>
        <time>2021-02-28T10:47:26.000Z</time>
      </trkpt>
      <trkpt lat="43.40142" lon="5.42021">
        <ele>383.82</ele>
        <time>2021-02-28T10:47:29.000Z</time>
      </trkpt>
      <trkpt lat="43.40141" lon="5.41992">
        <ele>382.65</ele>
        <time>2021-02-28T10:47:32.000Z</time>
      </trkpt>
      <trkpt lat="43.40141" lon="5.41964">
        <ele>382.14</ele>
        <time>2021-02-28T10:47:35.000Z</time>
      </trkpt>
      <trkpt lat="43.40142" lon="5.41936">
        <ele>381.45</ele>
        <time>2021-02-28T10:47:38.000Z</time>
      </trkpt>
      <trkpt lat="43.40142" lon="5.4191">
        <ele>379.17</ele>
        <time>2021-02-28T10:47:41.000Z</time>
      </trkpt>
      <trkpt lat="43.40143" lon="5.41885">
        <ele>376.95</ele>
        <time>2021-02-28T10:47:44.000Z</time>
      </trkpt>
      <trkpt lat="43.4014" lon="5.41857">
        <ele>373.88</ele>
        <time>2021-02-28T10:47:47.000Z</time>
      </trkpt>
      <trkpt lat="43.40134" lon="5.41833">
        <ele>369.98</ele>
        <time>2021-02-28T10:47:50.000Z</time>
      </trkpt>
      <trkpt lat="43.40125" lon="5.41802">
        <ele>364.52</ele>
        <time>2021-02-28T10:47:53.000Z</time>
      </trkpt>
      <trkpt lat="43.40118" lon="5.41773">
        <ele>361.76</ele>
        <time>2021-02-28T10:47:56.000Z</time>
      </trkpt>
      <trkpt lat="43.40114" lon="5.41748">
        <ele>359.88</ele>
        <time>2021-02-28T10:47:59.000Z</time>
      </trkpt>
      <trkpt lat="43.40103" lon="5.41728">
        <ele>358.21</ele>
        <time>2021-02-28T10:48:02.000Z</time>
      </trkpt>
      <trkpt lat="43.40099" lon="5.41696">
        <ele>356.84</ele>
        <time>2021-02-28T10:48:05.000Z</time>
      </trkpt>
      <trkpt lat="43.40102" lon="5.41666">
        <ele>355.48</ele>
        <time>2021-02-28T10:48:08.000Z</time>
      </trkpt>
      <trkpt lat="43.40114" lon="5.41636">
        <ele>353.83</ele>
        <time>2021-02-28T10:48:11.000Z</time>
      </trkpt>
      <trkpt lat="43.40128" lon="5.41613">
        <ele>352.66</ele>
        <time>2021-02-28T10:48:14.000Z</time>
      </trkpt>
      <trkpt lat="43.40142" lon="5.41591">
        <ele>353.07</ele>
        <time>2021-02-28T10:48:17.000Z</time>
      </trkpt>
      <trkpt lat="43.40151" lon="5.41568">
        <ele>354.18</ele>
        <time>2021-02-28T10:48:21.000Z</time>
      </trkpt>
      <trkpt lat="43.40155" lon="5.41541">
        <ele>356.33</ele>
        <time>2021-02-28T10:48:27.000Z</time>
      </trkpt>
      <trkpt lat="43.40139" lon="5.41555">
        <ele>358.85</ele>
        <time>2021-02-28T10:48:43.000Z</time>
      </trkpt>
      <trkpt lat="43.40124" lon="5.41569">
        <ele>360.2</ele>
        <time>2021-02-28T10:48:50.000Z</time>
      </trkpt>
      <trkpt lat="43.40107" lon="5.41581">
        <ele>362.2</ele>
        <time>2021-02-28T10:48:59.000Z</time>
      </trkpt>
      <trkpt lat="43.40091" lon="5.41592">
        <ele>364.15</ele>
        <time>2021-02-28T10:49:07.000Z</time>
      </trkpt>
      <trkpt lat="43.40075" lon="5.41608">
        <ele>366.05</ele>
        <time>2021-02-28T10:49:15.000Z</time>
      </trkpt>
      <trkpt lat="43.40062" lon="5.41628">
        <ele>367.05</ele>
        <time>2021-02-28T10:49:23.000Z</time>
      </trkpt>
      <trkpt lat="43.40053" lon="5.41651">
        <ele>368.6</ele>
        <time>2021-02-28T10:49:32.000Z</time>
      </trkpt>
      <trkpt lat="43.4004" lon="5.41673">
        <ele>370.3</ele>
        <time>2021-02-28T10:49:41.000Z</time>
      </trkpt>
      <trkpt lat="43.40028" lon="5.41693">
        <ele>372.56</ele>
        <time>2021-02-28T10:49:52.000Z</time>
      </trkpt>
      <trkpt lat="43.40012" lon="5.41709">
        <ele>374.86</ele>
        <time>2021-02-28T10:50:03.000Z</time>
      </trkpt>
      <trkpt lat="43.39999" lon="5.41728">
        <ele>377.34</ele>
        <time>2021-02-28T10:50:15.000Z</time>
      </trkpt>
      <trkpt lat="43.39998" lon="5.41753">
        <ele>379.82</ele>
        <time>2021-02-28T10:50:28.000Z</time>
      </trkpt>
      <trkpt lat="43.40002" lon="5.41779">
        <ele>381.78</ele>
        <time>2021-02-28T10:50:39.000Z</time>
      </trkpt>
      <trkpt lat="43.40005" lon="5.41804">
        <ele>384.56</ele>
        <time>2021-02-28T10:50:53.000Z</time>
      </trkpt>
      <trkpt lat="43.39998" lon="5.41827">
        <ele>387.01</ele>
        <time>2021-02-28T10:51:04.000Z</time>
      </trkpt>
      <trkpt lat="43.39978" lon="5.41827">
        <ele>389.63</ele>
        <time>2021-02-28T10:51:17.000Z</time>
      </trkpt>
      <trkpt lat="43.3996" lon="5.41829">
        <ele>392.06</ele>
        <time>2021-02-28T10:51:30.000Z</time>
      </trkpt>
      <trkpt lat="43.39959" lon="5.41855">
        <ele>394.39</ele>
        <time>2021-02-28T10:51:44.000Z</time>
      </trkpt>
      <trkpt lat="43.39962" lon="5.41881">
        <ele>396.75</ele>
        <time>2021-02-28T10:51:58.000Z</time>
      </trkpt>
      <trkpt lat="43.39959" lon="5.41906">
        <ele>398.43</ele>
        <time>2021-02-28T10:52:12.000Z</time>
      </trkpt>
      <trkpt lat="43.39958" lon="5.41933">
        <ele>400.56</ele>
        <time>2021-02-28T10:52:24.000Z</time>
      </trkpt>
      <trkpt lat="43.39952" lon="5.41956">
        <ele>402.86</ele>
        <time>2021-02-28T10:52:36.000Z</time>
      </trkpt>
      <trkpt lat="43.39947" lon="5.4198">
        <ele>404.43</ele>
        <time>2021-02-28T10:54:01.000Z</time>
      </trkpt>
      <trkpt lat="43.39941" lon="5.42005">
        <ele>405.97</ele>
        <time>2021-02-28T10:54:13.000Z</time>
      </trkpt>
      <trkpt lat="43.39935" lon="5.4203">
        <ele>408.05</ele>
        <time>2021-02-28T10:54:26.000Z</time>
      </trkpt>
      <trkpt lat="43.39927" lon="5.42053">
        <ele>410.34</ele>
        <time>2021-02-28T10:54:39.000Z</time>
      </trkpt>
      <trkpt lat="43.39908" lon="5.42061">
        <ele>412.79</ele>
        <time>2021-02-28T10:54:52.000Z</time>
      </trkpt>
      <trkpt lat="43.39892" lon="5.4205">
        <ele>415.09</ele>
        <time>2021-02-28T10:55:04.000Z</time>
      </trkpt>
      <trkpt lat="43.39877" lon="5.42034">
        <ele>416.96</ele>
        <time>2021-02-28T10:55:18.000Z</time>
      </trkpt>
      <trkpt lat="43.39857" lon="5.42029">
        <ele>418.53</ele>
        <time>2021-02-28T10:55:30.000Z</time>
      </trkpt>
      <trkpt lat="43.39838" lon="5.42031">
        <ele>419.39</ele>
        <time>2021-02-28T10:55:39.000Z</time>
      </trkpt>
      <trkpt lat="43.39821" lon="5.42043">
        <ele>420.31</ele>
        <time>2021-02-28T10:55:48.000Z</time>
      </trkpt>
      <trkpt lat="43.39803" lon="5.42057">
        <ele>420.53</ele>
        <time>2021-02-28T10:55:56.000Z</time>
      </trkpt>
      <trkpt lat="43.39788" lon="5.42074">
        <ele>420.63</ele>
        <time>2021-02-28T10:56:03.000Z</time>
      </trkpt>
      <trkpt lat="43.39772" lon="5.42091">
        <ele>421.07</ele>
        <time>2021-02-28T10:56:10.000Z</time>
      </trkpt>
      <trkpt lat="43.39761" lon="5.42111">
        <ele>422.41</ele>
        <time>2021-02-28T10:56:17.000Z</time>
      </trkpt>
      <trkpt lat="43.3975" lon="5.42132">
        <ele>423.81</ele>
        <time>2021-02-28T10:56:24.000Z</time>
      </trkpt>
      <trkpt lat="43.39738" lon="5.42151">
        <ele>424.96</ele>
        <time>2021-02-28T10:56:31.000Z</time>
      </trkpt>
      <trkpt lat="43.39725" lon="5.42172">
        <ele>426.14</ele>
        <time>2021-02-28T10:56:39.000Z</time>
      </trkpt>
      <trkpt lat="43.39706" lon="5.42171">
        <ele>426.48</ele>
        <time>2021-02-28T10:56:46.000Z</time>
      </trkpt>
      <trkpt lat="43.39693" lon="5.42149">
        <ele>427.77</ele>
        <time>2021-02-28T10:56:53.000Z</time>
      </trkpt>
      <trkpt lat="43.39683" lon="5.42127">
        <ele>428.23</ele>
        <time>2021-02-28T10:57:00.000Z</time>
      </trkpt>
      <trkpt lat="43.3967" lon="5.42108">
        <ele>429.45</ele>
        <time>2021-02-28T10:57:07.000Z</time>
      </trkpt>
      <trkpt lat="43.3965" lon="5.42115">
        <ele>430.13</ele>
        <time>2021-02-28T10:57:14.000Z</time>
      </trkpt>
      <trkpt lat="43.39637" lon="5.42134">
        <ele>431.03</ele>
        <time>2021-02-28T10:57:21.000Z</time>
      </trkpt>
      <trkpt lat="43.39624" lon="5.42154">
        <ele>432.76</ele>
        <time>2021-02-28T10:57:30.000Z</time>
      </trkpt>
      <trkpt lat="43.39608" lon="5.4217">
        <ele>435.22</ele>
        <time>2021-02-28T10:57:41.000Z</time>
      </trkpt>
      <trkpt lat="43.39589" lon="5.42175">
        <ele>437.66</ele>
        <time>2021-02-28T10:57:51.000Z</time>
      </trkpt>
      <trkpt lat="43.3957" lon="5.42178">
        <ele>439.45</ele>
        <time>2021-02-28T10:58:01.000Z</time>
      </trkpt>
      <trkpt lat="43.39558" lon="5.42199">
        <ele>441.11</ele>
        <time>2021-02-28T10:58:12.000Z</time>
      </trkpt>
      <trkpt lat="43.39557" lon="5.42225">
        <ele>442.34</ele>
        <time>2021-02-28T10:58:21.000Z</time>
      </trkpt>
      <trkpt lat="43.39553" lon="5.42252">
        <ele>443.98</ele>
        <time>2021-02-28T10:58:29.000Z</time>
      </trkpt>
      <trkpt lat="43.39549" lon="5.42278">
        <ele>444.87</ele>
        <time>2021-02-28T10:58:39.000Z</time>
      </trkpt>
      <trkpt lat="43.39543" lon="5.42303">
        <ele>446.62</ele>
        <time>2021-02-28T10:58:51.000Z</time>
      </trkpt>
      <trkpt lat="43.39537" lon="5.42327">
        <ele>448.23</ele>
        <time>2021-02-28T10:59:03.000Z</time>
      </trkpt>
      <trkpt lat="43.39533" lon="5.42352">
        <ele>449.71</ele>
        <time>2021-02-28T10:59:15.000Z</time>
      </trkpt>
      <trkpt lat="43.39531" lon="5.42377">
        <ele>451.47</ele>
        <time>2021-02-28T10:59:26.000Z</time>
      </trkpt>
      <trkpt lat="43.3953" lon="5.42404">
        <ele>452.32</ele>
        <time>2021-02-28T10:59:37.000Z</time>
      </trkpt>
      <trkpt lat="43.39526" lon="5.4243">
        <ele>453.84</ele>
        <time>2021-02-28T10:59:49.000Z</time>
      </trkpt>
      <trkpt lat="43.3952" lon="5.42456">
        <ele>455.28</ele>
        <time>2021-02-28T11:00:01.000Z</time>
      </trkpt>
      <trkpt lat="43.39506" lon="5.42472">
        <ele>457.04</ele>
        <time>2021-02-28T11:00:13.000Z</time>
      </trkpt>
      <trkpt lat="43.39488" lon="5.42485">
        <ele>458.16</ele>
        <time>2021-02-28T11:00:23.000Z</time>
      </trkpt>
      <trkpt lat="43.39475" lon="5.425">
        <ele>460.31</ele>
        <time>2021-02-28T11:00:34.000Z</time>
      </trkpt>
      <trkpt lat="43.39456" lon="5.42499">
        <ele>462.4</ele>
        <time>2021-02-28T11:00:48.000Z</time>
      </trkpt>
      <trkpt lat="43.39444" lon="5.42479">
        <ele>464.18</ele>
        <time>2021-02-28T11:00:59.000Z</time>
      </trkpt>
      <trkpt lat="43.39433" lon="5.42457">
        <ele>465.35</ele>
        <time>2021-02-28T11:01:11.000Z</time>
      </trkpt>
      <trkpt lat="43.39419" lon="5.4244">
        <ele>467.11</ele>
        <time>2021-02-28T11:01:23.000Z</time>
      </trkpt>
      <trkpt lat="43.39406" lon="5.42422">
        <ele>468.3</ele>
        <time>2021-02-28T11:01:34.000Z</time>
      </trkpt>
      <trkpt lat="43.39391" lon="5.42408">
        <ele>469.91</ele>
        <time>2021-02-28T11:01:45.000Z</time>
      </trkpt>
      <trkpt lat="43.39373" lon="5.42398">
        <ele>472.57</ele>
        <time>2021-02-28T11:01:56.000Z</time>
      </trkpt>
      <trkpt lat="43.39355" lon="5.42396">
        <ele>472.94</ele>
        <time>2021-02-28T11:02:07.000Z</time>
      </trkpt>
      <trkpt lat="43.39337" lon="5.42406">
        <ele>473.67</ele>
        <time>2021-02-28T11:02:18.000Z</time>
      </trkpt>
      <trkpt lat="43.39328" lon="5.42427">
        <ele>474.68</ele>
        <time>2021-02-28T11:02:29.000Z</time>
      </trkpt>
      <trkpt lat="43.39328" lon="5.42453">
        <ele>476.76</ele>
        <time>2021-02-28T11:02:39.000Z</time>
      </trkpt>
      <trkpt lat="43.39331" lon="5.42478">
        <ele>478.23</ele>
        <time>2021-02-28T11:02:50.000Z</time>
      </trkpt>
      <trkpt lat="43.39335" lon="5.42504">
        <ele>479.14</ele>
        <time>2021-02-28T11:03:01.000Z</time>
      </trkpt>
      <trkpt lat="43.39339" lon="5.42529">
        <ele>479.29</ele>
        <time>2021-02-28T11:03:11.000Z</time>
      </trkpt>
      <trkpt lat="43.39342" lon="5.42554">
        <ele>481.21</ele>
        <time>2021-02-28T11:03:21.000Z</time>
      </trkpt>
      <trkpt lat="43.39346" lon="5.4258">
        <ele>483.22</ele>
        <time>2021-02-28T11:03:31.000Z</time>
      </trkpt>
      <trkpt lat="43.3935" lon="5.42604">
        <ele>485.37</ele>
        <time>2021-02-28T11:03:42.000Z</time>
      </trkpt>
      <trkpt lat="43.39355" lon="5.42629">
        <ele>486.8</ele>
        <time>2021-02-28T11:03:54.000Z</time>
      </trkpt>
      <trkpt lat="43.39352" lon="5.42656">
        <ele>488.73</ele>
        <time>2021-02-28T11:04:06.000Z</time>
      </trkpt>
      <trkpt lat="43.39335" lon="5.4267">
        <ele>489.34</ele>
        <time>2021-02-28T11:04:16.000Z</time>
      </trkpt>
      <trkpt lat="43.39317" lon="5.42676">
        <ele>489.67</ele>
        <time>2021-02-28T11:04:25.000Z</time>
      </trkpt>
      <trkpt lat="43.39298" lon="5.42682">
        <ele>491</ele>
        <time>2021-02-28T11:04:34.000Z</time>
      </trkpt>
      <trkpt lat="43.3928" lon="5.42684">
        <ele>492.42</ele>
        <time>2021-02-28T11:04:43.000Z</time>
      </trkpt>
      <trkpt lat="43.39269" lon="5.42705">
        <ele>493.33</ele>
        <time>2021-02-28T11:04:53.000Z</time>
      </trkpt>
      <trkpt lat="43.39271" lon="5.4273">
        <ele>493.97</ele>
        <time>2021-02-28T11:05:04.000Z</time>
      </trkpt>
      <trkpt lat="43.39273" lon="5.42756">
        <ele>495.99</ele>
        <time>2021-02-28T11:05:16.000Z</time>
      </trkpt>
      <trkpt lat="43.39273" lon="5.42782">
        <ele>498.49</ele>
        <time>2021-02-28T11:05:28.000Z</time>
      </trkpt>
      <trkpt lat="43.39254" lon="5.42787">
        <ele>501.01</ele>
        <time>2021-02-28T11:05:41.000Z</time>
      </trkpt>
      <trkpt lat="43.39236" lon="5.42784">
        <ele>502.28</ele>
        <time>2021-02-28T11:05:53.000Z</time>
      </trkpt>
      <trkpt lat="43.39217" lon="5.42781">
        <ele>504.03</ele>
        <time>2021-02-28T11:06:05.000Z</time>
      </trkpt>
      <trkpt lat="43.39199" lon="5.42779">
        <ele>504.9</ele>
        <time>2021-02-28T11:06:16.000Z</time>
      </trkpt>
      <trkpt lat="43.39179" lon="5.42782">
        <ele>505.76</ele>
        <time>2021-02-28T11:06:28.000Z</time>
      </trkpt>
      <trkpt lat="43.39162" lon="5.42795">
        <ele>506.94</ele>
        <time>2021-02-28T11:06:39.000Z</time>
      </trkpt>
      <trkpt lat="43.39156" lon="5.42821">
        <ele>511.39</ele>
        <time>2021-02-28T11:06:51.000Z</time>
      </trkpt>
      <trkpt lat="43.39152" lon="5.42846">
        <ele>511.37</ele>
        <time>2021-02-28T11:07:02.000Z</time>
      </trkpt>
      <trkpt lat="43.39149" lon="5.42873">
        <ele>512.42</ele>
        <time>2021-02-28T11:07:13.000Z</time>
      </trkpt>
      <trkpt lat="43.39145" lon="5.42898">
        <ele>514.46</ele>
        <time>2021-02-28T11:07:25.000Z</time>
      </trkpt>
      <trkpt lat="43.39131" lon="5.42915">
        <ele>516.36</ele>
        <time>2021-02-28T11:07:35.000Z</time>
      </trkpt>
      <trkpt lat="43.39113" lon="5.42916">
        <ele>518.12</ele>
        <time>2021-02-28T11:07:46.000Z</time>
      </trkpt>
      <trkpt lat="43.39094" lon="5.42922">
        <ele>519.9</ele>
        <time>2021-02-28T11:07:58.000Z</time>
      </trkpt>
      <trkpt lat="43.39077" lon="5.42931">
        <ele>521.54</ele>
        <time>2021-02-28T11:08:09.000Z</time>
      </trkpt>
      <trkpt lat="43.39064" lon="5.42948">
        <ele>523.06</ele>
        <time>2021-02-28T11:08:19.000Z</time>
      </trkpt>
      <trkpt lat="43.39053" lon="5.42968">
        <ele>525.17</ele>
        <time>2021-02-28T11:08:30.000Z</time>
      </trkpt>
      <trkpt lat="43.39047" lon="5.42991">
        <ele>527.22</ele>
        <time>2021-02-28T11:08:41.000Z</time>
      </trkpt>
      <trkpt lat="43.39049" lon="5.43017">
        <ele>529.16</ele>
        <time>2021-02-28T11:08:52.000Z</time>
      </trkpt>
      <trkpt lat="43.39053" lon="5.43042">
        <ele>530.35</ele>
        <time>2021-02-28T11:09:03.000Z</time>
      </trkpt>
      <trkpt lat="43.39056" lon="5.43067">
        <ele>531.25</ele>
        <time>2021-02-28T11:10:03.000Z</time>
      </trkpt>
      <trkpt lat="43.3906" lon="5.43094">
        <ele>532.67</ele>
        <time>2021-02-28T11:10:13.000Z</time>
      </trkpt>
      <trkpt lat="43.39063" lon="5.4312">
        <ele>533.17</ele>
        <time>2021-02-28T11:10:21.000Z</time>
      </trkpt>
      <trkpt lat="43.39071" lon="5.43143">
        <ele>534.11</ele>
        <time>2021-02-28T11:10:28.000Z</time>
      </trkpt>
      <trkpt lat="43.39083" lon="5.43164">
        <ele>535.32</ele>
        <time>2021-02-28T11:10:35.000Z</time>
      </trkpt>
      <trkpt lat="43.39097" lon="5.43183">
        <ele>536.18</ele>
        <time>2021-02-28T11:10:43.000Z</time>
      </trkpt>
      <trkpt lat="43.39107" lon="5.43206">
        <ele>537.42</ele>
        <time>2021-02-28T11:10:52.000Z</time>
      </trkpt>
      <trkpt lat="43.39102" lon="5.43232">
        <ele>538.34</ele>
        <time>2021-02-28T11:11:01.000Z</time>
      </trkpt>
      <trkpt lat="43.39094" lon="5.43256">
        <ele>538.9</ele>
        <time>2021-02-28T11:11:10.000Z</time>
      </trkpt>
      <trkpt lat="43.39085" lon="5.43279">
        <ele>541.49</ele>
        <time>2021-02-28T11:11:19.000Z</time>
      </trkpt>
      <trkpt lat="43.39079" lon="5.43303">
        <ele>544.21</ele>
        <time>2021-02-28T11:11:28.000Z</time>
      </trkpt>
      <trkpt lat="43.39075" lon="5.43327">
        <ele>546.42</ele>
        <time>2021-02-28T11:11:37.000Z</time>
      </trkpt>
      <trkpt lat="43.39076" lon="5.43352">
        <ele>548.6</ele>
        <time>2021-02-28T11:11:46.000Z</time>
      </trkpt>
      <trkpt lat="43.39077" lon="5.43378">
        <ele>551</ele>
        <time>2021-02-28T11:11:55.000Z</time>
      </trkpt>
      <trkpt lat="43.39073" lon="5.43405">
        <ele>552.21</ele>
        <time>2021-02-28T11:12:05.000Z</time>
      </trkpt>
      <trkpt lat="43.39061" lon="5.43426">
        <ele>553.27</ele>
        <time>2021-02-28T11:12:14.000Z</time>
      </trkpt>
      <trkpt lat="43.39051" lon="5.43447">
        <ele>555.46</ele>
        <time>2021-02-28T11:12:23.000Z</time>
      </trkpt>
      <trkpt lat="43.39048" lon="5.43474">
        <ele>556.97</ele>
        <time>2021-02-28T11:12:32.000Z</time>
      </trkpt>
      <trkpt lat="43.39045" lon="5.43502">
        <ele>557.53</ele>
        <time>2021-02-28T11:12:41.000Z</time>
      </trkpt>
      <trkpt lat="43.39043" lon="5.43527">
        <ele>558.69</ele>
        <time>2021-02-28T11:12:49.000Z</time>
      </trkpt>
      <trkpt lat="43.39042" lon="5.43553">
        <ele>560.1</ele>
        <time>2021-02-28T11:12:58.000Z</time>
      </trkpt>
      <trkpt lat="43.39037" lon="5.4358">
        <ele>562.99</ele>
        <time>2021-02-28T11:13:07.000Z</time>
      </trkpt>
      <trkpt lat="43.39023" lon="5.43599">
        <ele>563.06</ele>
        <time>2021-02-28T11:13:16.000Z</time>
      </trkpt>
      <trkpt lat="43.39006" lon="5.43606">
        <ele>563.49</ele>
        <time>2021-02-28T11:13:23.000Z</time>
      </trkpt>
      <trkpt lat="43.38987" lon="5.43607">
        <ele>564.11</ele>
        <time>2021-02-28T11:13:30.000Z</time>
      </trkpt>
      <trkpt lat="43.38969" lon="5.43601">
        <ele>565.13</ele>
        <time>2021-02-28T11:13:37.000Z</time>
      </trkpt>
      <trkpt lat="43.38951" lon="5.43586">
        <ele>565.89</ele>
        <time>2021-02-28T11:13:45.000Z</time>
      </trkpt>
      <trkpt lat="43.38931" lon="5.43579">
        <ele>566.36</ele>
        <time>2021-02-28T11:13:52.000Z</time>
      </trkpt>
      <trkpt lat="43.38912" lon="5.43582">
        <ele>567.19</ele>
        <time>2021-02-28T11:13:59.000Z</time>
      </trkpt>
      <trkpt lat="43.38892" lon="5.43582">
        <ele>568.63</ele>
        <time>2021-02-28T11:14:06.000Z</time>
      </trkpt>
      <trkpt lat="43.38872" lon="5.43579">
        <ele>569.5</ele>
        <time>2021-02-28T11:14:13.000Z</time>
      </trkpt>
      <trkpt lat="43.38853" lon="5.43566">
        <ele>570.44</ele>
        <time>2021-02-28T11:14:20.000Z</time>
      </trkpt>
      <trkpt lat="43.3884" lon="5.43544">
        <ele>571.31</ele>
        <time>2021-02-28T11:14:27.000Z</time>
      </trkpt>
      <trkpt lat="43.38822" lon="5.4353">
        <ele>572.44</ele>
        <time>2021-02-28T11:14:34.000Z</time>
      </trkpt>
      <trkpt lat="43.38807" lon="5.43516">
        <ele>573.76</ele>
        <time>2021-02-28T11:14:41.000Z</time>
      </trkpt>
      <trkpt lat="43.38795" lon="5.43497">
        <ele>574.77</ele>
        <time>2021-02-28T11:14:47.000Z</time>
      </trkpt>
      <trkpt lat="43.38784" lon="5.43476">
        <ele>576.19</ele>
        <time>2021-02-28T11:14:53.000Z</time>
      </trkpt>
      <trkpt lat="43.38771" lon="5.43455">
        <ele>577.07</ele>
        <time>2021-02-28T11:15:00.000Z</time>
      </trkpt>
      <trkpt lat="43.38759" lon="5.43432">
        <ele>577.98</ele>
        <time>2021-02-28T11:15:07.000Z</time>
      </trkpt>
      <trkpt lat="43.38744" lon="5.43412">
        <ele>578.52</ele>
        <time>2021-02-28T11:15:14.000Z</time>
      </trkpt>
      <trkpt lat="43.38731" lon="5.43393">
        <ele>579.03</ele>
        <time>2021-02-28T11:15:20.000Z</time>
      </trkpt>
      <trkpt lat="43.38718" lon="5.43374">
        <ele>580.28</ele>
        <time>2021-02-28T11:15:26.000Z</time>
      </trkpt>
      <trkpt lat="43.38704" lon="5.43356">
        <ele>581.62</ele>
        <time>2021-02-28T11:15:33.000Z</time>
      </trkpt>
      <trkpt lat="43.38689" lon="5.43339">
        <ele>578.76</ele>
        <time>2021-02-28T11:15:40.000Z</time>
      </trkpt>
      <trkpt lat="43.38676" lon="5.43318">
        <ele>577.42</ele>
        <time>2021-02-28T11:15:45.000Z</time>
      </trkpt>
      <trkpt lat="43.38663" lon="5.433">
        <ele>574.9</ele>
        <time>2021-02-28T11:15:53.000Z</time>
      </trkpt>
      <trkpt lat="43.38651" lon="5.43279">
        <ele>572.9</ele>
        <time>2021-02-28T11:16:05.000Z</time>
      </trkpt>
      <trkpt lat="43.38638" lon="5.43261">
        <ele>571.81</ele>
        <time>2021-02-28T11:16:13.000Z</time>
      </trkpt>
      <trkpt lat="43.38624" lon="5.43242">
        <ele>570.86</ele>
        <time>2021-02-28T11:16:20.000Z</time>
      </trkpt>
      <trkpt lat="43.38613" lon="5.4322">
        <ele>568.41</ele>
        <time>2021-02-28T11:16:27.000Z</time>
      </trkpt>
      <trkpt lat="43.38606" lon="5.43196">
        <ele>568.1</ele>
        <time>2021-02-28T11:16:34.000Z</time>
      </trkpt>
      <trkpt lat="43.38601" lon="5.43172">
        <ele>568.86</ele>
        <time>2021-02-28T11:16:44.000Z</time>
      </trkpt>
      <trkpt lat="43.38584" lon="5.4316">
        <ele>565.39</ele>
        <time>2021-02-28T11:17:15.000Z</time>
      </trkpt>
      <trkpt lat="43.38566" lon="5.43165">
        <ele>559.8</ele>
        <time>2021-02-28T11:17:23.000Z</time>
      </trkpt>
      <trkpt lat="43.3855" lon="5.43179">
        <ele>552.13</ele>
        <time>2021-02-28T11:17:32.000Z</time>
      </trkpt>
      <trkpt lat="43.38532" lon="5.43185">
        <ele>544.32</ele>
        <time>2021-02-28T11:17:46.000Z</time>
      </trkpt>
      <trkpt lat="43.38511" lon="5.43186">
        <ele>539.19</ele>
        <time>2021-02-28T11:17:54.000Z</time>
      </trkpt>
      <trkpt lat="43.38492" lon="5.4318">
        <ele>534.48</ele>
        <time>2021-02-28T11:18:03.000Z</time>
      </trkpt>
      <trkpt lat="43.38472" lon="5.43178">
        <ele>530.51</ele>
        <time>2021-02-28T11:18:11.000Z</time>
      </trkpt>
      <trkpt lat="43.38454" lon="5.43176">
        <ele>526.93</ele>
        <time>2021-02-28T11:18:19.000Z</time>
      </trkpt>
      <trkpt lat="43.38436" lon="5.43178">
        <ele>521.84</ele>
        <time>2021-02-28T11:18:29.000Z</time>
      </trkpt>
      <trkpt lat="43.38416" lon="5.43183">
        <ele>517.12</ele>
        <time>2021-02-28T11:18:38.000Z</time>
      </trkpt>
      <trkpt lat="43.38397" lon="5.43184">
        <ele>513.35</ele>
        <time>2021-02-28T11:18:50.000Z</time>
      </trkpt>
      <trkpt lat="43.38379" lon="5.43191">
        <ele>509.23</ele>
        <time>2021-02-28T11:19:04.000Z</time>
      </trkpt>
      <trkpt lat="43.38364" lon="5.43205">
        <ele>505.75</ele>
        <time>2021-02-28T11:19:15.000Z</time>
      </trkpt>
      <trkpt lat="43.38346" lon="5.43215">
        <ele>500.09</ele>
        <time>2021-02-28T11:19:28.000Z</time>
      </trkpt>
      <trkpt lat="43.3833" lon="5.43228">
        <ele>493.69</ele>
        <time>2021-02-28T11:20:30.000Z</time>
      </trkpt>
      <trkpt lat="43.38315" lon="5.43244">
        <ele>488.06</ele>
        <time>2021-02-28T11:20:45.000Z</time>
      </trkpt>
      <trkpt lat="43.38299" lon="5.43257">
        <ele>482.63</ele>
        <time>2021-02-28T11:20:57.000Z</time>
      </trkpt>
      <trkpt lat="43.38285" lon="5.43273">
        <ele>477.85</ele>
        <time>2021-02-28T11:21:08.000Z</time>
      </trkpt>
      <trkpt lat="43.38269" lon="5.43284">
        <ele>475.15</ele>
        <time>2021-02-28T11:21:16.000Z</time>
      </trkpt>
      <trkpt lat="43.38254" lon="5.43301">
        <ele>472.72</ele>
        <time>2021-02-28T11:21:23.000Z</time>
      </trkpt>
      <trkpt lat="43.38237" lon="5.43314">
        <ele>469.94</ele>
        <time>2021-02-28T11:21:30.000Z</time>
      </trkpt>
      <trkpt lat="43.38221" lon="5.43326">
        <ele>468.23</ele>
        <time>2021-02-28T11:21:37.000Z</time>
      </trkpt>
      <trkpt lat="43.38205" lon="5.4334">
        <ele>463.69</ele>
        <time>2021-02-28T11:21:49.000Z</time>
      </trkpt>
      <trkpt lat="43.38189" lon="5.43351">
        <ele>459.98</ele>
        <time>2021-02-28T11:21:58.000Z</time>
      </trkpt>
      <trkpt lat="43.38174" lon="5.43365">
        <ele>457.59</ele>
        <time>2021-02-28T11:22:06.000Z</time>
      </trkpt>
      <trkpt lat="43.38158" lon="5.43352">
        <ele>454.99</ele>
        <time>2021-02-28T11:22:15.000Z</time>
      </trkpt>
      <trkpt lat="43.38148" lon="5.43329">
        <ele>454.17</ele>
        <time>2021-02-28T11:22:21.000Z</time>
      </trkpt>
      <trkpt lat="43.38138" lon="5.43306">
        <ele>453.11</ele>
        <time>2021-02-28T11:22:27.000Z</time>
      </trkpt>
      <trkpt lat="43.38127" lon="5.43282">
        <ele>452.23</ele>
        <time>2021-02-28T11:22:34.000Z</time>
      </trkpt>
      <trkpt lat="43.38108" lon="5.43277">
        <ele>447.38</ele>
        <time>2021-02-28T11:22:42.000Z</time>
      </trkpt>
      <trkpt lat="43.38109" lon="5.43251">
        <ele>445.8</ele>
        <time>2021-02-28T11:22:48.000Z</time>
      </trkpt>
      <trkpt lat="43.3812" lon="5.43231">
        <ele>444.75</ele>
        <time>2021-02-28T11:22:53.000Z</time>
      </trkpt>
      <trkpt lat="43.38134" lon="5.43215">
        <ele>442.8</ele>
        <time>2021-02-28T11:22:58.000Z</time>
      </trkpt>
      <trkpt lat="43.38151" lon="5.43202">
        <ele>441.47</ele>
        <time>2021-02-28T11:23:04.000Z</time>
      </trkpt>
      <trkpt lat="43.38165" lon="5.43185">
        <ele>439.07</ele>
        <time>2021-02-28T11:23:09.000Z</time>
      </trkpt>
      <trkpt lat="43.38179" lon="5.43167">
        <ele>437.78</ele>
        <time>2021-02-28T11:23:15.000Z</time>
      </trkpt>
      <trkpt lat="43.38193" lon="5.43147">
        <ele>435.53</ele>
        <time>2021-02-28T11:23:22.000Z</time>
      </trkpt>
      <trkpt lat="43.38204" lon="5.43126">
        <ele>434.85</ele>
        <time>2021-02-28T11:23:27.000Z</time>
      </trkpt>
      <trkpt lat="43.38201" lon="5.43101">
        <ele>435.31</ele>
        <time>2021-02-28T11:23:34.000Z</time>
      </trkpt>
      <trkpt lat="43.38183" lon="5.43103">
        <ele>432.2</ele>
        <time>2021-02-28T11:23:41.000Z</time>
      </trkpt>
      <trkpt lat="43.38163" lon="5.43097">
        <ele>429.98</ele>
        <time>2021-02-28T11:23:47.000Z</time>
      </trkpt>
      <trkpt lat="43.38146" lon="5.43082">
        <ele>428.45</ele>
        <time>2021-02-28T11:23:51.000Z</time>
      </trkpt>
      <trkpt lat="43.38127" lon="5.4307">
        <ele>426.11</ele>
        <time>2021-02-28T11:23:56.000Z</time>
      </trkpt>
      <trkpt lat="43.38109" lon="5.43053">
        <ele>423.28</ele>
        <time>2021-02-28T11:24:01.000Z</time>
      </trkpt>
      <trkpt lat="43.38106" lon="5.43024">
        <ele>422.2</ele>
        <time>2021-02-28T11:24:06.000Z</time>
      </trkpt>
      <trkpt lat="43.38103" lon="5.42997">
        <ele>420.42</ele>
        <time>2021-02-28T11:24:11.000Z</time>
      </trkpt>
      <trkpt lat="43.38096" lon="5.42972">
        <ele>418.93</ele>
        <time>2021-02-28T11:24:16.000Z</time>
      </trkpt>
      <trkpt lat="43.38083" lon="5.42952">
        <ele>416.69</ele>
        <time>2021-02-28T11:24:23.000Z</time>
      </trkpt>
      <trkpt lat="43.38067" lon="5.42965">
        <ele>412.53</ele>
        <time>2021-02-28T11:24:32.000Z</time>
      </trkpt>
      <trkpt lat="43.38062" lon="5.42997">
        <ele>409.67</ele>
        <time>2021-02-28T11:25:02.000Z</time>
      </trkpt>
      <trkpt lat="43.38043" lon="5.43019">
        <ele>407.07</ele>
        <time>2021-02-28T11:25:06.000Z</time>
      </trkpt>
      <trkpt lat="43.38028" lon="5.43043">
        <ele>404.59</ele>
        <time>2021-02-28T11:25:09.000Z</time>
      </trkpt>
      <trkpt lat="43.38009" lon="5.4306">
        <ele>402.68</ele>
        <time>2021-02-28T11:25:12.000Z</time>
      </trkpt>
      <trkpt lat="43.37987" lon="5.43067">
        <ele>400.51</ele>
        <time>2021-02-28T11:25:15.000Z</time>
      </trkpt>
      <trkpt lat="43.37964" lon="5.43062">
        <ele>399.03</ele>
        <time>2021-02-28T11:25:18.000Z</time>
      </trkpt>
      <trkpt lat="43.37942" lon="5.43057">
        <ele>397.16</ele>
        <time>2021-02-28T11:25:21.000Z</time>
      </trkpt>
      <trkpt lat="43.37923" lon="5.43063">
        <ele>395.76</ele>
        <time>2021-02-28T11:25:24.000Z</time>
      </trkpt>
      <trkpt lat="43.37909" lon="5.43084">
        <ele>394.4</ele>
        <time>2021-02-28T11:25:27.000Z</time>
      </trkpt>
      <trkpt lat="43.37897" lon="5.43109">
        <ele>392.92</ele>
        <time>2021-02-28T11:25:30.000Z</time>
      </trkpt>
      <trkpt lat="43.37885" lon="5.43135">
        <ele>390.41</ele>
        <time>2021-02-28T11:25:33.000Z</time>
      </trkpt>
      <trkpt lat="43.37873" lon="5.43159">
        <ele>388.18</ele>
        <time>2021-02-28T11:25:36.000Z</time>
      </trkpt>
      <trkpt lat="43.37857" lon="5.43184">
        <ele>385.42</ele>
        <time>2021-02-28T11:25:40.000Z</time>
      </trkpt>
      <trkpt lat="43.37844" lon="5.43203">
        <ele>383.3</ele>
        <time>2021-02-28T11:25:43.000Z</time>
      </trkpt>
      <trkpt lat="43.37833" lon="5.43225">
        <ele>381.65</ele>
        <time>2021-02-28T11:25:46.000Z</time>
      </trkpt>
      <trkpt lat="43.37822" lon="5.43247">
        <ele>379.86</ele>
        <time>2021-02-28T11:25:50.000Z</time>
      </trkpt>
      <trkpt lat="43.37811" lon="5.43266">
        <ele>377.85</ele>
        <time>2021-02-28T11:25:54.000Z</time>
      </trkpt>
      <trkpt lat="43.378" lon="5.43295">
        <ele>376.13</ele>
        <time>2021-02-28T11:25:58.000Z</time>
      </trkpt>
      <trkpt lat="43.37794" lon="5.43327">
        <ele>374.75</ele>
        <time>2021-02-28T11:26:02.000Z</time>
      </trkpt>
      <trkpt lat="43.37787" lon="5.43352">
        <ele>373.4</ele>
        <time>2021-02-28T11:26:06.000Z</time>
      </trkpt>
      <trkpt lat="43.37778" lon="5.43379">
        <ele>371.61</ele>
        <time>2021-02-28T11:26:11.000Z</time>
      </trkpt>
      <trkpt lat="43.37768" lon="5.43403">
        <ele>370.9</ele>
        <time>2021-02-28T11:26:15.000Z</time>
      </trkpt>
      <trkpt lat="43.37755" lon="5.4343">
        <ele>369.9</ele>
        <time>2021-02-28T11:26:19.000Z</time>
      </trkpt>
      <trkpt lat="43.37742" lon="5.43456">
        <ele>368.31</ele>
        <time>2021-02-28T11:26:23.000Z</time>
      </trkpt>
      <trkpt lat="43.37731" lon="5.43478">
        <ele>367.04</ele>
        <time>2021-02-28T11:26:26.000Z</time>
      </trkpt>
      <trkpt lat="43.37717" lon="5.43503">
        <ele>365.47</ele>
        <time>2021-02-28T11:26:30.000Z</time>
      </trkpt>
      <trkpt lat="43.37698" lon="5.43517">
        <ele>364.32</ele>
        <time>2021-02-28T11:26:34.000Z</time>
      </trkpt>
      <trkpt lat="43.37679" lon="5.43532">
        <ele>363.07</ele>
        <time>2021-02-28T11:26:38.000Z</time>
      </trkpt>
      <trkpt lat="43.3766" lon="5.43548">
        <ele>361.26</ele>
        <time>2021-02-28T11:26:42.000Z</time>
      </trkpt>
      <trkpt lat="43.37644" lon="5.43563">
        <ele>359.67</ele>
        <time>2021-02-28T11:26:45.000Z</time>
      </trkpt>
      <trkpt lat="43.37628" lon="5.43578">
        <ele>357.6</ele>
        <time>2021-02-28T11:26:48.000Z</time>
      </trkpt>
      <trkpt lat="43.37617" lon="5.43603">
        <ele>355.26</ele>
        <time>2021-02-28T11:26:52.000Z</time>
      </trkpt>
      <trkpt lat="43.37612" lon="5.43631">
        <ele>352.11</ele>
        <time>2021-02-28T11:26:56.000Z</time>
      </trkpt>
      <trkpt lat="43.37604" lon="5.43656">
        <ele>349.74</ele>
        <time>2021-02-28T11:27:00.000Z</time>
      </trkpt>
      <trkpt lat="43.37593" lon="5.43678">
        <ele>347.68</ele>
        <time>2021-02-28T11:27:03.000Z</time>
      </trkpt>
      <trkpt lat="43.37582" lon="5.43703">
        <ele>345.94</ele>
        <time>2021-02-28T11:27:06.000Z</time>
      </trkpt>
      <trkpt lat="43.37566" lon="5.43722">
        <ele>343.71</ele>
        <time>2021-02-28T11:27:09.000Z</time>
      </trkpt>
      <trkpt lat="43.37548" lon="5.43741">
        <ele>341.64</ele>
        <time>2021-02-28T11:27:12.000Z</time>
      </trkpt>
      <trkpt lat="43.37529" lon="5.4376">
        <ele>339.55</ele>
        <time>2021-02-28T11:27:15.000Z</time>
      </trkpt>
      <trkpt lat="43.37512" lon="5.43776">
        <ele>337.25</ele>
        <time>2021-02-28T11:27:18.000Z</time>
      </trkpt>
      <trkpt lat="43.37498" lon="5.43794">
        <ele>334.48</ele>
        <time>2021-02-28T11:27:22.000Z</time>
      </trkpt>
      <trkpt lat="43.37483" lon="5.43815">
        <ele>332.16</ele>
        <time>2021-02-28T11:27:29.000Z</time>
      </trkpt>
      <trkpt lat="43.37471" lon="5.43836">
        <ele>330.1</ele>
        <time>2021-02-28T11:27:34.000Z</time>
      </trkpt>
      <trkpt lat="43.37461" lon="5.43858">
        <ele>328.29</ele>
        <time>2021-02-28T11:27:40.000Z</time>
      </trkpt>
      <trkpt lat="43.37447" lon="5.43878">
        <ele>326.55</ele>
        <time>2021-02-28T11:27:45.000Z</time>
      </trkpt>
      <trkpt lat="43.37434" lon="5.43896">
        <ele>324.88</ele>
        <time>2021-02-28T11:27:49.000Z</time>
      </trkpt>
      <trkpt lat="43.37423" lon="5.4392">
        <ele>324.08</ele>
        <time>2021-02-28T11:27:52.000Z</time>
      </trkpt>
      <trkpt lat="43.37413" lon="5.43946">
        <ele>323.09</ele>
        <time>2021-02-28T11:27:55.000Z</time>
      </trkpt>
      <trkpt lat="43.37404" lon="5.43973">
        <ele>321.53</ele>
        <time>2021-02-28T11:27:58.000Z</time>
      </trkpt>
      <trkpt lat="43.37391" lon="5.43994">
        <ele>319.74</ele>
        <time>2021-02-28T11:28:01.000Z</time>
      </trkpt>
      <trkpt lat="43.37375" lon="5.44012">
        <ele>317.99</ele>
        <time>2021-02-28T11:28:04.000Z</time>
      </trkpt>
      <trkpt lat="43.37358" lon="5.44028">
        <ele>316.86</ele>
        <time>2021-02-28T11:28:07.000Z</time>
      </trkpt>
      <trkpt lat="43.37338" lon="5.44016">
        <ele>315.33</ele>
        <time>2021-02-28T11:28:11.000Z</time>
      </trkpt>
      <trkpt lat="43.37325" lon="5.43997">
        <ele>314.23</ele>
        <time>2021-02-28T11:28:14.000Z</time>
      </trkpt>
      <trkpt lat="43.37307" lon="5.4398">
        <ele>312.49</ele>
        <time>2021-02-28T11:28:17.000Z</time>
      </trkpt>
      <trkpt lat="43.37285" lon="5.43962">
        <ele>309.79</ele>
        <time>2021-02-28T11:28:20.000Z</time>
      </trkpt>
      <trkpt lat="43.37264" lon="5.43949">
        <ele>307.79</ele>
        <time>2021-02-28T11:28:23.000Z</time>
      </trkpt>
      <trkpt lat="43.37244" lon="5.43948">
        <ele>306.21</ele>
        <time>2021-02-28T11:28:26.000Z</time>
      </trkpt>
      <trkpt lat="43.37221" lon="5.43955">
        <ele>303.72</ele>
        <time>2021-02-28T11:28:29.000Z</time>
      </trkpt>
      <trkpt lat="43.37201" lon="5.43962">
        <ele>301.9</ele>
        <time>2021-02-28T11:28:32.000Z</time>
      </trkpt>
      <trkpt lat="43.37183" lon="5.43956">
        <ele>299.95</ele>
        <time>2021-02-28T11:28:35.000Z</time>
      </trkpt>
      <trkpt lat="43.37166" lon="5.43934">
        <ele>297.64</ele>
        <time>2021-02-28T11:28:39.000Z</time>
      </trkpt>
      <trkpt lat="43.37148" lon="5.43951">
        <ele>296.17</ele>
        <time>2021-02-28T11:28:43.000Z</time>
      </trkpt>
      <trkpt lat="43.37144" lon="5.43979">
        <ele>294.64</ele>
        <time>2021-02-28T11:28:46.000Z</time>
      </trkpt>
      <trkpt lat="43.37138" lon="5.44007">
        <ele>293.92</ele>
        <time>2021-02-28T11:28:49.000Z</time>
      </trkpt>
      <trkpt lat="43.37128" lon="5.44032">
        <ele>293.14</ele>
        <time>2021-02-28T11:28:52.000Z</time>
      </trkpt>
      <trkpt lat="43.37118" lon="5.44056">
        <ele>291.95</ele>
        <time>2021-02-28T11:28:55.000Z</time>
      </trkpt>
      <trkpt lat="43.37107" lon="5.44082">
        <ele>290.32</ele>
        <time>2021-02-28T11:28:58.000Z</time>
      </trkpt>
      <trkpt lat="43.37097" lon="5.44111">
        <ele>289.42</ele>
        <time>2021-02-28T11:29:01.000Z</time>
      </trkpt>
      <trkpt lat="43.37087" lon="5.44138">
        <ele>288.53</ele>
        <time>2021-02-28T11:29:04.000Z</time>
      </trkpt>
      <trkpt lat="43.37077" lon="5.44169">
        <ele>286.97</ele>
        <time>2021-02-28T11:29:07.000Z</time>
      </trkpt>
      <trkpt lat="43.37068" lon="5.442">
        <ele>285.19</ele>
        <time>2021-02-28T11:29:10.000Z</time>
      </trkpt>
      <trkpt lat="43.37057" lon="5.44229">
        <ele>283.29</ele>
        <time>2021-02-28T11:29:13.000Z</time>
      </trkpt>
      <trkpt lat="43.37036" lon="5.44243">
        <ele>281.7</ele>
        <time>2021-02-28T11:29:16.000Z</time>
      </trkpt>
      <trkpt lat="43.37011" lon="5.44242">
        <ele>280.78</ele>
        <time>2021-02-28T11:29:19.000Z</time>
      </trkpt>
      <trkpt lat="43.36985" lon="5.44236">
        <ele>278.15</ele>
        <time>2021-02-28T11:29:22.000Z</time>
      </trkpt>
      <trkpt lat="43.36966" lon="5.44231">
        <ele>276.85</ele>
        <time>2021-02-28T11:29:24.000Z</time>
      </trkpt>
      <trkpt lat="43.36948" lon="5.44226">
        <ele>274.86</ele>
        <time>2021-02-28T11:29:26.000Z</time>
      </trkpt>
      <trkpt lat="43.36922" lon="5.4422">
        <ele>271.61</ele>
        <time>2021-02-28T11:29:29.000Z</time>
      </trkpt>
      <trkpt lat="43.36898" lon="5.44222">
        <ele>269.13</ele>
        <time>2021-02-28T11:29:32.000Z</time>
      </trkpt>
      <trkpt lat="43.36877" lon="5.44221">
        <ele>267.35</ele>
        <time>2021-02-28T11:29:36.000Z</time>
      </trkpt>
      <trkpt lat="43.36858" lon="5.4422">
        <ele>266.26</ele>
        <time>2021-02-28T11:29:39.000Z</time>
      </trkpt>
      <trkpt lat="43.36837" lon="5.44217">
        <ele>265.22</ele>
        <time>2021-02-28T11:29:42.000Z</time>
      </trkpt>
      <trkpt lat="43.36816" lon="5.44211">
        <ele>263.09</ele>
        <time>2021-02-28T11:29:45.000Z</time>
      </trkpt>
      <trkpt lat="43.36793" lon="5.44214">
        <ele>260.93</ele>
        <time>2021-02-28T11:29:48.000Z</time>
      </trkpt>
      <trkpt lat="43.36776" lon="5.4423">
        <ele>258.43</ele>
        <time>2021-02-28T11:29:51.000Z</time>
      </trkpt>
      <trkpt lat="43.36766" lon="5.44259">
        <ele>255.34</ele>
        <time>2021-02-28T11:29:54.000Z</time>
      </trkpt>
      <trkpt lat="43.36749" lon="5.44282">
        <ele>251.28</ele>
        <time>2021-02-28T11:29:57.000Z</time>
      </trkpt>
      <trkpt lat="43.36734" lon="5.44299">
        <ele>248.37</ele>
        <time>2021-02-28T11:29:59.000Z</time>
      </trkpt>
      <trkpt lat="43.36721" lon="5.4432">
        <ele>245.73</ele>
        <time>2021-02-28T11:30:01.000Z</time>
      </trkpt>
      <trkpt lat="43.36709" lon="5.44341">
        <ele>243.89</ele>
        <time>2021-02-28T11:30:03.000Z</time>
      </trkpt>
      <trkpt lat="43.36697" lon="5.4436">
        <ele>242.3</ele>
        <time>2021-02-28T11:30:05.000Z</time>
      </trkpt>
      <trkpt lat="43.36681" lon="5.4439">
        <ele>239.81</ele>
        <time>2021-02-28T11:30:08.000Z</time>
      </trkpt>
      <trkpt lat="43.36669" lon="5.4442">
        <ele>237.99</ele>
        <time>2021-02-28T11:30:11.000Z</time>
      </trkpt>
      <trkpt lat="43.36655" lon="5.44447">
        <ele>234.25</ele>
        <time>2021-02-28T11:30:14.000Z</time>
      </trkpt>
      <trkpt lat="43.36636" lon="5.44471">
        <ele>230.27</ele>
        <time>2021-02-28T11:30:17.000Z</time>
      </trkpt>
      <trkpt lat="43.36617" lon="5.44491">
        <ele>226.79</ele>
        <time>2021-02-28T11:30:20.000Z</time>
      </trkpt>
      <trkpt lat="43.36599" lon="5.44509">
        <ele>223.24</ele>
        <time>2021-02-28T11:30:23.000Z</time>
      </trkpt>
      <trkpt lat="43.36582" lon="5.44531">
        <ele>219.5</ele>
        <time>2021-02-28T11:30:26.000Z</time>
      </trkpt>
      <trkpt lat="43.36565" lon="5.4455">
        <ele>217.52</ele>
        <time>2021-02-28T11:30:29.000Z</time>
      </trkpt>
      <trkpt lat="43.36551" lon="5.44577">
        <ele>214.59</ele>
        <time>2021-02-28T11:30:33.000Z</time>
      </trkpt>
      <trkpt lat="43.36539" lon="5.44605">
        <ele>210.91</ele>
        <time>2021-02-28T11:30:37.000Z</time>
      </trkpt>
      <trkpt lat="43.36525" lon="5.44624">
        <ele>208.21</ele>
        <time>2021-02-28T11:30:40.000Z</time>
      </trkpt>
      <trkpt lat="43.36506" lon="5.44639">
        <ele>205.05</ele>
        <time>2021-02-28T11:30:43.000Z</time>
      </trkpt>
      <trkpt lat="43.36487" lon="5.44658">
        <ele>200.42</ele>
        <time>2021-02-28T11:30:47.000Z</time>
      </trkpt>
      <trkpt lat="43.36468" lon="5.44669">
        <ele>197.2</ele>
        <time>2021-02-28T11:30:51.000Z</time>
      </trkpt>
      <trkpt lat="43.36449" lon="5.44662">
        <ele>196.3</ele>
        <time>2021-02-28T11:30:54.000Z</time>
      </trkpt>
      <trkpt lat="43.3643" lon="5.44655">
        <ele>196.6</ele>
        <time>2021-02-28T11:30:57.000Z</time>
      </trkpt>
      <trkpt lat="43.36412" lon="5.4465">
        <ele>196.32</ele>
        <time>2021-02-28T11:31:00.000Z</time>
      </trkpt>
      <trkpt lat="43.36389" lon="5.44641">
        <ele>195.67</ele>
        <time>2021-02-28T11:31:04.000Z</time>
      </trkpt>
      <trkpt lat="43.36371" lon="5.44635">
        <ele>195.37</ele>
        <time>2021-02-28T11:31:07.000Z</time>
      </trkpt>
      <trkpt lat="43.36354" lon="5.44624">
        <ele>194.48</ele>
        <time>2021-02-28T11:31:10.000Z</time>
      </trkpt>
      <trkpt lat="43.36337" lon="5.4461">
        <ele>194.2</ele>
        <time>2021-02-28T11:31:13.000Z</time>
      </trkpt>
      <trkpt lat="43.3632" lon="5.44592">
        <ele>193.44</ele>
        <time>2021-02-28T11:31:16.000Z</time>
      </trkpt>
      <trkpt lat="43.36303" lon="5.44575">
        <ele>192.76</ele>
        <time>2021-02-28T11:31:19.000Z</time>
      </trkpt>
      <trkpt lat="43.36286" lon="5.4456">
        <ele>192.22</ele>
        <time>2021-02-28T11:31:22.000Z</time>
      </trkpt>
      <trkpt lat="43.3627" lon="5.44545">
        <ele>191.67</ele>
        <time>2021-02-28T11:31:25.000Z</time>
      </trkpt>
      <trkpt lat="43.36253" lon="5.44528">
        <ele>190.73</ele>
        <time>2021-02-28T11:31:28.000Z</time>
      </trkpt>
      <trkpt lat="43.36236" lon="5.44512">
        <ele>189.61</ele>
        <time>2021-02-28T11:31:31.000Z</time>
      </trkpt>
      <trkpt lat="43.36219" lon="5.4449">
        <ele>188.83</ele>
        <time>2021-02-28T11:31:34.000Z</time>
      </trkpt>
      <trkpt lat="43.36201" lon="5.44468">
        <ele>188.47</ele>
        <time>2021-02-28T11:31:37.000Z</time>
      </trkpt>
      <trkpt lat="43.36184" lon="5.44446">
        <ele>185.68</ele>
        <time>2021-02-28T11:31:40.000Z</time>
      </trkpt>
      <trkpt lat="43.36166" lon="5.44423">
        <ele>184.91</ele>
        <time>2021-02-28T11:31:43.000Z</time>
      </trkpt>
      <trkpt lat="43.36147" lon="5.44401">
        <ele>183.55</ele>
        <time>2021-02-28T11:31:46.000Z</time>
      </trkpt>
      <trkpt lat="43.36125" lon="5.44381">
        <ele>181.76</ele>
        <time>2021-02-28T11:31:49.000Z</time>
      </trkpt>
      <trkpt lat="43.3611" lon="5.44367">
        <ele>180.34</ele>
        <time>2021-02-28T11:31:51.000Z</time>
      </trkpt>
      <trkpt lat="43.36095" lon="5.44349">
        <ele>179.58</ele>
        <time>2021-02-28T11:31:53.000Z</time>
      </trkpt>
      <trkpt lat="43.36079" lon="5.44332">
        <ele>178.55</ele>
        <time>2021-02-28T11:31:55.000Z</time>
      </trkpt>
      <trkpt lat="43.36063" lon="5.44313">
        <ele>177.54</ele>
        <time>2021-02-28T11:31:57.000Z</time>
      </trkpt>
      <trkpt lat="43.36046" lon="5.44296">
        <ele>176.66</ele>
        <time>2021-02-28T11:31:59.000Z</time>
      </trkpt>
      <trkpt lat="43.36029" lon="5.44278">
        <ele>175.44</ele>
        <time>2021-02-28T11:32:01.000Z</time>
      </trkpt>
      <trkpt lat="43.36012" lon="5.44261">
        <ele>173.33</ele>
        <time>2021-02-28T11:32:03.000Z</time>
      </trkpt>
      <trkpt lat="43.35995" lon="5.44244">
        <ele>171.87</ele>
        <time>2021-02-28T11:32:05.000Z</time>
      </trkpt>
      <trkpt lat="43.35977" lon="5.44226">
        <ele>170.6</ele>
        <time>2021-02-28T11:32:07.000Z</time>
      </trkpt>
      <trkpt lat="43.3596" lon="5.44208">
        <ele>169.39</ele>
        <time>2021-02-28T11:32:09.000Z</time>
      </trkpt>
      <trkpt lat="43.35943" lon="5.44189">
        <ele>167.96</ele>
        <time>2021-02-28T11:32:11.000Z</time>
      </trkpt>
      <trkpt lat="43.35924" lon="5.44174">
        <ele>167.38</ele>
        <time>2021-02-28T11:32:13.000Z</time>
      </trkpt>
      <trkpt lat="43.35906" lon="5.44161">
        <ele>167.06</ele>
        <time>2021-02-28T11:32:15.000Z</time>
      </trkpt>
      <trkpt lat="43.35887" lon="5.44146">
        <ele>166.01</ele>
        <time>2021-02-28T11:32:17.000Z</time>
      </trkpt>
      <trkpt lat="43.35868" lon="5.44131">
        <ele>165.47</ele>
        <time>2021-02-28T11:32:19.000Z</time>
      </trkpt>
      <trkpt lat="43.35849" lon="5.44114">
        <ele>164.88</ele>
        <time>2021-02-28T11:32:21.000Z</time>
      </trkpt>
      <trkpt lat="43.3583" lon="5.44097">
        <ele>164.05</ele>
        <time>2021-02-28T11:32:23.000Z</time>
      </trkpt>
      <trkpt lat="43.35811" lon="5.44085">
        <ele>163.14</ele>
        <time>2021-02-28T11:32:25.000Z</time>
      </trkpt>
      <trkpt lat="43.35792" lon="5.44072">
        <ele>161.57</ele>
        <time>2021-02-28T11:32:27.000Z</time>
      </trkpt>
      <trkpt lat="43.35774" lon="5.4406">
        <ele>160.1</ele>
        <time>2021-02-28T11:32:29.000Z</time>
      </trkpt>
      <trkpt lat="43.35756" lon="5.44047">
        <ele>159.56</ele>
        <time>2021-02-28T11:32:31.000Z</time>
      </trkpt>
      <trkpt lat="43.35739" lon="5.44036">
        <ele>159.47</ele>
        <time>2021-02-28T11:32:33.000Z</time>
      </trkpt>
      <trkpt lat="43.35722" lon="5.44026">
        <ele>159.26</ele>
        <time>2021-02-28T11:32:35.000Z</time>
      </trkpt>
      <trkpt lat="43.35702" lon="5.44013">
        <ele>157.77</ele>
        <time>2021-02-28T11:32:38.000Z</time>
      </trkpt>
      <trkpt lat="43.3568" lon="5.44017">
        <ele>157.08</ele>
        <time>2021-02-28T11:32:43.000Z</time>
      </trkpt>
      <trkpt lat="43.35662" lon="5.44037">
        <ele>157.93</ele>
        <time>2021-02-28T11:32:47.000Z</time>
      </trkpt>
      <trkpt lat="43.35643" lon="5.44053">
        <ele>157.69</ele>
        <time>2021-02-28T11:32:51.000Z</time>
      </trkpt>
      <trkpt lat="43.35627" lon="5.44067">
        <ele>157.77</ele>
        <time>2021-02-28T11:32:54.000Z</time>
      </trkpt>
      <trkpt lat="43.35612" lon="5.4408">
        <ele>158.04</ele>
        <time>2021-02-28T11:32:57.000Z</time>
      </trkpt>
      <trkpt lat="43.35591" lon="5.44093">
        <ele>157.79</ele>
        <time>2021-02-28T11:33:01.000Z</time>
      </trkpt>
      <trkpt lat="43.35574" lon="5.44105">
        <ele>157.31</ele>
        <time>2021-02-28T11:33:04.000Z</time>
      </trkpt>
      <trkpt lat="43.35558" lon="5.44122">
        <ele>155.9</ele>
        <time>2021-02-28T11:33:07.000Z</time>
      </trkpt>
      <trkpt lat="43.35542" lon="5.44143">
        <ele>153.87</ele>
        <time>2021-02-28T11:33:10.000Z</time>
      </trkpt>
      <trkpt lat="43.35525" lon="5.44165">
        <ele>151.72</ele>
        <time>2021-02-28T11:33:13.000Z</time>
      </trkpt>
      <trkpt lat="43.35505" lon="5.44178">
        <ele>149.07</ele>
        <time>2021-02-28T11:33:17.000Z</time>
      </trkpt>
      <trkpt lat="43.35481" lon="5.44184">
        <ele>147.83</ele>
        <time>2021-02-28T11:33:21.000Z</time>
      </trkpt>
      <trkpt lat="43.35462" lon="5.44192">
        <ele>147.1</ele>
        <time>2021-02-28T11:33:24.000Z</time>
      </trkpt>
      <trkpt lat="43.35439" lon="5.44194">
        <ele>146.05</ele>
        <time>2021-02-28T11:33:28.000Z</time>
      </trkpt>
      <trkpt lat="43.35417" lon="5.44197">
        <ele>145.05</ele>
        <time>2021-02-28T11:33:33.000Z</time>
      </trkpt>
      <trkpt lat="43.35393" lon="5.44196">
        <ele>145.1</ele>
        <time>2021-02-28T11:33:37.000Z</time>
      </trkpt>
      <trkpt lat="43.3537" lon="5.442">
        <ele>144.38</ele>
        <time>2021-02-28T11:33:41.000Z</time>
      </trkpt>
      <trkpt lat="43.35348" lon="5.44192">
        <ele>143.88</ele>
        <time>2021-02-28T11:33:45.000Z</time>
      </trkpt>
      <trkpt lat="43.35327" lon="5.44197">
        <ele>143.32</ele>
        <time>2021-02-28T11:33:49.000Z</time>
      </trkpt>
      <trkpt lat="43.35309" lon="5.44206">
        <ele>142.68</ele>
        <time>2021-02-28T11:33:53.000Z</time>
      </trkpt>
      <trkpt lat="43.35298" lon="5.44185">
        <ele>142.54</ele>
        <time>2021-02-28T11:33:58.000Z</time>
      </trkpt>
      <trkpt lat="43.3529" lon="5.4416">
        <ele>142.93</ele>
        <time>2021-02-28T11:34:02.000Z</time>
      </trkpt>
      <trkpt lat="43.35287" lon="5.44135">
        <ele>142.51</ele>
        <time>2021-02-28T11:34:06.000Z</time>
      </trkpt>
      <trkpt lat="43.35281" lon="5.4411">
        <ele>143.2</ele>
        <time>2021-02-28T11:34:10.000Z</time>
      </trkpt>
      <trkpt lat="43.35274" lon="5.44086">
        <ele>144.26</ele>
        <time>2021-02-28T11:34:15.000Z</time>
      </trkpt>
      <trkpt lat="43.3527" lon="5.44063">
        <ele>146.04</ele>
        <time>2021-02-28T11:34:20.000Z</time>
      </trkpt>
      <trkpt lat="43.3525" lon="5.44061">
        <ele>147.92</ele>
        <time>2021-02-28T11:34:31.000Z</time>
      </trkpt>
      <trkpt lat="43.3523" lon="5.44071">
        <ele>147.32</ele>
        <time>2021-02-28T11:34:42.000Z</time>
      </trkpt>
      <trkpt lat="43.35217" lon="5.44097">
        <ele>146.55</ele>
        <time>2021-02-28T11:34:46.000Z</time>
      </trkpt>
      <trkpt lat="43.35208" lon="5.44123">
        <ele>145.17</ele>
        <time>2021-02-28T11:34:50.000Z</time>
      </trkpt>
      <trkpt lat="43.35198" lon="5.44147">
        <ele>143.87</ele>
        <time>2021-02-28T11:34:53.000Z</time>
      </trkpt>
      <trkpt lat="43.35188" lon="5.44171">
        <ele>142.63</ele>
        <time>2021-02-28T11:34:56.000Z</time>
      </trkpt>
      <trkpt lat="43.3518" lon="5.44194">
        <ele>141.22</ele>
        <time>2021-02-28T11:34:59.000Z</time>
      </trkpt>
      <trkpt lat="43.35169" lon="5.44221">
        <ele>140.05</ele>
        <time>2021-02-28T11:35:03.000Z</time>
      </trkpt>
      <trkpt lat="43.35159" lon="5.44248">
        <ele>138.95</ele>
        <time>2021-02-28T11:35:07.000Z</time>
      </trkpt>
      <trkpt lat="43.35155" lon="5.44276">
        <ele>138.41</ele>
        <time>2021-02-28T11:35:13.000Z</time>
      </trkpt>
      <trkpt lat="43.3516" lon="5.44302">
        <ele>138.87</ele>
        <time>2021-02-28T11:35:17.000Z</time>
      </trkpt>
      <trkpt lat="43.3517" lon="5.44325">
        <ele>138.94</ele>
        <time>2021-02-28T11:35:21.000Z</time>
      </trkpt>
      <trkpt lat="43.3518" lon="5.44352">
        <ele>139.65</ele>
        <time>2021-02-28T11:35:25.000Z</time>
      </trkpt>
      <trkpt lat="43.35193" lon="5.44375">
        <ele>139.8</ele>
        <time>2021-02-28T11:35:29.000Z</time>
      </trkpt>
      <trkpt lat="43.35206" lon="5.44399">
        <ele>140.35</ele>
        <time>2021-02-28T11:35:33.000Z</time>
      </trkpt>
      <trkpt lat="43.35216" lon="5.44419">
        <ele>141.15</ele>
        <time>2021-02-28T11:35:37.000Z</time>
      </trkpt>
      <trkpt lat="43.35203" lon="5.44439">
        <ele>140.91</ele>
        <time>2021-02-28T11:35:42.000Z</time>
      </trkpt>
      <trkpt lat="43.35183" lon="5.44454">
        <ele>140.21</ele>
        <time>2021-02-28T11:35:47.000Z</time>
      </trkpt>
      <trkpt lat="43.35165" lon="5.44444">
        <ele>139</ele>
        <time>2021-02-28T11:36:23.000Z</time>
      </trkpt>
    </trkseg>
  </trk>
</gpx>